     2              OBSERVATION DATA    GPS                 RINEX VERSION / TYPE
ASRINEXO V2.8.2 VM                                          PGM / RUN BY / DATE
                                                            COMMENT
Original Marker Name: 0702                                  COMMENT
Campaign Name: HPGN 1991                                    COMMENT
4-Character Station Name: 0702                              COMMENT
6-Character Antenna Code: ASHL12                            COMMENT
Vertical Measurement Point: BAS                             COMMENT
Vertical Offset to Rinex Ref. Point: 0.0000                 COMMENT
Radial Measurement Point: RRP                               COMMENT
Radial Offset to Rinex Ref. Point: 0.0000                   COMMENT
Antenna Height from Field Measurement: 2.2200 m             COMMENT
Original XYZ: 6378137.0000 0.0000 0.0000                    COMMENT
New XYZ position is based on association with SCEC monument COMMENT
E1D0Q2W9+0011. Position of that monument is believed to be  COMMENT
valid to within 1 m horizontally; vertical accuracy         COMMENT
should be no worse than 3-times this value.                 COMMENT
                                                            COMMENT
Revised Rinex header created by UCSD GPS archive for        COMMENT
GSAC on 12-Apr-1999 (1999:102) 20:40:38 GMT                 COMMENT
For assistance contact dagnew@ucsd.edu or hjohnson@ucsd.edu COMMENT
                                                            COMMENT
HPGN-CALIF STA 07-02                                        MARKER NAME
WGV CALIF DEPT TRANSPORTATION                               OBSERVER / AGENCY
577 ASHTECH L-XII3 6A                                       REC # / TYPE / VERS
631 ASHTECH GEODETIC L                                      ANT # / TYPE
 -2482759.0000 -4669484.0000  3553614.0000                  APPROX POSITION XYZ
        2.2200        0.0000        0.0000                  ANTENNA: DELTA H/E/N
     1     2     0                                          WAVELENGTH FACT L1/2
     3    C1    L1    L2                                    # / TYPES OF OBSERV
     0                                                      INTERVAL
  1991     4    23    19    52   15.000000                  TIME OF FIRST OBS
  1991     4    24     1    58    0.000000                  TIME OF LAST OBS
     0                                                      # OF SATELLITES
                                                            END OF HEADER
 91  4 23 19 52 15.0000000  0  1 02
  32645330.108           0.740 2         0.238 1
 91  4 23 19 52 30.0000000  0  1 02
  32636826.494      -44711.600 2    -34840.334 1
 91  4 23 19 52 45.0000000  0  2 02 19
  32628297.404      -89520.996 2    -69756.576 1
  29673089.951           0.633 3         0.233 3
 91  4 23 19 53  0.0000000  0  2 02 19
  32619762.912     -134383.681 2   -104714.349 1
  29672885.190       -1072.829 3      -836.224 3
 91  4 23 19 53 15.0000000  0  5 16 02 18 19 11
  30487394.319           0.604 2         0.086 1
  29613299.336        -779.512 2      -607.235 1
  26389974.601           0.495 4         0.388 2
  26674752.853        1598.563 3      1245.436 2
  29537146.062           0.850 2         0.367 1
 91  4 23 19 53 30.0000000  0  5 16 02 18 19 11
  30481240.779      -32331.389 2    -25193.640 1
  29604762.445      -45615.974 2    -35544.605 1
  26393505.260       18569.021 4     14469.314 3
  26674554.392         544.484 3       424.081 2
  29531540.843      -29440.280 2    -22940.648 1
 91  4 23 19 53 45.0000000  0  5 16 02 18 19 11
  24779034.733         168.027 2       130.336 1
  23900168.259        -728.447 2      -567.169 1
  20701007.390         218.335 4       169.902 3
  20978304.019        1668.943 3      1300.154 3
  23829894.810         152.807 2       118.956 1
 91  4 23 19 54  0.0000000  0  5 16 02 18 19 11
  24772933.055      -31936.679 2    -24886.358 1
  23891654.149      -45450.639 2    -35415.472 1
  20704586.910       19034.017 4     14831.438 3
  20978126.245         721.240 3       561.665 3
  23824326.166      -29078.502 2    -22658.501 1
 91  4 23 19 54 15.0000000  0  5 16 02 18 19 11
  24766860.458      -63893.948 2    -49788.089 1
  23883163.432      -90082.081 2    -70193.040 1
  20708200.614       38006.748 4     29615.344 3
  20977955.660        -139.908 3      -109.352 3
  23818791.690      -58171.133 2    -45327.936 1
 91  4 23 19 54 30.0000000  0  5 16 02 18 19 11
  24760806.149      -95690.445 2    -74564.581 1
  23874693.096     -134609.478 2   -104889.522 1
  20711842.789       57149.729 4     44531.911 3
  20977813.860        -901.305 3      -702.658 3
  23813282.412      -87111.569 2    -67878.738 1
 91  4 23 19 54 45.0000000  0  5 16 02 18 19 11
  24754769.830     -127319.651 2    -99210.728 1
  23866234.749     -179026.358 2   -139499.929 1
  20715520.047       76468.981 4     59585.834 3
  20977689.745       -1556.772 3     -1213.414 3
  23807802.799     -115892.969 2    -90305.664 1
 91  4 23 19 55  0.0000000  0  5 16 02 18 19 11
  24748791.368     -158761.990 2   -123711.191 1
  23857808.484     -223313.243 2   -174009.048 1
  20719234.474       95983.927 4     74792.238 3
  20977586.623       -2086.986 3     -1626.558 3
  23802366.367     -144495.727 2   -112593.451 1
 91  4 23 19 55 15.0000000  0  5 16 02 18 19 11
  24742850.983     -190009.103 2   -148059.572 1
  23849413.393     -267461.855 2   -208410.455 1
  20722982.781      115702.442 4     90157.273 3
  20977512.267       -2483.945 3     -1935.882 3
  23796955.709     -172911.551 2   -134735.446 1
 91  4 23 19 55 30.0000000  0  5 16 02 18 19 11
  24736951.064     -221063.930 2   -172258.116 1
  23841034.497     -311474.933 2   -242706.201 1
  20726774.853      135621.862 4    105678.853 3
  20977463.101       -2750.618 3     -2143.679 3
  23791582.831     -201142.892 2   -156733.724 1
 91  4 23 19 55 45.0000000  0  5 16 02 18 19 11
  24731069.739     -251908.149 2   -196292.613 1
  23832684.672     -355334.418 2   -276882.261 1
  20730610.393      155759.713 4    121370.641 3
  20977437.624       -2869.194 3     -2236.078 3
  23786251.021     -229171.524 2   -178574.079 1
 91  4 23 19 56  0.0000000  0  5 16 02 18 19 11
  24725235.476     -282531.347 2   -220154.785 1
  23824374.128     -399030.081 2   -310930.695 1
  20734482.814      176126.120 4    137240.533 3
  20977443.915       -2829.553 3     -2205.184 3
  23780956.983     -256986.960 2   -200248.309 1
 91  4 23 19 56 15.0000000  0  5 16 02 18 19 11
  24719474.366     -312920.285 2   -243834.500 1
  23816083.067     -442548.757 2   -344841.226 1
  20738404.105      196734.357 4    153298.859 3
  20977490.088       -2618.646 3     -2040.845 3
  23775707.617     -284575.877 2   -221746.044 1
 91  4 23 19 56 30.0000000  0  5 16 02 18 19 11
  24713714.755     -343083.451 2   -267338.188 1
  23807835.780     -485898.848 2   -378620.367 1
  20742371.255      217575.849 4    169538.950 3
  20977559.339       -2244.810 3     -1749.548 3
  23770495.726     -311946.411 2   -243073.618 1
 91  4 23 19 56 45.0000000  0  5 16 02 18 19 11
  24708038.182     -373015.844 2   -290662.114 1
  23799623.559     -529075.639 2   -412264.442 1
  20746380.678      238655.126 4    185964.330 3
  20977662.470       -1703.580 3     -1327.804 3
  23765331.805     -339093.588 2   -264227.129 1
 91  4 23 19 57  0.0000000  0  5 16 02 18 19 11
  24702379.897     -402710.718 2   -313800.980 1
  23791445.227     -572072.648 2   -445768.505 1
  20750440.166      259978.465 4    202579.884 3
  20977795.275        -988.667 3      -770.731 3
  23760208.351     -366010.695 2   -285201.361 1
 91  4 23 19 57 15.0000000  0  5 16 02 18 19 11
  24696774.677     -432154.446 2   -336744.181 1
  23783293.270     -614875.983 2   -479121.658 1
  20754547.625      281559.237 4    219396.033 3
  20977971.252         -86.448 3       -67.704 3
  23755132.266     -392683.813 2   -305985.483 1
 91  4 23 19 57 30.0000000  0  5 16 02 18 19 11
  24691214.131     -461355.414 2   -359498.190 1
  23775181.188     -657494.218 2   -512330.458 1
  20758701.553      303388.720 4    236405.977 3
  20978173.910         994.247 3       774.389 3
  23750107.144     -419121.233 2   -326585.992 1
 91  4 23 19 57 45.0000000  0  5 16 02 18 19 11
  24685704.538     -490298.757 2   -382051.424 1
  23767109.572     -699912.353 2   -545383.458 1
  20762903.138      325481.988 4    253621.469 3
  20978417.340        2268.303 3      1767.165 3
  23745121.591     -445307.875 2   -346990.999 1
 91  4 23 19 58  0.0000000  0  5 16 02 18 19 11
  24680246.224     -518978.368 2   -404399.172 1
  23759084.426     -742124.627 2   -578276.023 1
  20767160.494      347844.335 4    271046.634 3
  20978697.050        3741.240 3      2914.907 3
  23740185.814     -471237.788 2   -367195.995 1
 91  4 23 19 58 15.0000000  0  5 16 02 18 19 11
  24674848.156     -547410.195 2   -426553.823 1
  23751089.565     -784146.970 2   -611020.535 1
  20771463.412      370459.701 4    288668.958 3
  20979011.529        5396.841 3      4204.995 3
  23735301.594     -496926.581 2   -387213.098 1
 91  4 23 19 58 30.0000000  0  5 16 02 18 19 11
  24669475.278     -575584.271 2   -448507.619 1
  23743120.182     -825969.551 2   -643609.403 1
  20775817.599      393337.730 4    306495.960 3
  20979363.186        7245.013 3      5645.120 3
  23730457.850     -522364.198 2   -407034.565 1
 91  4 23 19 58 45.0000000  0  5 16 02 18 19 11
  24664165.351     -603506.799 2   -470265.405 1
  23735204.458     -867598.473 2   -676047.460 1
  20780219.757      416472.279 4    324522.832 3
  20979752.020        9279.495 3      7230.422 3
  23725666.265     -547556.675 2   -426664.884 1
 91  4 23 19 59  0.0000000  0  5 16 02 18 19 11
  24658903.997     -631183.889 2   -491831.937 1
  23727310.328     -909040.117 2   -708339.492 1
  20784670.775      439856.785 4    342744.477 3
  20980171.733       11493.587 3      8955.693 2
  23720918.453     -572510.082 2   -446108.962 1
 91  4 23 19 59 15.0000000  0  5 16 02 18 19 11
  24653684.008     -658610.699 2   -513203.477 1
  23719465.653     -950289.509 2   -740481.720 1
  20789168.254      463495.852 4    361164.481 3
  20980629.217       13892.043 3     10824.633 3
  23716212.609     -597219.269 2   -465362.777 1
 91  4 23 19 59 30.0000000  0  5 16 02 18 19 11
  24648505.691     -685795.476 2   -534386.397 1
  23711658.460     -991354.816 2   -772480.492 1
  20793714.010      487381.412 4    379776.568 3
  20981119.969       16466.498 3     12830.699 3
  23711557.729     -621692.308 2   -484432.550 1
 91  4 23 19 59 45.0000000  0  5 16 02 18 19 11
  24643377.744     -712730.067 2   -555374.368 1
  23703877.949    -1032228.154 2   -804329.722 1
  20798309.534      511520.949 4    398586.552 3
  20981647.306       19224.603 3     14979.859 3
  23706946.622     -645921.068 2   -503311.978 1
 91  4 23 20  0  0.0000000  0  5 16 02 18 19 11
  24638293.265     -739425.390 2   -576175.959 1
  23696137.303    -1072920.395 2   -836037.848 1
  20802949.721      535903.168 4    417585.641 3
  20982203.122       22155.183 3     17263.438 3
  23702382.282     -669916.381 2   -522009.564 1
 91  4 23 20  0 15.0000000  0  5 16 02 18 19 11
  24633278.640     -765873.390 2   -596784.742 1
  23688421.550    -1113423.482 2   -867598.541 1
  20807634.276      560535.909 4    436779.945 3
  20982791.316       25266.218 3     19687.617 2
  23697864.107     -693669.944 2   -540518.671 1
 91  4 23 20  0 30.0000000  0  5 16 02 18 19 11
  24628280.496     -792079.476 2   -617204.998 1
  23680751.655    -1153743.077 2   -899016.297 1
  20812365.003      585413.595 4    456165.095 3
  20983423.581       28552.119 3     22248.055 3
  23693387.306     -717187.146 2   -558843.669 1
 91  4 23 20  0 45.0000000  0  5 16 02 18 19 11
  24623328.822     -818039.480 2   -637433.585 1
  23673113.241    -1193875.387 2   -930288.160 1
  20817147.890      610539.918 4    475744.000 3
  20984078.025       32016.451 3     24947.537 2
  23688953.676     -740463.757 2   -576981.174 1
 91  4 23 20  1  0.0000000  0  5 16 02 18 19 11
  24618435.616     -843765.833 2   -657480.056 1
  23665512.904    -1233832.627 2   -961423.468 1
  20821976.941      635902.362 4    495506.893 3
  20984767.248       35646.791 3     27776.375 3
  23684571.613     -763512.089 2   -594940.821 1
 91  4 23 20  1 15.0000000  0  5 16 02 18 19 11
  24613608.056     -869252.788 2   -677340.028 1
  23657944.945    -1273609.004 2   -992417.944 1
  20826848.274      661506.396 4    515458.054 3
  20985494.241       39448.809 3     30738.989 3
  23680224.624     -786326.164 2   -612717.900 1
 91  4 23 20  1 30.0000000  0  5 16 02 18 19 11
  24608790.985     -894501.502 2   -697014.356 1
  23650405.168    -1313205.955 2  -1023272.569 1
  20831766.068      687350.302 4    535596.119 3
  20986250.019       43420.923 3     33834.140 3
  23675922.299     -808907.264 2   -630313.450 1
 91  4 23 20  1 45.0000000  0  5 16 02 18 19 11
  24604022.189     -919517.445 2   -716507.332 1
  23642906.757    -1352628.872 2  -1053991.618 1
  20836727.933      713428.765 4    555916.950 3
  20987033.377       47557.620 3     37057.523 3
  23671671.845     -831260.535 2   -647731.497 1
 91  4 23 20  2  0.0000000  0  5 16 02 18 19 11
  24599321.441     -944306.211 2   -735823.247 1
  23635434.129    -1391883.528 2  -1084579.517 1
  20841737.463      739735.735 4    576415.836 3
  20987853.310       51852.809 3     40404.433 3
  23667465.452     -853391.539 2   -664976.327 1
 91  4 23 20  2 15.0000000  0  5 16 02 18 19 11
  24594641.380     -968864.215 2   -754959.342 1
  23628000.179    -1430966.394 2  -1115033.560 1
  20846783.874      766274.387 3    597095.252 3
  20988701.722       56310.043 3     43877.604 3
  23663300.138     -875296.595 2   -682045.088 1
 91  4 23 20  2 30.0000000  0  5 16 02 18 19 11
  24590013.190     -993188.294 2   -773913.155 1
  23620594.403    -1469874.260 2  -1145351.253 1
  20851878.544      793047.735 4    617957.533 3
  20989585.811       60932.333 3     47479.390 2
  23659175.595     -896972.297 2   -698935.128 1
 91  4 23 20  2 45.0000000  0  5 16 02 18 19 11
  24585424.567    -1017288.998 2   -792692.899 1
  23613218.309    -1508617.966 2  -1175541.028 1
  20857020.582      820045.167 4    638994.446 3
  20990491.181       65708.693 3     51201.220 3
  23655088.519     -918429.177 2   -715654.714 1
 91  4 23 20  3  0.0000000  0  5 16 02 18 19 11
  24580880.609    -1041164.373 2   -811297.138 1
  23605882.988    -1547195.339 2  -1205601.173 1
  20862202.197      847268.333 4    660207.266 3
  20991426.539       70640.885 3     55044.482 3
  23651049.718     -939664.863 2   -732201.858 1
 91  4 23 20  3 15.0000000  0  5 16 02 18 19 11
  24576385.224    -1064808.990 2   -829721.495 1
  23598574.645    -1585601.001 2  -1235527.510 1
  20867424.279      874722.245 4    681599.873 3
  20992397.268       75734.164 3     59013.274 2
  23647051.088     -960674.068 2   -748572.546 1
 91  4 23 20  3 30.0000000  0  5 16 02 18 19 11
  24571923.413    -1088226.465 2   -847968.944 1
  23591297.782    -1623838.453 2  -1265322.872 1
  20872692.535      902403.154 4    703169.254 3
  20993403.369       80984.670 3     63104.479 2
  23643092.925     -981460.127 2   -764769.530 1
 91  4 23 20  3 45.0000000  0  5 16 02 18 19 11
  24567512.268    -1111422.667 2   -866043.927 1
  23584042.810    -1661913.902 2  -1294991.911 1
  20878002.758      930304.687 4    724910.647 3
  20994420.569       86386.308 3     67313.523 2
  23639177.934    -1002028.839 2   -780796.949 1
 91  4 23 20  4  0.0000000  0  5 16 02 18 19 11
  24563133.799    -1134397.895 2   -883946.503 1
  23576837.293    -1699827.802 2  -1324535.445 1
  20883356.154      958426.583 4    746823.883 3
  20995486.629       91938.493 3     71640.019 3
  23635300.722    -1022380.387 2   -796655.511 1
 91  4 23 20  4 15.0000000  0  5 16 02 18 19 11
  24558806.895    -1157153.628 2   -901678.317 1
  23569647.672    -1737581.926 2  -1353954.124 1
  20888744.624      986766.915 4    768907.192 3
  20996565.279       97639.341 3     76082.228 2
  23631476.568    -1042516.380 2   -812345.844 1
 91  4 23 20  4 30.0000000  0  5 16 02 18 19 11
  24554519.857    -1179697.506 2   -919244.955 1
  23562499.121    -1775183.641 2  -1383253.987 1
  20894178.962     1015317.899 4    791154.658 3
  20997674.816      103481.335 3     80634.431 3
  23627683.292    -1062444.040 2   -827873.791 1
 91  4 23 20  4 45.0000000  0  5 16 02 18 19 11
  24550272.099    -1202023.391 2   -936641.738 1
  23555365.262    -1812626.569 2  -1412430.167 2
  20899651.673     1044085.562 4    813570.973 3
  20998814.027      109470.442 3     85301.273 3
  23623932.595    -1082157.010 2   -843234.464 1
 91  4 23 20  5  0.0000000  0  5 16 02 18 19 11
  24546068.114    -1224134.906 2   -953871.476 1
  23548273.066    -1849914.819 2  -1441485.823 1
  20905165.759     1073065.606 4    836152.780 3
  20999984.117      115602.589 3     90079.557 2
  23620219.965    -1101659.039 2   -858430.704 1
 91  4 23 20  5 15.0000000  0  5 16 02 18 19 11
  24541897.695    -1246030.609 2   -970933.095 1
  23541204.262    -1887047.081 2  -1470419.907 1
  20910722.711     1102259.192 4    858900.981 3
  21001178.488      121878.996 3     94970.262 3
  23616554.102    -1120948.741 2   -873461.551 1
 91  4 23 20  5 30.0000000  0  5 16 02 18 19 11
  24537768.956    -1267716.183 2   -987830.913 1
  23534162.436    -1924028.824 2  -1499236.725 1
  20916320.435     1131660.788 4    881811.271 3
  21002398.346      128294.136 3     99969.066 2
  23612912.520    -1140031.187 2   -888330.829 1
 91  4 23 20  5 45.0000000  0  5 16 02 18 19 11
  24533689.078    -1289187.256 2  -1004561.593 1
  23527161.383    -1960855.576 2  -1527932.759 1
  20921952.031     1161274.338 4    904886.714 3
  21003642.782      134852.221 3    105079.266 3
  23609325.803    -1158901.951 2   -903035.216 1
 91  4 23 20  6  0.0000000  0  5 16 02 18 19 11
  24529637.984    -1310446.898 2  -1021127.594 1
  23520183.119    -1997530.727 2  -1556510.661 1
  20927626.204     1191096.213 4    928124.488 3
  21004923.497      141549.638 3    110298.029 3
  23605780.756    -1177564.138 2   -917577.077 1
 91  4 23 20  6 15.0000000  0  5 16 02 18 19 11
  24525632.155    -1331497.281 2  -1037530.540 1
  23513231.825    -2034056.620 2  -1584972.277 1
  20933339.048     1221124.136 4    951522.814 3
  21006217.998      148383.796 3    115623.343 3
  23602264.494    -1196019.921 2   -931958.063 1
 91  4 23 20  6 30.0000000  0  5 16 02 18 19 11
  24521677.893    -1352338.695 2  -1053770.620 1
  23506312.918    -2070433.291 2  -1613317.591 1
  20939093.266     1251357.831 4    975081.489 3
  21007547.573      155354.488 3    121055.049 3
  23598788.096    -1214269.317 2   -946178.283 1
 91  4 23 20  6 45.0000000  0  5 16 02 18 19 11
  24517741.621    -1372971.272 2  -1069847.916 1
  23499417.692    -2106661.262 2  -1641547.026 1
  20944888.256     1281796.173 4    998799.626 3
  21008900.245      162461.212 3    126592.756 3
  23595359.975    -1232312.479 2   -960237.733 1
 91  4 23 20  7  0.0000000  0  5 16 02 18 19 11
  24513854.812    -1393393.155 2  -1085761.064 1
  23492555.140    -2142738.558 2  -1669659.074 1
  20950720.416     1312441.437 4   1022679.004 3
  21010281.089      169705.818 3    132237.898 3
  23591961.527    -1250147.174 2   -974134.776 1
 91  4 23 20  7 15.0000000  0  5 16 02 18 19 11
  24510007.274    -1413609.887 2  -1101514.360 1
  23485712.081    -2178670.744 2  -1697658.021 1
  20956589.753     1343287.675 4   1046714.985 3
  21011678.119      177082.374 3    137985.866 3
  23588608.049    -1267779.030 2   -987873.785 1
 91  4 23 20  7 30.0000000  0  5 16 02 18 19 11
  24506205.605    -1433618.453 2  -1117105.488 1
  23478907.395    -2214454.951 2  -1725541.677 1
  20962499.863     1374337.486 4   1070909.591 3
  21013109.926      184593.693 3    143838.836 3
  23585290.239    -1285205.038 2  -1001452.306 1
 91  4 23 20  7 45.0000000  0  5 16 02 18 19 11
  24502427.318    -1453422.258 2  -1132536.987 1
  23472123.989    -2250094.613 2  -1753312.701 1
  20968444.445     1405587.146 4   1095259.923 3
  21014569.018      192236.295 3    149794.103 3
  23582014.711    -1302428.294 2  -1014872.936 1
 91  4 23 20  8  0.0000000  0  5 16 02 18 19 11
  24498704.201    -1473021.706 2  -1147809.322 1
  23465368.766    -2285590.405 2  -1780971.606 1
  20974429.809     1437036.032 4   1119765.493 3
  21016044.599      200009.504 3    155851.149 3
  23578769.154    -1319449.202 2  -1028135.843 1
 91  4 23 20  8 15.0000000  0  5 16 02 18 19 11
  24495014.352    -1492413.053 2  -1162919.457 1
  23458639.621    -2320938.324 2  -1808515.316 1
  20980451.434     1468687.832 4   1144429.191 3
  21017551.949      207917.113 3    162012.919 3
  23575576.366    -1336263.699 2  -1041237.938 1
 91  4 23 20  8 30.0000000  0  5 16 02 18 19 11
  24491360.486    -1511597.944 2  -1177868.779 1
  23451937.464    -2356140.075 2  -1835945.086 1
  20986514.442     1500540.394 4   1169249.321 3
  21019081.792      215957.059 3    168277.799 3
  23572413.558    -1352873.487 2  -1054180.540 1
 91  4 23 20  8 45.0000000  0  5 16 02 18 19 11
  24487748.588    -1530576.712 2  -1192657.419 1
  23445274.273    -2391196.131 2  -1863261.375 1
  20992611.915     1532593.088 4   1194225.394 3
  21020636.214      224128.779 3    174645.373 3
  23569292.421    -1369278.837 2  -1066963.816 1
 91  4 23 20  9  0.0000000  0  5 16 02 18 19 11
  24484177.759    -1549357.154 2  -1207291.636 1
  23438631.472    -2426114.188 2  -1890470.204 1
  20998746.870     1564838.105 4   1219351.239 3
  21022211.026      232424.394 3    181109.403 2
  23566208.452    -1385487.108 2  -1079593.662 1
 91  4 23 20  9 15.0000000  0  5 16 02 18 19 11
  24480633.009    -1567935.744 2  -1221768.543 1
  23432008.155    -2460890.998 2  -1917568.898 1
  21004919.597     1597278.689 4   1244629.545 3
  21023817.310      240847.166 3    187672.586 2
  23563160.763    -1401494.779 2  -1092067.097 1
 91  4 23 20  9 30.0000000  0  5 16 02 18 19 11
  24477153.618    -1586313.145 2  -1236088.462 1
  23425414.520    -2495527.007 2  -1944557.771 1
  21011132.197     1629913.850 4   1270059.593 3
  21025445.189      249396.341 3    194334.376 3
  23560156.839    -1417302.265 2  -1104384.841 1
 91  4 23 20  9 45.0000000  0  5 16 02 18 19 11
  24473679.027    -1604491.727 2  -1250253.546 1
  23418843.074    -2530024.516 2  -1971438.824 1
  21017376.269     1662741.105 4   1295639.232 3
  21027091.050      258069.292 3    201092.514 3
  23557184.997    -1432911.769 2  -1116547.995 1
 91  4 23 20 10  0.0000000  0  5 16 02 18 19 11
  24470258.095    -1622468.047 2  -1264261.040 1
  23412313.289    -2564380.638 2  -1998209.688 1
  21023662.317     1695763.347 4   1321370.794 3
  21028770.485      266869.152 3    207949.547 3
  23554247.331    -1448320.155 2  -1128554.382 1
 91  4 23 20 10 15.0000000  0  5 16 02 18 19 11
  24466876.435    -1640248.735 2  -1278116.145 1
  23405803.896    -2598601.735 2  -2024875.401 1
  21029981.347     1728973.922 4   1347249.108 3
  21030466.410      275789.407 3    214900.386 3
  23551359.137    -1463533.725 2  -1140409.010 1
 91  4 23 20 10 30.0000000  0  5 16 02 18 19 11
  24463531.952    -1657828.625 2  -1291814.777 1
  23399308.000    -2632682.724 2  -2051431.888 1
  21036338.749     1762377.669 4   1373277.943 3
  21032188.415      284834.992 3    221948.892 3
  23548498.811    -1478547.159 2  -1152107.732 1
 91  4 23 20 10 45.0000000  0  5 16 02 18 19 11
  24460228.233    -1675211.828 2  -1305360.115 1
  23392857.658    -2666627.873 2  -2077882.512 1
  21042731.819     1795969.868 4   1399453.627 3
  21033928.717      294001.326 3    229091.489 3
  23545682.267    -1493364.757 2  -1163653.817 1
 91  4 23 20 11  0.0000000  0  5 16 02 18 19 11
  24456964.100    -1692404.595 2  -1318757.088 1
  23386420.220    -2700443.340 2  -2104232.092 1
  21049157.574     1829744.205 4   1425771.228 3
  21035694.190      303282.146 3    236323.280 3
  23542892.091    -1507992.331 2  -1175051.787 1
 91  4 23 20 11 15.0010000  0  5 16 02 18 19 11
  24453719.140    -1709403.665 2  -1332003.114 1
  23380006.160    -2734127.027 2  -2130478.982 1
  21055620.798     1863707.161 4   1452235.814 3
  21037487.849      312682.186 3    243647.979 3
  23540149.897    -1522426.255 2  -1186298.938 1
 91  4 23 20 11 30.0010000  0  5 16 02 18 19 11
  24450527.556    -1726206.301 2  -1345096.082 1
  23373622.679    -2767674.289 2  -2156619.590 1
  21062119.398     1897854.343 4   1478843.954 3
  21039298.300      322200.206 3    251064.616 3
  23537438.273    -1536664.155 2  -1197393.311 1
 91  4 23 20 11 45.0010000  0  5 16 02 18 19 11
  24447369.241    -1742816.329 2  -1358038.948 1
  23367267.379    -2801089.687 2  -2182657.434 2
  21068653.973     1932185.181 4   1505595.199 3
  21041133.330      331834.491 3    258571.851 3
  23534764.725    -1550709.252 2  -1208337.433 1
 91  4 23 20 12  0.0010000  0  5 16 02 18 19 11
  24444230.409    -1759231.802 2  -1370830.279 1
  23360936.362    -2834371.648 2  -2208591.276 1
  21075221.825     1966701.308 4   1532490.831 3
  21042989.344      341586.647 3    266170.930 2
  23532129.245    -1564559.681 2  -1219129.874 1
 91  4 23 20 12 15.0010000  0  5 16 02 18 19 11
  24441153.639    -1775460.197 2  -1383475.736 1
  23354621.529    -2867527.585 2  -2234426.925 1
  21081821.759     2001395.032 4   1559524.848 3
  21044863.942      351449.026 3    273855.890 3
  23529533.342    -1578222.888 2  -1229776.461 1
 91  4 23 20 12 30.0010000  0  5 16 02 18 19 11
  24438090.960    -1791497.400 2  -1395972.368 1
  23348338.482    -2900553.282 2  -2260161.213 1
  21088459.167     2036270.055 4   1586699.995 2
  21046761.933      361425.653 3    281629.737 2
  23526968.622    -1591694.583 2  -1240273.891 1
 91  4 23 20 12 45.0010000  0  5 16 02 18 19 11
  24435074.751    -1807343.722 2  -1408320.214 1
  23342081.811    -2933449.178 2  -2285794.237 1
  21095130.446     2071325.682 4   1614016.030 2
  21048680.898      371515.788 3    289492.212 2
  23524437.468    -1604975.057 2  -1250622.155 1
 91  4 23 20 13  0.0010000  0  5 16 02 18 19 11
  24432100.510    -1822997.840 2  -1420518.039 1
  23335848.829    -2966214.068 2  -2311325.551 1
  21101835.300     2106563.083 4   1641473.812 3
  21050627.453      381720.771 3    297444.252 3
  23521946.196    -1618062.801 2  -1260820.205 1
 91  4 23 20 13 15.0010000  0  5 16 02 18 19 11
  24429166.736    -1838459.657 2  -1432566.241 1
  23329639.527    -2998848.016 2  -2336754.497 1
  21108575.839     2141982.082 4   1669072.961 3
  21052591.091      392040.474 3    305485.575 3
  23519496.892    -1630957.615 2  -1270868.022 1
 91  4 23 20 13 30.0010000  0  5 16 02 18 19 11
  24426264.747    -1853728.669 2  -1444464.141 1
  23323452.413    -3031350.401 2  -2362080.896 1
  21115349.944     2177583.167 4   1696814.007 3
  21054575.425      402475.342 3    313616.634 3
  23517076.067    -1643658.758 2  -1280764.921 1
 91  4 23 20 13 45.0010000  0  5 16 02 18 19 11
  24423393.340    -1868806.958 2  -1456213.443 1
  23317294.074    -3063723.054 2  -2387306.201 1
  21122159.438     2213364.154 4   1724695.227 3
  21056579.233      413023.280 3    321835.802 3
  23514700.508    -1656167.944 2  -1290512.261 1
 91  4 23 20 14  0.0010000  0  5 16 02 18 19 11
  24420557.601    -1883695.226 2  -1467814.720 1
  23311158.821    -3095966.870 2  -2412431.139 1
  21129002.200     2249323.710 4   1752715.593 3
  21058608.528      423683.268 3    330142.280 3
  23512354.937    -1668486.099 2  -1300110.716 2
 91  4 23 20 14 15.0010000  0  5 16 02 18 19 11
  24417746.449    -1898393.717 2  -1479268.081 1
  23305039.458    -3128082.103 2  -2437455.863 1
  21135879.732     2285461.216 4   1780874.625 3
  21060660.604      434454.777 3    338535.664 3
  23510040.541    -1680613.350 2  -1309560.440 1
 91  4 23 20 14 30.0010000  0  5 16 02 18 19 11
  24414997.953    -1912905.732 2  -1490576.143 1
  23298956.966    -3160072.150 2  -2462383.069 2
  21142793.247     2321773.255 4   1809169.657 3
  21062732.477      445334.233 3    347013.158 3
  23507774.403    -1692552.870 2  -1318863.854 1
 91  4 23 20 14 45.0010000  0  5 16 02 18 19 11
  24412268.634    -1927231.045 2  -1501738.697 1
  23292889.464    -3191936.962 2  -2487212.674 2
  21149733.443     2358259.835 4   1837600.705 3
  21064819.933      456321.946 3    355575.012 3
  23505540.950    -1704304.320 2  -1328020.741 1
 91  4 23 20 15  0.0010000  0  5 16 02 18 19 11
  24409575.306    -1941367.750 2  -1512754.315 1
  23286849.246    -3223674.701 2  -2511943.252 2
  21156711.113     2394922.725 4   1866169.137 3
  21066936.164      467419.808 3    364222.682 3
  23503336.577    -1715865.465 2  -1337029.317 1
 91  4 23 20 15 15.0010000  0  5 16 02 18 19 11
  24406929.932    -1955312.693 2  -1523620.529 1
  23280833.615    -3255282.160 2  -2536572.312 1
  21163719.958     2431764.526 4   1894876.968 3
  21069063.189      478630.660 3    372958.402 3
  23501173.876    -1727233.229 2  -1345887.212 1
 91  4 23 20 15 30.0010000  0  5 16 02 18 19 11
  24404308.848    -1969070.855 2  -1534341.199 1
  23274844.360    -3286764.209 2  -2561103.674 1
  21170763.581     2468780.197 4   1923720.283 3
  21071222.592      489949.268 3    381778.103 3
  23499043.248    -1738412.447 2  -1354598.181 1
 91  4 23 20 15 45.0010000  0  5 16 02 18 19 11
  24401720.143    -1982641.990 2  -1544916.129 1
  23268881.490    -3318120.833 2  -2585537.299 1
  21177841.686     2505969.669 4   1952699.036 3
  21073392.492      501375.740 3    390681.845 3
  23496953.698    -1749402.726 2  -1363161.964 1
 91  4 23 20 16  0.0010000  0  5 16 02 18 19 11
  24399186.598    -1996021.779 2  -1555341.930 1
  23262939.900    -3349347.682 2  -2609869.772 1
  21184955.163     2543336.984 4   1981816.353 3
  21075592.371      512914.441 3    399673.028 3
  23494903.716    -1760199.558 2  -1371574.960 1
 91  4 23 20 16 15.0010000  0  5 16 02 18 19 11
  24396665.339    -2009212.794 2  -1565620.641 1
  23257021.999    -3380447.533 3  -2634103.299 1
  21192097.118     2580879.190 4   2011069.958 3
  21077803.340      524562.465 3    408749.401 3
  23492883.714    -1770805.667 2  -1379839.343 1
 91  4 23 20 16 30.0010000  0  5 16 02 18 19 11
  24394189.057    -2022215.572 2  -1575752.726 1
  23251123.284    -3411420.789 2  -2658238.213 1
  21199273.852     2618595.589 4   2040459.298 3
  21080053.284      536319.123 3    417910.421 3
  23490899.388    -1781221.235 2  -1387955.330 1
 91  4 23 20 16 45.0010000  0  5 16 02 18 19 11
  24391749.342    -2035032.117 2  -1585739.634 1
  23245255.142    -3442269.593 2  -2682276.125 1
  21206485.652     2656483.716 4   2069982.463 3
  21082301.430      548182.070 3    427154.280 3
  23488953.436    -1791448.277 2  -1395924.325 1
 91  4 23 20 17  0.0010000  0  5 16 02 18 19 11
  24389350.103    -2047662.284 2  -1595581.346 1
  23239408.892    -3472993.451 2  -2706216.665 1
  21213730.441     2694543.965 4   2099639.730 3
  21084579.251      560151.703 3    436481.262 2
  23487045.560    -1801486.165 2  -1403745.931 1
 91  4 23 20 17 15.0010000  0  5 16 02 18 19 11
  24386989.236    -2060106.763 2  -1605278.339 1
  23233580.327    -3503593.182 2  -2730060.493 1
  21221000.106     2732775.205 4   2129430.247 3
  21086879.556      572227.071 3    445890.637 3
  23485166.756    -1811335.631 2  -1411420.756 1
 91  4 23 20 17 30.0010000  0  5 16 02 18 19 11
  24384658.053    -2072357.049 2  -1614824.028 1
  23227786.236    -3534060.669 2  -2753801.274 1
  21228307.550     2771185.347 4   2159360.170 3
  21089195.749      584416.460 3    455388.850 3
  23483329.632    -1820988.239 2  -1418942.160 1
 91  4 23 20 17 45.0010000  0  5 16 02 18 19 11
  24382355.645    -2084418.722 2  -1624222.723 1
  23222011.932    -3564401.235 2  -2777443.152 2
  21235655.759     2809768.850 4   2189425.168 3
  21091536.836      596714.155 3    464971.461 3
  23481534.773    -1830449.268 2  -1426314.331 1
 91  4 23 20 18  0.0010000  0  5 16 02 18 19 11
  24380094.010    -2096301.795 2  -1633482.217 1
  23216263.412    -3594624.978 2  -2800993.998 1
  21243025.858     2848515.236 4   2219617.106 3
  21093894.700      609110.102 3    474630.640 3
  23479761.796    -1839728.608 2  -1433544.898 1
 91  4 23 20 18 15.0010000  0  5 16 02 18 19 11
  24377870.451    -2107997.349 2  -1642595.660 1
  23210535.282    -3624722.906 2  -2824446.827 1
  21250433.728     2887433.646 4   2249943.070 3
  21096274.456      621613.211 3    484373.324 3
  23478033.797    -1848817.216 2  -1440626.814 1
 91  4 23 20 18 30.0010000  0  5 16 02 18 19 11
  24375677.168    -2119510.690 2  -1651567.094 1
  23204821.540    -3654700.413 2  -2847805.793 2
  21257871.578     2926518.022 4   2280398.361 3
  21098670.991      634217.845 3    494195.109 3
  23476342.364    -1857720.261 2  -1447564.188 1
 91  4 23 20 18 45.0010000  0  6 16 06 02 18 19 11
  24373526.158    -2130837.621 2  -1660393.275 1
  24822816.425           0.722 2         0.302 1
  23199147.060    -3684553.300 2  -2871067.669 1
  21265340.612     2965772.327 4   2310986.073 3
  21101092.715      646928.096 3    504099.191 3
  23474680.318    -1866433.593 2  -1454353.707 1
 91  4 23 20 19  0.0010000  0  6 16 06 02 18 19 11
  24371407.222    -2141979.914 2  -1669075.599 1
  24818684.380      -21738.625 2    -16939.346 1
  23193494.481    -3714283.234 2  -2894233.755 1
  21272841.117     3005194.780 4   2341704.808 3
  21103529.428      659741.974 3    514084.026 2
  23473057.544    -1874958.933 2  -1460996.754 1
 91  4 23 20 19 15.0010000  0  6 16 06 02 18 19 11
  24369327.269    -2152940.137 2  -1677616.055 1
  24814550.842      -43406.718 2    -33823.491 1
  23187853.585    -3743893.203 2  -2917306.332 1
  21280377.299     3044782.349 4   2372552.205 3
  21105986.532      672656.665 3    524147.409 3
  23471472.541    -1883298.784 2  -1467495.219 1
 91  4 23 20 19 30.0010000  0  6 16 06 02 18 19 11
  24367273.989    -2163716.451 2  -1686013.200 1
  24810443.689      -65001.832 2    -50650.722 1
  23182242.668    -3773381.151 3  -2940283.854 1
  21287938.365     3084536.678 4   2403529.547 3
  21108462.814      685674.276 3    534290.995 3
  23469923.215    -1891450.906 2  -1473847.446 1
 91  4 23 20 19 45.0010000  0  6 16 06 02 18 19 11
  24365252.783    -2174312.000 2  -1694269.447 1
  24806351.517      -86527.165 2    -67423.650 1
  23176655.431    -3802750.256 3  -2963168.765 1
  21295531.809     3124454.454 4   2434634.251 3
  21110962.488      698791.287 3    544512.038 3
  23468405.962    -1899418.297 2  -1480055.765 1
 91  4 23 20 20  0.0010000  0  6 16 06 02 18 19 11
  24363268.457    -2184722.639 2  -1702381.629 1
  24802258.455     -107978.951 2    -84139.197 1
  23171093.986    -3831996.415 3  -2985957.867 1
  21303163.627     3164539.600 4   2465869.363 3
  21113476.846      712011.659 3    554813.623 3
  23466924.988    -1907196.752 2  -1486116.829 1
 91  4 23 20 20 15.0010000  0  6 16 06 02 18 19 11
  24361328.203    -2194951.795 2  -1710352.420 1
  24798187.869     -129360.760 2   -100800.210 1
  23165549.624    -3861123.005 3  -3008653.813 1
  21310821.821     3204788.135 4   2497231.809 3
  21116013.392      725331.805 3    565192.953 3
  23465482.980    -1914789.652 2  -1492033.295 1
 91  4 23 20 20 30.0010000  0  6 16 06 02 18 19 11
  24359415.231    -2204993.816 2  -1718177.343 1
  24794143.371     -150667.238 2   -117402.533 1
  23160028.646    -3890124.609 3  -3031252.366 1
  21318511.504     3245205.689 4   2528725.939 3
  21118563.122      738757.276 3    575654.359 3
  23464075.158    -1922191.278 2  -1497800.723 1
 91  4 23 20 20 45.0010000  0  6 16 06 02 18 19 11
  24357534.028    -2214856.929 2  -1725862.871 1
  24790095.871     -171906.865 2   -133952.771 1
  23154531.949    -3919009.379 2  -3053759.858 2
  21326233.853     3285783.515 4   2560344.963 3
  21121143.137      752279.775 3    586191.371 3
  23462697.315    -1929409.685 2  -1503425.380 1
 91  4 23 20 21  0.0010000  0  6 16 06 02 18 19 11
  24355695.403    -2224542.595 2  -1733410.257 1
  24786062.768     -193081.290 2   -150452.356 1
  23149062.239    -3947778.763 2  -3076177.457 2
  21333987.692     3326520.046 4   2592087.655 3
  21123731.249      765897.603 3    596802.665 3
  23461359.337    -1936446.322 2  -1508908.410 1
 91  4 23 20 21 15.0010000  0  6 16 06 02 18 19 11
  24353881.060    -2234046.095 2  -1740815.547 1
  24782056.338     -214185.772 2   -166897.253 1
  23143606.019    -3976427.944 2  -3098501.392 1
  21341767.601     3367419.973 4   2623957.666 3
  21126339.742      779615.652 3    607492.060 3
  23460055.239    -1943296.146 2  -1514245.884 1
 91  4 23 20 21 30.0010000  0  6 16 06 02 18 19 11
  24352107.787    -2243370.867 2  -1748081.609 1
  24778047.517     -235223.986 2   -183290.540 1
  23138177.675    -4004960.434 2  -3120734.378 1
  21349579.592     3408479.477 3   2655952.014 3
  21128972.517      793430.363 3    618256.764 3
  23458792.515    -1949962.428 2  -1519440.315 1
 91  4 23 20 21 45.0010000  0  6 16 06 02 18 19 11
  24350371.089    -2252513.075 2  -1755205.406 1
  24774055.177     -256192.681 2   -199629.681 1
  23132768.221    -4033372.661 2  -3142873.659 1
  21357424.861     3449701.732 4   2688073.189 3
  21131616.382      807345.097 3    629099.400 3
  23457552.877    -1956441.581 2  -1524488.946 1
 91  4 23 20 22  0.0010000  0  6 16 06 02 18 19 11
  24348661.369    -2261474.569 2  -1762188.512 1
  24770079.032     -277093.203 2   -215915.852 1
  23127388.441    -4061665.962 2  -3164920.384 1
  21365298.312     3491085.172 3   2720319.861 2
  21134284.835      821358.329 3    640018.698 2
  23456354.300    -1962734.899 2  -1529392.894 1
 91  4 23 20 22 15.0010000  0  6 16 06 02 18 19 11
  24346997.229    -2270265.024 2  -1769038.170 1
  24766107.676     -297935.938 2   -232156.835 1
  23122016.461    -4089850.332 2  -3186882.093 2
  21373207.135     3532619.863 3   2752684.475 2
  21136967.082      835460.022 3    651007.011 2
  23455191.706    -1968852.235 2  -1534159.520 1
 91  4 23 20 22 30.0010000  0  6 16 06 02 18 19 11
  24345354.361    -2278881.083 2  -1775751.932 1
  24762165.410     -318717.488 2   -248350.077 1
  23116678.056    -4117922.289 2  -3208756.140 2
  21381142.045     3574308.789 4   2785169.401 3
  21139669.414      849653.449 3    662066.938 2
  23454056.997    -1974789.907 2  -1538786.151 1
 91  4 23 20 22 45.0010000  0  6 16 06 02 18 19 11
  24343741.481    -2287325.803 2  -1782332.202 1
  24758220.736     -339441.284 2   -264498.373 1
  23111358.243    -4145885.039 2  -3230545.184 1
  21389098.839     3616148.319 4   2817771.581 2
  21142386.430      863935.360 3    673195.693 3
  23452969.944    -1980550.969 2  -1543275.215 1
 91  4 23 20 23  0.0010000  0  6 16 06 02 18 19 11
  24342170.568    -2295597.039 2  -1788777.341 1
  24754283.862     -360105.345 2   -280600.135 1
  23106054.607    -4173736.499 3  -3252247.493 2
  21397088.901     3658140.632 3   2850492.805 3
  21145125.931      878307.927 3    684395.090 3
  23451907.479    -1986133.242 2  -1547625.012 1
 91  4 23 20 23 15.0010000  0  6 16 06 02 18 19 11
  24340627.236    -2303698.446 2  -1795090.124 1
  24750362.580     -380713.421 2   -296658.282 1
  23100780.061    -4201480.285 3  -3273865.945 1
  21405108.052     3700281.929 4   2883330.115 3
  21147873.232      892767.459 3    695662.246 3
  23450875.901    -1991540.038 2  -1551838.014 1
 91  4 23 20 23 30.0010000  0  6 16 06 02 18 19 11
  24339123.778    -2311626.489 2  -1801267.829 1
  24746458.085     -401262.191 2   -312670.188 1
  23095522.005    -4229112.925 3  -3295397.773 2
  21413155.683     3742575.205 4   2916285.857 3
  21150645.112      907317.315 3    706999.789 3
  23449882.084    -1996767.794 2  -1555911.542 1
 91  4 23 20 23 45.0010000  0  6 16 06 02 18 19 11
  24337646.102    -2319388.642 2  -1807316.314 1
  24742553.887     -421759.407 2   -328641.909 1
  23090283.127    -4256641.896 3  -3316848.795 2
  21421238.685     3785012.704 4   2949353.970 3
  21153429.286      921949.811 3    718401.726 3
  23448915.255    -2001824.064 2  -1559851.420 1
 91  4 23 20 24  0.0010000  0  6 16 06 02 18 19 11
  24336191.801    -2326988.307 2  -1813238.119 1
  24738672.776     -442208.370 2   -344576.087 1
  23085061.646    -4284070.492 3  -3338221.634 1
  21429340.280     3827591.109 4   2982531.886 3
  21156226.346      936661.751 3    729865.567 2
  23447989.792    -2006711.781 2  -1563659.940 1
 91  4 23 20 24 15.0010000  0  6 16 06 02 18 19 11
  24334777.984    -2334424.990 2  -1819032.943 1
  24734782.965     -462608.821 2   -360472.437 1
  23079863.541    -4311398.197 3  -3359515.846 1
  21437466.453     3870310.683 3   3015819.787 3
  21159038.405      951453.435 3    741391.543 2
  23447088.322    -2011430.330 2  -1567336.708 1
 91  4 23 20 24 30.0010000  0  6 16 06 02 18 19 11
  24333391.748    -2341692.316 2  -1824695.771 1
  24730903.049     -482954.600 2   -376326.189 1
  23074681.027    -4338618.542 2  -3380726.403 1
  21445624.404     3913177.257 4   3049222.236 3
  21161870.540      966331.032 3    752984.469 2
  23446225.819    -2015973.303 2  -1570876.574 1
 91  4 23 20 24 45.0010000  0  6 16 06 02 18 19 11
  24332048.378    -2348794.634 2  -1830230.076 1
  24727040.530     -503250.259 2   -392140.859 1
  23069517.106    -4365736.290 2  -3401857.006 2
  21453809.333     3956186.430 4   3082735.804 3
  21164717.072      981290.134 3    764640.904 3
  23445388.793    -2020345.164 2  -1574283.176 1
 91  4 23 20 25  0.0010000  0  6 16 06 02 18 19 11
  24330725.991    -2355733.874 2  -1835637.272 1
  24723194.790     -523498.208 2   -407918.429 1
  23064376.568    -4392753.377 2  -3422909.167 1
  21462023.648     3999335.738 4   3116358.578 3
  21167583.689      996328.566 3    776359.144 3
  23444595.846    -2024547.817 2  -1577557.903 1
 91  4 23 20 25 15.0010000  0  6 16 06 02 18 19 11
  24329443.776    -2362504.765 2  -1840913.290 1
  24719362.242     -543693.333 2   -423654.781 1
  23059255.811    -4419664.369 2  -3443878.674 2
  21470261.049     4042630.382 4   3150094.590 3
  21170455.097     1011451.518 3    788143.255 3
  23443826.876    -2028575.703 2  -1580696.414 1
 91  4 23 20 25 30.0010000  0  6 16 06 02 18 19 11
  24328193.040    -2369101.410 2  -1846053.551 1
  24715522.200     -563829.570 2   -439345.251 1
  23054148.542    -4446463.321 2  -3464760.852 1
  21478527.226     4086076.040 4   3183948.276 2
  21173359.790     1026664.993 3    799997.889 3
  23443099.577    -2032422.731 2  -1583694.021 1
 91  4 23 20 25 45.0010000  0  6 16 06 02 18 19 11
  24326969.893    -2375527.358 2  -1851060.859 1
  24711687.855     -583910.895 2   -454992.915 1
  23049079.952    -4473153.811 3  -3485558.542 1
  21486820.381     4129669.002 4   3217916.749 3
  21176262.075     1041965.350 3    811920.231 3
  23442395.671    -2036092.316 2  -1586553.371 1
 91  4 23 20 26  0.0010000  0  6 16 06 02 18 19 11
  24325770.417    -2381782.053 2  -1855934.641 1
  24707884.388     -603936.326 2   -470597.019 1
  23044023.655    -4499734.819 3  -3506270.894 1
  21495148.916     4173409.640 4   3252000.301 3
  21179195.544     1057353.451 3    823910.952 3
  23441729.831    -2039583.447 2  -1589273.652 1
 91  4 23 20 26 15.0010000  0  6 16 06 02 18 19 11
  24324617.115    -2387860.688 2  -1860671.219 1
  24704090.213     -623901.854 2   -486154.478 1
  23038985.341    -4526202.151 3  -3526894.705 1
  21503502.039     4217302.223 4   3286202.235 3
  21182138.907     1072833.415 3    835973.246 3
  23441108.961    -2042891.777 2  -1591851.512 1
 91  4 23 20 26 30.0010000  0  6 16 06 02 18 19 11
  24323490.800    -2393762.974 2  -1865270.387 1
  24700296.344     -643807.387 2   -501665.144 1
  23033968.020    -4552555.490 3  -3547429.653 1
  21511878.536     4261346.788 4   3320522.608 3
  21185101.457     1088405.208 3    848107.087 2
  23440513.272    -2046016.870 2  -1594286.566 1
 91  4 23 20 26 45.0010000  0  6 16 06 02 18 19 11
  24322390.563    -2399488.565 2  -1869731.944 1
  24696521.356     -663652.196 2   -517128.553 1
  23028980.067    -4578794.008 3  -3567875.161 1
  21520288.014     4305543.936 4   3354961.866 3
  21188083.795     1104069.791 3    860313.237 3
  23439951.759    -2048957.745 2  -1596578.081 1
 91  4 23 20 27  0.0010000  0  6 16 06 02 18 19 11
  24321343.088    -2405037.733 2  -1874055.993 1
  24692758.059     -683437.168 2   -532545.236 1
  23024006.214    -4604918.399 3  -3588231.724 2
  21528729.269     4349892.832 4   3389519.372 3
  21191084.116     1119826.320 3    872591.037 3
  23439427.118    -2051714.966 2  -1598726.508 1
 91  4 23 20 27 15.0010000  0  6 16 06 02 18 19 11
  24320321.692    -2410405.617 2  -1878238.752 1
  24689000.164     -703157.623 2   -547911.686 1
  23019057.838    -4630923.911 3  -3608495.660 1
  21537197.510     4394397.787 3   3424198.491 3
  21194099.129     1135679.626 3    884944.242 3
  23438936.366    -2054283.524 2  -1600727.923 1
 91  4 23 20 27 30.0010000  0  6 16 06 02 18 19 11
  24319339.873    -2415593.565 2  -1882281.353 1
  24685266.245     -722815.024 2   -563229.005 1
  23014133.448    -4656811.677 3  -3628667.845 1
  21545695.723     4439057.299 3   3458998.026 3
  21197134.830     1151628.400 3    897371.840 3
  23438485.173    -2056664.520 2  -1602583.171 1
 91  4 23 20 27 45.0010000  0  6 16 06 02 18 19 11
  24318385.032    -2420600.428 2  -1886182.802 1
  24681536.226     -742408.175 2   -578496.219 1
  23009225.844    -4682580.538 3  -3648747.361 2
  21554225.424     4483872.507 3   3493918.901 2
  21200185.818     1167673.715 3    909874.668 2
  23438061.569    -2058856.750 2  -1604291.325 1
 91  4 23 20 28  0.0010000  0  6 16 06 02 18 19 11
  24317466.164    -2425424.420 2  -1889941.806 1
  24677822.400     -761935.488 2   -593712.250 1
  23004347.619    -4708228.541 3  -3668732.734 2
  21562786.597     4528845.132 4   3528962.432 2
  21203260.485     1183817.438 3    922454.169 3
  23437681.433    -2060858.195 2  -1605850.826 1
 91  4 23 20 28 15.0010000  0  6 16 06 02 18 19 11
  24316585.077    -2430067.067 2  -1893559.485 1
  24674111.271     -781398.664 2   -608878.244 1
  22999488.588    -4733757.237 3  -3688625.131 2
  21571369.652     4573973.120 3   3564127.033 2
  21206349.549     1200057.823 3    935109.010 3
  23437339.365    -2062670.393 2  -1607262.863 1
 91  4 23 20 28 30.0010000  0  6 16 06 02 18 19 11
  24315738.462    -2434534.476 2  -1897040.613 1
  24670425.018     -800804.359 2   -623999.476 1
  22994651.135    -4759173.192 3  -3708429.668 1
  21579985.689     4619249.852 3   3599407.530 2
  21209461.996     1216388.488 3    947834.176 3
  23437028.786    -2064299.640 2  -1608532.345 1
 91  4 23 20 28 45.0010000  0  6 16 06 02 18 19 11
  24314912.840    -2438828.537 2  -1900386.664 1
  24666725.877     -820154.111 2   -639077.079 1
  22989842.160    -4784477.662 3  -3728147.304 1
  21588632.001     4664673.695 4   3634802.663 3
  21212580.140     1232807.749 3    960628.383 3
  23436753.876    -2065747.242 2  -1609660.285 1
 91  4 23 20 29  0.0010000  0  6 16 06 02 18 19 11
  24314129.482    -2442948.119 2  -1903596.721 1
  24663071.714     -839447.264 2   -654110.563 1
  22985049.083    -4809670.012 3  -3747777.653 2
  21597299.899     4710245.326 4   3670312.952 2
  21215731.257     1249316.349 3    973492.211 3
  23436516.439    -2067012.257 2  -1610645.918 1
 91  4 23 20 29 15.0010000  0  6 16 06 02 18 19 11
  24313389.287    -2446888.896 2  -1906667.476 1
  24659420.535     -858679.363 2   -669096.546 1
  22980267.993    -4834745.567 3  -3767316.928 2
  21606004.975     4755968.877 4   3705941.620 3
  21218881.475     1265919.034 3    986429.350 3
  23436304.183    -2068090.007 2  -1611485.677 1
 91  4 23 20 29 30.0010000  0  6 16 06 02 18 19 11
  24312670.984    -2450653.093 2  -1909600.673 1
  24655763.074     -877853.322 2   -684037.123 1
  22975521.979    -4859706.986 3  -3786767.300 1
  21614732.536     4801841.549 4   3741686.481 3
  21222058.976     1282613.047 3    999437.652 3
  23436140.797    -2068983.063 2  -1612181.491 1
 91  4 23 20 29 45.0010000  0  6 16 06 02 18 19 11
  24311978.167    -2454238.541 2  -1912394.499 1
  24652116.694     -896966.743 2   -698930.571 1
  22970789.751    -4884551.894 3  -3806126.856 1
  21623489.169     4847865.359 3   3777549.115 3
  21225251.162     1299400.748 3   1012518.968 3
  23436009.484    -2069688.804 2  -1612731.358 1
 91  4 23 20 30  0.0010000  0  6 16 06 02 18 19 11
  24311334.210    -2457643.779 2  -1915047.932 1
  24648505.694     -916018.170 2   -713775.724 1
  22966086.611    -4909278.821 3  -3825394.503 1
  21632278.486     4894041.600 3   3813530.530 3
  21228468.537     1316283.564 3   1025674.399 3
  23435903.361    -2070205.623 2  -1613134.003 1
 91  4 23 20 30 15.0010000  0  6 16 06 02 18 19 11
  24310717.842    -2460871.888 2  -1917563.395 1
  24644885.402     -935010.966 2   -728575.154 1
  22961399.954    -4933890.560 3  -3844572.394 2
  21641093.280     4940367.258 3   3849628.361 3
  21231693.407     1333258.379 3   1038901.535 3
  23435844.606    -2070536.384 2  -1613391.651 1
 91  4 23 20 30 30.0010000  0  6 16 06 02 18 19 11
  24310139.542    -2463924.025 2  -1919941.723 1
  24641273.801     -953945.981 2   -743329.631 1
  22956737.579    -4958388.089 3  -3863661.277 1
  21649935.358     4986841.304 3   3885841.815 3
  21234947.053     1350324.391 3   1052199.706 3
  23435814.024    -2070681.817 2  -1613504.944 1
 91  4 23 20 30 45.0010000  0  6 16 06 02 18 19 11
  24309590.619    -2466796.671 2  -1922180.164 1
  24637686.481     -972820.214 2   -758036.641 1
  22952106.090    -4982768.222 3  -3882658.683 2
  21658811.315     5033466.396 3   3922172.978 3
  21238210.593     1367484.628 3   1065571.312 3
  23435824.215    -2070638.777 2  -1613471.301 1
 91  4 23 20 31  0.0010000  0  6 16 06 02 18 19 11
  24309078.577    -2469488.582 2  -1924277.743 1
  24634106.063     -991632.856 2   -772695.724 1
  22947490.185    -5007029.793 3  -3901563.707 2
  21667710.655     5080243.512 3   3958622.600 3
  21241495.718     1384740.084 3   1079017.123 3
  23435867.387    -2070405.914 2  -1613289.792 1
 91  4 23 20 31 15.0010000  0  6 16 06 02 18 19 11
  24308598.304    -2471997.645 2  -1926232.846 1
  24630544.526    -1010381.653 2   -787305.104 1
  22942890.168    -5031170.558 3  -3920374.590 2
  21676645.368     5127174.562 3   3995192.169 3
  21244792.535     1402093.009 3   1092538.877 3
  23435946.829    -2069980.899 2  -1612958.544 1
 91  4 23 20 31 30.0010000  0  6 16 06 02 18 19 11
  24308154.318    -2474325.496 2  -1928046.782 1
  24626984.193    -1029068.382 2   -801866.021 1
  22938320.130    -5055192.100 3  -3939092.602 2
  21685601.674     5174257.765 3   4031880.297 3
  21248117.535     1419541.687 3   1106135.234 3
  23436066.450    -2069365.144 2  -1612478.678 1
 91  4 23 20 31 45.0010000  0  6 16 06 02 18 19 11
  24307756.793    -2476472.171 2  -1929719.569 1
  24623446.641    -1047693.258 2   -816378.890 1
  22933772.281    -5079094.488 3  -3957717.747 2
  21694588.851     5221492.771 3   4068686.716 3
  21251453.022     1437086.144 3   1119806.223 3
  23436218.442    -2068558.643 2  -1611850.148 1
 91  4 23 20 32  0.0010000  0  6 16 06 02 18 19 11
  24307372.758    -2478440.345 2  -1931253.249 1
  24619918.381    -1066259.188 2   -830845.626 1
  22929244.813    -5102880.473 3  -3976252.196 2
  21703604.506     5268876.918 3   4105609.349 2
  21254809.205     1454723.576 3   1133549.672 3
  23436408.510    -2067564.035 2  -1611075.109 1
 91  4 23 20 32 15.0010000  0  6 16 06 02 18 19 11
  24307038.185    -2480229.114 2  -1932647.143 1
  24616397.625    -1084765.303 2   -845265.824 1
  22924742.229    -5126549.164 3  -3994695.235 2
  21712650.445     5316410.350 3   4142648.311 2
  21258187.262     1472454.584 3   1147366.044 3
  23436631.262    -2066380.475 2  -1610152.789 1
 91  4 23 20 32 30.0010000  0  6 16 06 02 18 19 11
  24306736.592    -2481841.279 2  -1933903.388 1
  24612867.865    -1103214.551 2   -859641.788 1
  22920257.933    -5150103.095 3  -4013048.855 2
  21721727.857     5364090.481 3   4179801.567 2
  21261572.822     1490276.664 3   1161253.374 3
  23436893.277    -2065010.414 2  -1609085.156 2
 91  4 23 20 32 45.0010000  0  6 16 06 02 18 19 11
  24306459.291    -2483275.996 2  -1935021.395 1
  24609373.782    -1121606.423 2   -873972.987 1
  22915796.724    -5173541.604 3  -4031312.519 2
  21730831.958     5411917.519 3   4217069.313 2
  21264987.751     1508190.379 3   1175212.113 2
  23437188.273    -2063452.976 2  -1607871.498 1
 91  4 23 20 33  0.0010000  0  6 16 06 02 18 19 11
  24306208.662    -2484541.324 2  -1936007.365 1
  24605885.701    -1139948.748 2   -888265.625 1
  22911358.296    -5196872.593 3  -4049492.437 1
  21739959.443     5459883.380 3   4254445.231 3
  21268409.887     1526187.868 3   1189236.122 3
  23437518.047    -2061716.031 2  -1606517.988 1
 91  4 23 20 33 15.0010000  0  6 16 06 02 18 19 11
  24306010.498    -2485631.704 2  -1936857.002 1
  24602401.809    -1158236.129 2   -902515.432 1
  22906940.852    -5220090.623 3  -4067584.324 2
  21749110.302     5507993.611 3   4291933.635 2
  21271850.608     1544274.586 3   1203329.660 3
  23437885.287    -2059793.937 2  -1605020.190 1
 91  4 23 20 33 30.0010000  0  6 16 06 02 18 19 11
  24305842.618    -2486544.189 2  -1937568.074 1
  24598941.605    -1176466.140 2   -916720.491 1
  22902546.198    -5243192.819 3  -4085585.956 2
  21758294.744     5556250.681 3   4329536.466 2
  21275309.913     1562453.355 3   1217494.922 3
  23438283.710    -2057683.863 2  -1603375.926 1
 91  4 23 20 33 45.0010000  0  6 16 06 02 18 19 11
  24305693.322    -2487292.599 2  -1938151.306 1
  24595476.603    -1194652.395 2   -930891.465 1
  22898166.830    -5266192.639 3  -4103507.803 2
  21767498.076     5604640.665 3   4367242.865 2
  21278784.207     1580710.447 3   1231721.214 3
  23438721.710    -2055399.175 2  -1601595.574 2
 91  4 23 20 34  0.0010000  0  6 16 06 02 18 19 11
  24305586.588    -2487871.099 2  -1938602.075 1
  24592023.894    -1212789.158 2   -945023.891 1
  22893813.245    -5289084.229 3  -4121345.344 2
  21776735.279     5653169.169 3   4405057.187 2
  21282271.991     1599051.671 3   1246013.075 2
  23439187.291    -2052933.948 2  -1599674.560 2
 91  4 23 20 34 15.0010000  0  6 16 06 02 18 19 11
  24305496.353    -2488281.872 2  -1938922.147 1
  24588583.479    -1230878.833 2   -959119.583 1
  22889473.446    -5311870.017 3  -4139100.402 2
  21786000.368     5701833.610 4   4442977.458 2
  21285780.165     1617474.766 3   1260368.738 3
  23439693.339    -2050290.457 2  -1597614.641 1
 91  4 23 20 34 30.0010000  0  6 16 06 02 18 19 11
  24305444.788    -2488526.096 2  -1939112.480 1
  24585146.057    -1248922.732 2   -973179.620 1
  22885153.138    -5334551.095 3  -4156773.887 2
  21795281.641     5750632.698 3   4481002.632 3
  21289301.227     1635978.364 3   1274787.123 3
  23440232.062    -2047469.699 2  -1595416.604 1
 91  4 23 20 34 45.0010000  0  6 16 06 02 18 19 11
  24305444.491    -2488602.465 2  -1939172.046 1
  24581722.132    -1266919.607 2   -987203.139 1
  22880868.508    -5357125.951 3  -4174364.599 2
  21804595.590     5799567.593 3   4519133.627 2
  21292836.972     1654563.998 3   1289269.418 3
  23440803.469    -2044470.180 2  -1593079.271 1
 91  4 23 20 35  0.0010000  0  6 16 06 02 18 19 11
  24305462.177    -2488514.298 2  -1939103.272 1
  24578298.800    -1284872.975 2  -1001192.674 1
  22876582.368    -5379598.063 3  -4191875.254 2
  21813937.425     5848634.412 4   4557367.420 2
  21296388.615     1673228.019 3   1303812.795 3
  23441407.255    -2041295.200 2  -1590605.185 1
 91  4 23 20 35 15.0010000  0  6 16 06 02 18 19 11
  24305498.456    -2488258.235 2  -1938903.795 1
  24574884.159    -1302779.462 2  -1015145.687 1
  22872327.115    -5401963.745 3  -4209302.971 2
  21823294.851     5897836.582 3   4595706.684 2
  21299958.546     1691973.998 3   1318420.047 3
  23442046.108    -2037941.053 2  -1587991.529 2
 91  4 23 20 35 30.0010000  0  6 16 06 02 18 19 11
  24305590.794    -2487837.075 2  -1938575.631 1
  24571488.417    -1320642.147 2  -1029064.512 1
  22868094.949    -5424226.195 3  -4226650.251 2
  21832682.545     5947171.007 3   4634148.995 3
  21303538.667     1710798.919 3   1333088.815 3
  23442716.144    -2034410.704 2  -1585240.538 1
 91  4 23 20 35 45.0010000  0  6 16 06 02 18 19 11
  24305703.513    -2487249.641 2  -1938117.908 1
  24568100.160    -1338459.738 2  -1042948.232 1
  22863882.867    -5446383.984 3  -4243915.981 2
  21842099.031     5996638.685 3   4672695.155 3
  21307138.272     1729704.112 3   1347820.129 3
  23443421.560    -2030702.747 2  -1582351.182 1
 91  4 23 20 36  0.0010000  0  6 16 06 02 18 19 11
  24305843.517    -2486495.422 2  -1937530.204 1
  24564718.797    -1356231.789 2  -1056796.472 1
  22859680.672    -5468436.381 3  -4261099.570 2
  21851534.399     6046240.106 3   4711345.522 2
  21310748.076     1748690.313 3   1362614.566 2
  23444159.050    -2026816.341 2  -1579322.763 1
 91  4 23 20 36 15.0010000  0  6 16 06 02 18 19 11
  24306024.885    -2485578.500 2  -1936815.757 1
  24561344.335    -1373962.770 2  -1070612.751 1
  22855504.564    -5490387.720 3  -4278204.440 2
  21861000.348     6095970.535 3   4750096.417 3
  21314376.762     1767753.133 3   1377468.699 3
  23444937.007    -2022755.867 2  -1576158.680 2
 91  4 23 20 36 30.0010000  0  6 16 06 02 18 19 11
  24306223.355    -2484501.507 2  -1935976.538 1
  24557982.463    -1391655.059 2  -1084398.838 1
  22851345.540    -5512240.413 3  -4295232.420 2
  21870489.375     6145827.366 3   4788945.797 2
  21318021.345     1786890.193 3   1392380.684 2
  23445745.545    -2018523.441 2  -1572860.634 1
 91  4 23 20 36 45.0010000  0  6 16 06 02 18 19 11
  24306470.084    -2483261.278 2  -1935010.081 1
  24554618.192    -1409305.961 2  -1098152.673 1
  22847201.812    -5533991.293 3  -4312181.088 2
  21879998.793     6195813.632 3   4827896.045 3
  21321677.008     1806104.522 3   1407352.884 3
  23446581.969    -2014115.940 2  -1569426.171 1
 91  4 23 20 37  0.0010000  0  6 16 06 02 18 19 11
  24306728.504    -2481856.152 2  -1933915.226 1
  24551263.815    -1426913.792 2  -1111872.957 1
  22843087.164    -5555638.794 3  -4329049.208 2
  21889536.087     6245930.576 3   4866948.119 2
  21325348.272     1825397.575 3   1422386.412 3
  23447450.772    -2009531.789 2  -1565854.048 1
 91  4 23 20 37 15.0010000  0  6 16 06 02 18 19 11
  24307029.494    -2480286.022 2  -1932691.755 1
  24547918.730    -1444478.667 2  -1125559.752 1
  22838992.592    -5577182.955 3  -4345836.777 2
  21899103.963     6296177.845 3   4906101.740 3
  21329031.219     1844769.364 3   1437481.312 3
  23448357.642    -2004770.796 2  -1562144.133 1
 91  4 23 20 37 30.0010000  0  6 16 06 02 18 19 11
  24307355.368    -2478557.322 2  -1931344.746 1
  24544601.828    -1462007.220 2  -1139218.273 1
  22834907.322    -5598629.986 3  -4362548.678 2
  21908682.038     6346549.118 3   4945351.993 2
  21332732.759     1864213.595 3   1452632.647 3
  23449297.790    -1999839.128 2  -1558301.232 1
 91  4 23 20 37 45.0010000  0  6 16 06 02 18 19 11
  24307716.614    -2476669.103 2  -1929873.446 1
  24541266.638    -1479498.371 2  -1152847.601 1
  22830838.838    -5619978.985 3  -4379184.178 2
  21918292.179     6397044.854 3   4984699.232 2
  21336444.787     1883731.223 3   1467841.190 2
  23450266.722    -1994735.917 2  -1554324.618 1
 91  4 23 20 38  0.0010000  0  6 16 06 02 18 19 11
  24308104.253    -2474617.177 2  -1928274.571 1
  24537947.030    -1496947.948 2  -1166444.578 1
  22826800.631    -5641225.502 3  -4395739.815 2
  21927925.414     6447669.370 3   5024146.807 3
  21340180.800     1903326.544 3   1483110.248 3
  23451266.524    -1989456.708 2  -1550210.920 2
 91  4 23 20 38 15.0010000  0  6 16 06 02 18 19 11
  24308524.559    -2472409.288 2  -1926554.114 1
  24534631.027    -1514363.674 2  -1180015.196 1
  22822775.320    -5662377.282 3  -4412221.652 2
  21937582.330     6498414.591 3   5063688.438 2
  21343922.511     1922991.837 3   1498433.840 3
  23452303.512    -1984008.981 2  -1545965.875 1
 91  4 23 20 38 30.0010000  0  6 16 06 02 18 19 11
  24308973.946    -2470043.798 2  -1924710.938 1
  24531318.923    -1531744.259 2  -1193558.431 1
  22818767.694    -5683432.658 3  -4428628.360 2
  21947258.729     6549281.695 3   5103325.048 3
  21347676.812     1942728.572 3   1513813.098 3
  23453378.567    -1978391.008 2  -1541588.197 2
 91  4 23 20 38 45.0010000  0  6 16 06 02 18 19 11
  24309457.814    -2467521.237 2  -1922745.386 1
  24528023.301    -1549090.138 2  -1207074.570 1
  22814780.153    -5704391.966 3  -4444960.210 2
  21956964.810     6600270.481 3   5143056.477 3
  21351444.000     1962536.347 3   1529247.724 3
  23454479.100    -1972603.055 3  -1537078.087 1
 91  4 23 20 39  0.0010000  0  6 16 06 02 18 19 11
  24309970.755    -2464844.384 2  -1920659.615 1
  24524716.589    -1566404.497 2  -1220566.346 1
  22810807.306    -5725258.352 3  -4461219.783 2
  21966689.476     6651377.441 3   5182879.859 2
  21355224.389     1982412.148 3   1544735.231 2
  23455611.715    -1966648.205 2  -1532438.014 1
 91  4 23 20 39 15.0010000  0  6 16 06 02 18 19 11
  24310511.886    -2462012.779 2  -1918453.170 1
  24521431.769    -1583686.825 2  -1234032.940 1
  22806855.739    -5746031.164 3  -4477406.272 1
  21976439.332     6702602.808 3   5222795.666 2
  21359022.760     2002356.499 3   1560276.299 2
  23456775.208    -1960525.797 2  -1527667.227 1
 91  4 23 20 39 30.0010000  0  6 16 06 02 18 19 11
  24311071.898    -2459026.439 2  -1916126.203 1
  24518164.024    -1600937.170 2  -1247474.647 1
  22802920.069    -5766710.367 3  -4493519.874 1
  21986210.162     6753946.603 3   5262803.715 2
  21362833.722     2022369.440 3   1575870.780 2
  23457969.589    -1954235.724 2  -1522765.842 1
 91  4 23 20 39 45.0010000  0  6 16 06 02 18 19 11
  24311672.980    -2455884.326 2  -1913677.800 1
  24514879.500    -1618154.606 2  -1260890.772 1
  22799006.875    -5787294.798 3  -4509559.615 2
  21996002.282     6805409.831 3   5302904.836 2
  21366650.372     2042452.004 3   1591519.517 2
  23459195.440    -1947776.788 2  -1517732.848 1
 91  4 23 20 40  0.0010000  0  6 16 06 02 18 19 11
  24312295.647    -2452587.269 2  -1911108.757 1
  24511617.461    -1635339.932 2  -1274281.852 1
  22795102.380    -5807784.999 3  -4525525.948 1
  22005818.693     6856991.044 3   5343097.903 2
  21370488.321     2062603.618 3   1607222.071 2
  23460460.860    -1941149.500 2  -1512568.690 1
 91  4 23 20 40 15.0010000  0  6 16 06 02 18 19 11
  24312948.896    -2449139.809 2  -1908422.358 1
  24508346.121    -1652497.861 2  -1287651.542 1
  22791223.668    -5828185.786 3  -4541422.565 2
  22015654.883     6908685.443 3   5383379.166 2
  21374337.350     2082819.750 3   1622974.893 2
  23461752.063    -1934358.549 2  -1507276.955 1
 91  4 23 20 40 30.0010000  0  6 16 06 02 18 19 11
  24313644.418    -2445537.058 2  -1905614.936 1
  24505095.774    -1669623.868 2  -1300996.263 1
  22787361.141    -5848492.382 3  -4557245.710 2
  22025514.457     6960497.719 3   5423752.372 2
  21378195.088     2103105.159 3   1638781.780 3
  23463080.147    -1927399.013 2  -1501853.816 1
 91  4 23 20 40 45.0010000  0  6 16 06 02 18 19 11
  24314357.617    -2441781.291 2  -1902688.516 1
  24501827.741    -1686719.930 2  -1314317.848 1
  22783509.704    -5868706.766 3  -4572997.211 2
  22035395.015     7012425.521 3   5464215.405 2
  21382065.101     2123457.600 3   1654640.713 2
  23464434.310    -1920272.880 2  -1496301.038 1
 91  4 23 20 41  0.0010000  0  6 16 06 02 18 19 11
  24315102.009    -2437869.938 2  -1899640.711 1
  24498585.778    -1703783.604 2  -1327614.209 1
  22779686.448    -5888826.367 3  -4588674.741 2
  22045299.557     7064471.550 3   5504770.637 2
  21385958.210     2143879.424 3   1670553.782 2
  23465824.752    -1912977.563 2  -1490616.337 1
 91  4 23 20 41 15.0010000  0  6 16 06 02 18 19 11
  24315878.168    -2433806.372 2  -1896474.352 1
  24495349.522    -1720818.570 2  -1340888.089 1
  22775875.792    -5908854.565 3  -4604281.044 2
  22055226.288     7116631.855 3   5545414.926 2
  21389851.013     2164367.186 3   1686518.262 2
  23467245.461    -1905516.415 3  -1484802.410 1
 91  4 23 20 41 30.0010000  0  6 16 06 02 18 19 11
  24316672.319    -2429594.054 2  -1893192.015 1
  24492116.860    -1737828.145 2  -1354142.154 1
  22772077.420    -5928794.674 3  -4619818.733 2
  22065170.696     7168902.605 3   5586145.273 2
  21393768.107     2184917.639 3   1702531.581 2
  23468691.962    -1897892.657 2  -1478861.796 1
 91  4 23 20 41 45.0010000  0  6 16 06 02 18 19 11
  24317497.644    -2425235.839 2  -1889796.002 1
  24488881.799    -1754815.327 2  -1367378.798 1
  22768299.134    -5948649.576 3  -4635290.023 2
  22075137.301     7221280.757 3   5626959.317 2
  21397683.395     2205528.191 3   1718591.742 2
  23470173.835    -1890109.113 2  -1472796.643 1
 91  4 23 20 42  0.0010000  0  6 16 06 02 18 19 11
  24318365.845    -2420731.672 2  -1886286.280 1
  24485638.947    -1771779.762 2  -1380597.756 1
  22764532.243    -5968418.745 3  -4650694.472 2
  22085126.381     7273766.440 3   5667857.143 2
  21401620.269     2226199.207 3   1734699.010 2
  23471683.296    -1882165.206 2  -1466606.515 1
 91  4 23 20 42 15.0010000  0  6 16 06 02 18 19 11
  24319242.143    -2416075.980 2  -1882658.482 1
  24482423.675    -1788716.385 2  -1393795.072 1
  22760793.228    -5988097.030 3  -4666028.120 1
  22095135.852     7326364.567 3   5708842.599 2
  21405565.536     2246935.700 3   1750857.312 2
  23473228.425    -1874055.646 2  -1460287.332 1
 91  4 23 20 42 30.0010000  0  6 16 06 02 18 19 11
  24320165.504    -2411271.457 2  -1878914.710 1
  24479208.393    -1805627.991 2  -1406972.780 1
  22757065.015    -6007687.132 3  -4681293.070 1
  22105166.909     7379072.715 3   5749913.805 2
  21409523.394     2267735.036 3   1767064.576 2
  23474802.034    -1865783.085 2  -1453841.149 1
 91  4 23 20 42 45.0010000  0  6 16 06 02 18 19 11
  24321097.258    -2406314.957 2  -1875052.443 1
  24475990.128    -1822511.027 2  -1420128.257 1
  22753354.183    -6027185.493 3  -4696486.433 2
  22115212.057     7431893.867 3   5791073.125 2
  21413486.949     2288600.786 3   1783323.672 3
  23476406.826    -1857343.997 2  -1447265.122 1
 91  4 23 20 43  0.0010000  0  6 16 06 02 18 19 11
  24322074.575    -2401201.901 2  -1871068.254 1
  24472790.439    -1839361.444 2  -1433258.337 1
  22749660.138    -6046587.665 3  -4711604.929 2
  22125290.483     7484832.256 3   5832323.742 2
  21417479.890     2309537.424 3   1799637.924 3
  23478046.684    -1848733.837 2  -1440555.849 1
 91  4 23 20 43 15.0010000  0  6 16 06 02 18 19 11
  24323077.386    -2395932.898 2  -1866962.576 1
  24469574.870    -1856179.888 2  -1446363.434
  22745986.483    -6065894.183 3  -4726648.893 2
  22135390.791     7537886.896 3   5873664.906 2
  21421472.221     2330544.047 3   1816006.709 2
  23479716.233    -1839953.281 2  -1433713.807 1
 91  4 23 20 43 30.0010000  0  6 16 06 02 18 19 11
  24324114.662    -2390505.834 2  -1862733.740 1
  24466385.677    -1872964.129 2  -1459441.991 1
  22742331.413    -6085102.799 3  -4741616.561 2
  22145506.386     7591059.784 3   5915098.247 2
  21425482.848     2351622.896 3   1832431.769 3
  23481422.053    -1830999.961 2  -1426737.160 2
 91  4 23 20 43 45.0010000  0  6 16 06 02 18 19 11
  24325171.133    -2384921.837 2  -1858382.566 1
  24463203.673    -1889715.292 2  -1472494.786 1
  22738693.426    -6104214.644 3  -4756508.830 2
  22155649.264     7644349.705 3   5956622.755 2
  21429508.762     2372772.998 3   1848912.362 2
  23483156.945    -1821874.739 2  -1419626.572 1
 91  4 23 20 44  0.0010000  0  6 16 06 02 18 19 11
  24326265.977    -2379181.732 2  -1853909.802 1
  24460011.784    -1906434.470 2  -1485522.581 1
  22735072.235    -6123230.570 3  -4771326.369 2
  22165810.133     7697755.415 3   5998237.494 2
  21433551.462     2393993.431 3   1865447.756 3
  23484926.624    -1812578.470 3  -1412382.695 1
 91  4 23 20 44 15.0020000  0  6 16 06 02 18 19 11
  24327388.100    -2373284.108 2  -1849314.308 1
  24456841.179    -1923121.511 2  -1498525.373 1
  22731476.525    -6142150.565 3  -4786069.163 2
  22175996.779     7751281.640 3   6039946.143 2
  21437601.661     2415286.997 3   1882040.132 3
  23486729.278    -1803109.110 3  -1405003.934 1
 91  4 23 20 44 30.0020000  0  6 16 06 02 18 19 11
  24328534.509    -2367229.363 2  -1844596.351 1
  24453664.576    -1939774.349 2  -1511501.486 1
  22727901.203    -6160972.101 3  -4800735.208 2
  22186203.508     7804920.768 3   6081742.763 2
  21441669.542     2436650.878 3   1898687.310 2
  23488561.010    -1793468.090 2  -1397491.404 2
 91  4 23 20 44 45.0020000  0  6 16 06 02 18 19 11
  24329724.082    -2361022.463 2  -1839759.805 1
  24450517.063    -1956399.397 2  -1524455.981 1
  22724336.673    -6179701.496 3  -4815329.480 2
  22196434.527     7858671.166 3   6123626.094 2
  21445742.824     2458081.257 3   1915386.292 2
  23490431.708    -1783659.901 3  -1389848.620 1
 91  4 23 20 45  0.0020000  0  6 16 06 02 18 19 11
  24330942.142    -2354662.067 2  -1834803.711 1
  24447358.442    -1972995.153 2  -1537387.674 1
  22720781.130    -6198337.357 3  -4829850.846 2
  22206683.232     7912533.822 3   6165596.902 2
  21449837.387     2479579.612 3   1932138.242 2
  23492327.299    -1773682.921 3  -1382074.315 2
 91  4 23 20 45 15.0020000  0  6 16 06 02 18 19 11
  24332172.487    -2348149.326 2  -1829728.913 1
  24444199.229    -1989562.845 2  -1550297.432 1
  22717248.979    -6216880.588 3  -4844300.052 2
  22216953.819     7966507.635 3   6207654.301 2
  21453941.548     2501144.873 3   1948942.317 3
  23494263.959    -1763538.081 3  -1374169.216 2
 91  4 23 20 45 30.0020000  0  6 16 06 02 18 19 11
  24333446.902    -2341478.914 2  -1824531.228 1
  24441066.705    -2006097.247 2  -1563181.284 1
  22713741.703    -6235326.070 3  -4858673.075 2
  22227246.298     8020597.692 3   6249802.302 3
  21458058.595     2522782.342 3   1965802.683 3
  23496220.705    -1753220.058 3  -1366129.177 1
 91  4 23 20 45 45.0020000  0  6 16 06 02 18 19 11
  24334749.203    -2334652.969 2  -1819212.241 1
  24437918.285    -2022600.419 2  -1576040.722 1
  22710248.824    -6253675.661 3  -4872971.398 2
  22237562.456     8074801.860 3   6292039.214 2
  21462187.334     2544490.235 3   1982717.909 2
  23498217.620    -1742730.734 2  -1357955.633 2
 91  4 23 20 46  0.0020000  0  6 16 06 02 18 19 11
  24336070.386    -2327671.902 2  -1813772.529 1
  24434790.543    -2039072.964 2  -1588876.376 1
  22706775.123    -6271929.877 3  -4887195.397 2
  22247899.599     8129119.183 3   6334364.301 2
  21466331.071     2566267.734 3   1999687.378 3
  23500246.915    -1732070.563 2  -1349648.989 2
 91  4 23 20 46 15.0020000  0  6 16 06 02 18 19 11
  24337418.554    -2320540.951 2  -1808215.962 1
  24431649.617    -2055520.135 2  -1601692.270 1
  22703318.819    -6290093.779 3  -4901349.022 2
  22258255.029     8183544.332 3   6376773.405 2
  21470486.195     2588109.702 3   2016707.092 3
  23502309.190    -1721244.736 2  -1341213.248 1
 91  4 23 20 46 30.0020000  0  6 16 06 02 18 19 11
  24338817.390    -2313239.149 2  -1802526.296 1
  24428526.682    -2071921.020 2  -1614472.100 1
  22699889.197    -6308146.304 3  -4915415.856 2
  22268633.250     8238098.016 3   6419282.669 2
  21474659.903     2610037.366 3   2033793.562 3
  23504401.742    -1710232.074 2  -1332631.907 1
 91  4 23 20 46 45.0020000  0  6 16 06 02 18 19 11
  24340227.909    -2305771.979 2  -1796707.713 1
  24425411.836    -2088280.840 2  -1627219.910 1
  22696473.657    -6326092.704 3  -4929400.003 2
  22279038.745     8292774.820 3   6461887.856 2
  21478846.804     2632045.304 3   2050942.596 3
  23506539.865    -1699037.774 2  -1323909.071 1
 91  4 23 20 47  0.0020000  0  6 16 06 02 18 19 11
  24341686.703    -2298141.149 2  -1790761.664 1
  24422313.480    -2104601.824 2  -1639937.427 1
  22693071.013    -6343934.911 3  -4943302.928 2
  22289464.028     8347572.528 3   6504587.267 2
  21483047.795     2654131.661 3   2068152.723 2
  23508697.165    -1687663.912 3  -1315046.289 1
 91  4 23 20 47 15.0020000  0  6 16 06 02 18 19 11
  24343167.372    -2290348.981 2  -1784689.865 1
  24419213.632    -2120886.166 2  -1652626.493 1
  22689700.146    -6361675.263 3  -4957126.501 2
  22299918.384     8402488.752 3   6547379.038 2
  21487270.076     2676294.181 3   2085422.208 2
  23510894.043    -1676112.619 2  -1306045.264 1
 91  4 23 20 47 30.0020000  0  6 16 06 02 18 19 11
  24344689.720    -2282389.393 2  -1778487.697 1
  24416111.376    -2137127.518 2  -1665281.942 1
  22686345.167    -6379307.230 3  -4970865.637 2
  22310391.341     8457529.305 3   6590267.673 2
  21491500.445     2698539.248 3   2102756.014 2
  23513127.802    -1664377.320 3  -1296900.851 1
 91  4 23 20 47 45.0020000  0  6 16 06 02 18 19 11
  24346234.553    -2274269.339 2  -1772160.384 1
  24413035.208    -2153333.059 2  -1677909.529 1
  22683007.280    -6396837.799 3  -4984525.760 2
  22320885.876     8512687.288 3   6633247.817 2
  21495748.500     2720860.079 3   2120148.846 3
  23515393.032    -1652464.910 3  -1287618.421 2
 91  4 23 20 48  0.0020000  0  6 16 06 02 18 19 11
  24347804.863    -2265990.104 2  -1765709.074 1
  24409963.830    -2169503.959 2  -1690510.099 1
  22679694.871    -6414268.255 3  -4998107.871 2
  22331404.990     8567961.100 3   6676318.200 2
  21500012.155     2743255.526 3   2137599.840 2
  23517691.540    -1640376.690 3  -1278198.984 1
 91  4 23 20 48 15.0020000  0  6 16 06 02 18 19 11
  24349410.553    -2257551.667 2  -1759133.691 1
  24406896.361    -2185640.326 2  -1703083.810 1
  22676395.655    -6431598.330 3  -5011611.759 2
  22341942.391     8623350.414 3   6719478.611 2
  21504282.398     2765725.566 3   2155108.936 2
  23520031.719    -1628112.550 3  -1268642.497 2
 91  4 23 20 48 30.0020000  0  6 16 06 02 18 19 11
  24351050.420    -2248950.639 2  -1752431.612 1
  24403830.977    -2201739.137 2  -1715628.217 1
  22673121.322    -6448824.953 3  -5025035.035 2
  22352508.279     8678858.349 3   6762731.433 2
  21508577.525     2788273.269 3   2172678.559 2
  23522399.181    -1615669.321 3  -1258946.442 1
 91  4 23 20 48 45.0020000  0  6 16 06 02 18 19 11
  24352719.359    -2240187.690 2  -1745603.392 1
  24400767.399    -2217800.780 2  -1728143.666 1
  22669857.180    -6465948.502 3  -5038377.999 2
  22363093.948     8734484.183 3   6806076.125 2
  21512877.442     2810898.342 3   2190308.468 2
  23524802.015    -1603047.371 3  -1249111.149 1
 91  4 23 20 49  0.0020000  0  6 16 06 02 18 19 11
  24354415.293    -2231263.151 2  -1738649.248 1
  24397714.318    -2233825.553 2  -1740630.390 1
  22666620.025    -6482969.145 3  -5051640.762 2
  22373707.205     8790227.492 3   6849512.363 2
  21517204.345     2833600.379 3   2207998.354 2
  23527237.830    -1590246.836 3  -1239136.669 2
 91  4 23 20 49 15.0020000  0  6 16 06 02 18 19 11
  24356150.491    -2222175.419 2  -1731567.968 1
  24394682.814    -2249811.824 2  -1753087.157 1
  22663397.258    -6499884.959 3  -5064821.865 2
  22384333.350     8846090.040 3   6893041.513 2
  21521537.845     2856381.338 3   2225749.735 2
  23529704.226    -1577265.738 3  -1229021.498 1
 91  4 23 20 49 30.0020000  0  6 16 06 02 18 19 11
  24357890.783    -2212931.504 2  -1724364.955 1
  24391643.815    -2265766.613 2  -1765519.415 1
  22660194.873    -6516702.955 3  -5077926.733 2
  22394983.479     8902064.239 3   6936657.659 2
  21525888.438     2879234.076 3   2243557.039 2
  23532209.292    -1564111.152 3  -1218771.149 1
 91  4 23 20 49 45.0020000  0  6 16 06 02 18 19 11
  24359689.534    -2203528.680 2  -1717038.112 1
  24388607.817    -2281687.320 2  -1777925.010 1
  22657016.778    -6533420.544 3  -5090953.371 2
  22405659.086     8958152.684 3   6980362.834 2
  21530245.617     2902161.301 3   2261422.393 2
  23534750.035    -1550780.404 3  -1208383.528 1
 91  4 23 20 50  0.0020000  0  6 16 06 02 18 19 11
  24361514.077    -2193966.422 2  -1709587.081 1
  24385587.106    -2297573.685 2  -1790303.933 1
  22653851.561    -6550037.207 3  -5103901.347 2
  22416354.778     9014355.209 3   7024156.909 2
  21534625.290     2925163.760 3   2279346.361 2
  23537314.458    -1537273.036 3  -1197858.272 2
 91  4 23 20 50 15.0020000  0  6 16 06 02 18 19 11
  24363357.797    -2184248.602 2  -1702014.742 1
  24382566.098    -2313429.250 2  -1802658.778 1
  22650712.442    -6566556.529 3  -5116773.481 2
  22427073.557     9070668.194 3   7068037.047 2
  21539016.350     2948237.658 3   2297326.006 2
  23539923.248    -1523592.611 3  -1187198.181 1
 91  4 23 20 50 30.0020000  0  6 16 06 02 18 19 11
  24365239.594    -2174372.601 2  -1694319.236 1
  24379558.283    -2329251.551 2  -1814987.803 1
  22647587.701    -6582976.090 3  -5129567.880 2
  22437805.834     9127093.987 3   7112005.089 2
  21543423.298     2971385.578 3   2315363.333 2
  23542556.931    -1509736.509 3  -1176401.190 1
 91  4 23 20 50 45.0020000  0  6 16 06 02 18 19 11
  24367157.067    -2164337.874 2  -1686499.986 1
  24376550.764    -2345040.234 2  -1827290.557 1
  22644484.546    -6599295.463 3  -5142284.191 2
  22448564.783     9183632.769 3   7156061.190 2
  21547841.038     2994607.822 3   2333458.577 2
  23545227.181    -1495704.229 3  -1165466.920 1
 91  4 23 20 51  0.0020000  0  6 16 06 02 18 19 11
  24369086.232    -2154143.630 2  -1678556.470 1
  24373565.729    -2360794.450 2  -1839566.465 1
  22641396.084    -6615513.595 3  -5154921.637 2
  22459343.817     9240285.391 3   7200205.967 2
  21552276.168     3017905.637 3   2351612.698 2
  23547929.504    -1481494.691 2  -1154394.535 1
 91  4 23 20 51 15.0020000  0  6 16 06 02 18 19 11
  24371060.663    -2143793.393 2  -1670491.384 1
  24370558.813    -2376517.501 2  -1851818.112 1
  22638326.513    -6631633.575 3  -5167482.602 2
  22470151.636     9297048.275 3   7244436.682 2
  21556720.896     3041275.771 3   2369823.179 3
  23550667.513    -1467111.190 2  -1143186.584 1
 91  4 23 20 51 30.0020000  0  6 16 06 02 18 19 11
  24373057.579    -2133287.158 2  -1662304.748 1
  24367580.375    -2392209.321 2  -1864045.416 1
  22635276.127    -6647655.263 3  -5179966.961 2
  22480972.647     9353921.182 3   7288753.123 2
  21561184.504     3064718.257 3   2388090.039 2
  23553438.494    -1452553.630 3  -1131842.973 1
 91  4 23 20 51 45.0020000  0  6 16 06 02 18 19 11
  24375087.476    -2122620.685 2  -1653993.231 1
  24364602.233    -2407865.600 2  -1876245.022 1
  22632245.522    -6663574.411 3  -5192371.428 2
  22491816.736     9410908.206 3   7333158.493 2
  21565656.507     3088237.449 3   2406416.659 2
  23556242.456    -1437817.683 3  -1120360.399 1
 91  4 23 20 52  0.0020000  0  6 16 06 02 18 19 11
  24377148.547    -2111792.546 2  -1645555.790 1
  24361627.992    -2423484.990 2  -1888415.921 1
  22629235.909    -6679389.530 3  -5204694.828 2
  22502685.412     9468010.692 3   7377653.832 2
  21570149.196     3111834.961 3   2424804.312 2
  23559078.186    -1422901.810 3  -1108737.648 1
 91  4 23 20 52 15.0020000  0  6 16 06 02 18 19 11
  24379249.196    -2100800.290 2  -1636990.443 1
  24358662.153    -2439065.302 2  -1900556.386 1
  22626249.671    -6695098.363 3  -5216935.411 2
  22513574.479     9525230.849 3   7422240.859 2
  21574653.280     3135513.030 3   2443254.735 2
  23561950.798    -1407803.727 3  -1096972.880 1
 91  4 23 20 52 30.0020000  0  6 16 06 02 18 19 11
  24381358.534    -2089648.427 2  -1628300.737 1
  24355694.202    -2454611.095 2  -1912669.888 1
  22623280.525    -6710705.280 3  -5229096.575 2
  22524480.027     9582563.541 3   7466915.594 2
  21579177.145     3159267.220 3   2461764.474 2
  23564859.688    -1392527.839 3  -1085069.546 1
 91  4 23 20 52 45.0020000  0  6 16 06 02 18 19 11
  24383507.747    -2078333.207 2  -1619483.713 1
  24352748.143    -2470118.498 2  -1924753.494 1
  22620332.974    -6726206.507 3  -5241175.398 2
  22535414.656     9640012.444 3   7511680.867 2
  21583708.207     3183101.387 3   2480336.532 3
  23567800.049    -1377070.248 3  -1073024.665 1
 91  4 23 20 53  0.0020000  0  6 16 06 02 18 19 11
  24385702.234    -2066853.984 2  -1610538.914 1
  24349815.573    -2485586.579 2  -1936806.455 1
  22617400.404    -6741600.948 3  -5253170.997 2
  22546367.870     9697578.337 3   7556537.304 2
  21588262.356     3207016.518 3   2498971.682 2
  23570778.793    -1361429.996 3  -1060837.424 1
 91  4 23 20 53 15.0020000  0  6 16 06 02 18 19 11
  24387917.696    -2055216.650 2  -1601470.902 1
  24346874.609    -2501021.606 2  -1948833.671 1
  22614493.913    -6756894.601 3  -5265088.055 2
  22557341.178     9755254.891 3   7601479.968 2
  21592824.297     3231006.553 3   2517665.203 2
  23573784.209    -1345613.114 3  -1048512.563 1
 91  4 23 20 53 30.0020000  0  6 16 06 02 18 19 11
  24390167.936    -2043411.389 2  -1592272.032 1
  24343942.336    -2516413.572 2  -1960827.312 1
  22611604.209    -6772077.450 3  -5276918.778 2
  22568342.362     9813052.105 3   7646516.659 2
  21597409.324     3255081.548 3   2536424.917 2
  23576834.900    -1329609.514 3  -1036042.215 1
 91  4 23 20 53 45.0020000  0  6 16 06 02 18 19 11
  24392443.663    -2031439.483 2  -1582943.313 1
  24341024.459    -2531763.849 2  -1972788.502 1
  22608731.301    -6787150.998 3  -5288664.329 2
  22579364.827     9870967.994 3   7691645.827 2
  21602000.642     3279240.224 3   2555249.847 2
  23579915.264    -1313420.612 3  -1023427.477 2
 91  4 23 20 54  0.0020000  0  6 16 06 02 18 19 11
  24394752.667    -2019300.684 2  -1573484.584 1
  24338109.574    -2547072.059 2  -1984716.923 1
  22605886.270    -6802114.637 3  -5300324.245 2
  22590407.683     9929003.171 3   7736867.927 2
  21606624.042     3303483.009 3   2574140.314 2
  23583028.008    -1297045.889 2  -1010667.948 2
 91  4 23 20 54 15.0020000  0  6 16 06 02 18 19 11
  24397096.737    -2006995.295 2  -1563895.974 1
  24335199.192    -2562338.294 2  -1996612.625 1
  22603058.628    -6816968.457 3  -5311898.596 2
  22601472.124     9987157.326 3   7782182.752 2
  21611247.443     3327809.858 3   2593096.291 2
  23586180.024    -1280485.340 2   -997763.611 1
 91  4 23 20 54 30.0020000  0  6 16 06 02 18 19 11
  24399467.803    -1994518.195 2  -1554173.641 1
  24332307.996    -2577557.881 2  -2008471.946 1
  22600253.767    -6831707.640 3  -5323383.597 2
  22612562.348    10045434.678 3   7827593.565 2
  21615895.430     3352225.728 3   2612121.626 2
  23589368.021    -1263734.257 3   -984710.821 1
 91  4 23 20 54 45.0020000  0  6 16 06 02 18 19 11
  24401874.537    -1981871.736 2  -1544319.323 1
  24329425.186    -2592732.762 2  -2020296.504 1
  22597470.798    -6846333.929 3  -5334780.650 2
  22623679.254    10103833.086 3   7873098.705 2
  21620554.804     3376728.738 3   2631214.868 2
  23592593.485    -1246794.473 3   -971510.971 1
 91  4 23 20 55  0.0020000  0  6 16 06 02 18 19 11
  24404308.851    -1969059.614 2  -1534335.868 1
  24326538.789    -2607866.548 2  -2032088.978 1
  22594713.009    -6860851.061 3  -5346092.622 2
  22634811.446    10162348.867 3   7918695.310 2
  21625234.865     3401315.468 3   2650373.339 2
  23595847.732    -1229669.426 3   -958166.786 1
 91  4 23 20 55 15.0020000  0  6 16 06 02 18 19 11
  24406783.039    -1956076.445 2  -1524219.166 1
  24323669.170    -2622954.047 2  -2043845.393 1
  22591969.905    -6875253.857 3  -5357315.519 2
  22645973.015    10220987.048 3   7964387.283 2
  21629929.314     3425990.971 3   2669600.979 2
  23599145.151    -1212353.996 3   -944674.211 1
 91  4 23 20 55 30.0020000  0  6 16 06 02 18 19 11
  24409294.998    -1942933.263 2  -1513977.809 1
  24320800.756    -2638006.228 2  -2055574.328 1
  22589250.183    -6889552.928 3  -5368457.585 2
  22657152.881    10279736.299 3   8010165.798 2
  21634638.753     3450744.207 3   2688889.194 2
  23602475.543    -1194858.975 3   -931041.710 1
 91  4 23 20 55 45.0020000  0  6 16 06 02 18 19 11
  24411807.559    -1929627.692 2  -1503609.865 1
  24317947.331    -2653020.664 2  -2067273.790 1
  22586544.562    -6903745.850 3  -5379516.951 2
  22668351.026    10338598.883 3   8056032.640 2
  21639363.181     3475577.868 3   2708240.075 2
  23605840.416    -1177181.941 3   -917267.397 1
 91  4 23 20 56  0.0020000  0  6 16 06 02 18 19 11
  24414379.180    -1916155.771 2  -1493112.336 1
  24315101.105    -2667993.396 2  -2078940.811 1
  22583862.917    -6917828.673 3  -5390490.506 2
  22679575.852    10397578.740 3   8101990.855 2
  21644107.093     3500495.928 3   2727656.745 2
  23609238.863    -1159319.007 3   -903348.227 1
 91  4 23 20 56 15.0020000  0  6 16 06 02 18 19 11
  24416969.988    -1902521.482 2  -1482488.269 1
  24312246.179    -2682928.447 2  -2090578.448 1
  22581204.961    -6931805.381 3  -5401381.367 2
  22690820.772    10456671.235 3   8148036.835 2
  21648861.509     3525494.575 3   2747136.198 2
  23612669.088    -1141274.075 3   -889287.219 1
 91  4 23 20 56 30.0020000  0  6 16 06 02 18 19 11
  24419606.960    -1888721.764 2  -1471735.289 1
  24309422.141    -2697822.581 2  -2102184.192 1
  22578566.183    -6945672.524 3  -5412186.870 2
  22702086.371    10515879.826 3   8194173.269 2
  21653639.300     3550577.207 3   2766681.084 3
  23616143.086    -1123043.736 3   -875081.740 1
 91  4 23 20 56 45.0020000  0  6 16 06 02 18 19 11
  24422268.214    -1874754.117 2  -1460851.489 1
  24306602.290    -2712673.294 2  -2113756.102 1
  22575948.397    -6959427.608 3  -5422905.065 2
  22713372.064    10575206.853 3   8240402.011 2
  21658427.282     3575746.370 3   2786293.392 2
  23619647.360    -1104625.483 2   -860729.858 1
 91  4 23 20 57  0.0020000  0  6 16 06 02 18 19 11
  24424943.263    -1860615.073 2  -1449834.127 1
  24303778.548    -2727477.308 2  -2125291.644 1
  22573356.988    -6973067.213 3  -5433533.262 2
  22724685.031    10634655.405 3   8286725.434 2
  21663236.850     3601005.541 3   2805975.838 2
  23623190.906    -1086015.895 3   -846228.854 2
 91  4 23 20 57 15.0020000  0  6 16 06 02 18 19 11
  24427671.674    -1846304.518 2  -1438683.111 1
  24300972.789    -2742234.362 2  -2136790.566 1
  22570784.468    -6986591.035 3  -5444071.246 2
  22736027.080    10694225.461 3   8333143.532 2
  21668058.119     3626354.917 3   2825728.588 2
  23626764.135    -1067214.613 3   -831578.494 1
 91  4 23 20 57 30.0020000  0  6 16 06 02 18 19 11
  24430432.167    -1831824.906 2  -1427400.340 1
  24298176.322    -2756946.566 2  -2148254.556 1
  22568226.938    -7000001.335 3  -5454520.769 2
  22747386.212    10753914.649 3   8379654.477 2
  21672899.760     3651792.518 3   2845550.084 2
  23630378.432    -1048223.958 3   -816780.562 2
 91  4 23 20 57 45.0020000  0  6 16 06 02 18 19 11
  24433211.542    -1817175.362 2  -1415985.203 1
  24295378.057    -2771613.358 2  -2159683.197 1
  22565697.895    -7013297.381 3  -5464881.245 2
  22758766.633    10813723.123 3   8426258.359 2
  21677757.604     3677318.907 3   2865440.757 2
  23634029.306    -1029043.167 3   -801834.479 2
 91  4 23 20 58  0.0020000  0  6 16 06 02 18 19 11
  24436033.487    -1802352.841 2  -1404435.227 1
  24292596.588    -2786231.772 2  -2171074.037 1
  22563192.227    -7026475.859 3  -5475150.123 2
  22770169.242    10873653.918 3   8472957.553 2
  21682633.422     3702937.226 3   2885403.075 2
  23637718.247    -1009669.103 3   -786737.803 2
 91  4 23 20 58 15.0020000  0  6 16 06 02 18 19 11
  24438887.810    -1787353.205 2  -1392747.264 1
  24289832.797    -2800797.410 2  -2182423.824 1
  22560705.449    -7039532.487 3  -5485324.046 2
  22781597.032    10933711.117 3   8519755.242 2
  21687526.035     3728651.936 3   2905440.479 2
  23641438.668     -990097.416 3   -771487.148 2
 91  4 23 20 58 30.0020000  0  6 16 06 02 18 19 11
  24441777.514    -1772187.273 2  -1380929.727 1
  24287063.918    -2815321.067 2  -2193740.865 1
  22558240.257    -7052477.985 3  -5495411.380 2
  22793047.900    10993883.809 3   8566642.944 2
  21692437.539     3754452.367 3   2925544.704 2
  23645200.464     -970338.894 3   -756090.873 2
 91  4 23 20 58 45.0020000  0  6 16 06 02 18 19 11
  24444686.997    -1756846.361 2  -1368975.845 1
  24284309.724    -2829793.547 2  -2205018.067 1
  22555803.246    -7065303.223 3  -5505405.007 2
  22804525.152    11054180.734 3   8613627.447 2
  21697358.334     3780347.742 3   2945722.901 2
  23648993.443     -950384.526 2   -740541.989 2
 91  4 23 20 59  0.0020000  0  6 16 06 02 18 19 11
  24447656.440    -1741331.047 2  -1356886.040 1
  24281564.526    -2844215.896 2  -2216256.195 1
  22553384.515    -7078009.031 3  -5515305.585 2
  22816016.505    11114600.936 3   8660708.006 2
  21702306.405     3806337.177 3   2965974.390 2
  23652830.790     -930235.096 2   -724841.131 2
 91  4 23 20 59 15.0020000  0  6 16 06 02 18 19 11
  24450636.972    -1725638.556 2  -1344658.198 1
  24278828.314    -2858585.124 2  -2227452.900 1
  22550988.880    -7090592.447 3  -5525110.787 2
  22827538.421    11175147.097 3   8707886.716 2
  21707272.169     3832423.734 3   2986301.558 2
  23656704.101     -909887.537 3   -708985.865 1
 91  4 23 20 59 30.0020000  0  6 16 06 02 18 19 11
  24453645.093    -1709767.382 2  -1332291.048 1
  24276109.195    -2872899.828 2  -2238607.146 1
  22548617.221    -7103051.909 3  -5534819.403 2
  22839084.628    11235820.635 3   8755164.677 2
  21712255.917     3858608.785 3   3006705.472 2
  23660616.999     -889340.434 2   -692975.118 1
 91  4 23 20 59 45.0020000  0  6 16 06 02 18 19 11
  24456712.274    -1693714.252 2  -1319782.190 1
  24273392.484    -2887156.240 2  -2249715.957 1
  22546276.736    -7115383.645 3  -5544428.468 2
  22850656.321    11296624.836 3   8802544.451 2
  21717258.554     3884896.307 3   3027189.237 2
  23664562.868     -868590.027 2   -676805.979 2
 91  4 23 21  0  0.0020000  0  6 16 06 02 18 19 11
  24459794.436    -1677481.379 2  -1307133.271 1
  24270695.248    -2901356.738 2  -2260781.181 1
  22543947.350    -7127589.905 3  -5553939.771 2
  22862256.188    11357557.213 3   8850024.110 2
  21722277.978     3911284.039 3   3047751.086 2
  23668545.610     -847638.566 2   -660480.155 1
 91  4 23 21  0 15.0020000  0  6 16 06 02 18 19 11
  24462918.871    -1661071.122 2  -1294346.125 1
  24267998.011    -2915503.957 2  -2271804.910 1
  22541647.638    -7139673.578 3  -5563355.553 2
  22873872.248    11418614.732 3   8897601.292 2
  21727319.887     3937769.403 3   3068389.007 2
  23672572.117     -826488.831 2   -643999.785 1
 91  4 23 21  0 30.0020000  0  6 16 06 02 18 19 11
  24466076.288    -1644487.326 2  -1281423.775 1
  24265313.374    -2929601.540 2  -2282789.949 2
  22539373.116    -7151637.977 3  -5572678.384 2
  22885517.083    11479793.771 3   8945273.152 2
  21732376.489     3964348.828 3   3089100.219 2
  23676635.810     -805144.294 2   -627367.674 2
 91  4 23 21  0 45.0020000  0  6 16 06 02 18 19 11
  24469254.391    -1627732.169 2  -1268367.895 1
  24262641.920    -2943651.636 2  -2293738.007 1
  22537116.576    -7163485.270 3  -5581909.987 2
  22897178.113    11541091.890 3   8993037.799 2
  21737449.276     3991020.240 3   3109883.119 2
  23680737.571     -783607.099 3   -610585.438 2
 91  4 23 21  1  0.0020000  0  6 16 06 02 18 19 11
  24472476.260    -1610808.553 2  -1255180.712 1
  24259978.563    -2957657.124 2  -2304651.289 1
  22534884.623    -7175218.188 3  -5591052.453 2
  22908864.620    11602505.832 3   9040892.704 2
  21742547.244     4017780.914 3   3130735.572 2
  23684866.912     -761880.205 3   -593655.386 1
 91  4 23 21  1 15.0020000  0  6 16 06 02 18 19 11
  24475740.995    -1593716.038 2  -1241861.957 1
  24257316.410    -2971617.029 2  -2315529.042 1
  22532673.358    -7186835.825 3  -5600105.104 2
  22920575.112    11664036.617 3   9088838.643 2
  21747651.214     4044631.774 3   3151658.307 2
  23689037.322     -739962.628 3   -576576.732 2
 91  4 23 21  1 30.0020000  0  6 16 06 02 18 19 11
  24479028.520    -1576455.654 2  -1228412.370 1
  24254672.536    -2985532.505 2  -2326372.162 1
  22530488.172    -7198339.160 3  -5609068.678 2
  22932305.096    11725682.752 3   9136874.466 2
  21752779.161     4071571.710 3   3172650.439 2
  23693242.214     -717855.446 3   -559350.336 1
 91  4 23 21  1 45.0020000  0  6 16 06 02 18 19 11
  24482334.333    -1559031.778 2  -1214835.403 1
  24252024.771    -2999408.115 2  -2337184.234 1
  22528317.967    -7209732.773 3  -5617946.753 2
  22944057.259    11787439.336 3   9184996.359 2
  21757922.700     4098596.379 3   3193708.601 2
  23697485.470     -695563.240 3   -541979.741 1
 91  4 23 21  2  0.0020000  0  6 16 06 02 18 19 11
  24485689.312    -1541444.488 2  -1201131.087 1
  24249390.495    -3013243.865 2  -2347965.248 1
  22526167.559    -7221016.466 3  -5626739.186 2
  22955831.907    11849306.242 3   9233204.210 2
  21763084.230     4125705.918 3   3214832.887 2
  23701764.411     -673085.915 3   -524464.935 1
 91  4 23 21  2 15.0020000  0  6 16 06 02 18 19 11
  24489073.668    -1523698.206 2  -1187302.885 1
  24246773.608    -3027043.844 2  -2358718.377 1
  22524044.129    -7232194.542 3  -5635449.304 2
  22967622.147    11911279.299 3   9281494.803 2
  21768255.951     4152896.180 3   3236020.085 2
  23706077.224     -650427.673 3   -506809.157 1
 91  4 23 21  2 30.0020000  0  6 16 06 02 18 19 11
  24492471.513    -1505792.901 2  -1173350.760 1
  24244156.119    -3040808.146 2  -2369443.772 1
  22521929.992    -7243266.885 3  -5644077.040 2
  22979439.661    11973358.144 3   9329867.792 2
  21773449.555     4180167.322 3   3257270.307 2
  23710420.618     -627588.449 2   -489012.350 1
 91  4 23 21  2 45.0020000  0  6 16 06 02 18 19 11
  24495913.429    -1487733.128 2  -1159278.291 1
  24241537.731    -3054541.316 2  -2380144.836 1
  22519849.132    -7254238.089 3  -5652625.978 2
  22991266.179    12035537.701 3   9378319.271 2
  21778650.051     4207514.691 3   3278579.928 2
  23714805.683     -604572.979 3   -471078.202 1
 91  4 23 21  3  0.0020000  0  6 16 06 02 18 19 11
  24499366.138    -1469519.998 2  -1145086.260 1
  24238934.935    -3068243.964 2  -2390822.123 1
  22517780.269    -7265108.691 3  -5661096.517 2
  23003117.573    12097817.424 3   9426848.795 2
  21783879.035     4234937.890 3   3299948.631 2
  23719214.428     -581381.743 3   -453007.090 1
 91  4 23 21  3 15.0020000  0  6 16 06 02 18 19 11
  24502863.223    -1451156.277 2  -1130776.922 1
  24236327.637    -3081918.940 2  -2401477.861 1
  22515731.186    -7275881.504 3  -5669490.849 2
  23014992.351    12160194.373 3   9475454.068 2
  21789099.617     4262434.066 3   3321374.207 2
  23723663.649     -558017.559 3   -434801.211 1
 91  4 23 21  3 30.0020000  0  6 16 06 02 18 19 11
  24506391.177    -1432642.680 2  -1116350.865 1
  24233727.240    -3095567.154 2  -2412112.736 1
  22513699.186    -7286557.305 3  -5677809.599 2
  23026881.219    12222667.245 3   9524134.093 1
  21794346.592     4290002.445 3   3342856.034 2
  23728143.146     -534481.335 3   -416461.281 1
 91  4 23 21  3 45.0020000  0  6 16 06 02 18 19 11
  24509947.313    -1413983.657 2  -1101811.414 1
  24231134.339    -3109192.448 2  -2422729.748 1
  22511681.287    -7297140.089 3  -5686055.854 2
  23038791.673    12285231.857 2   9572885.621 1
  21799605.250     4317639.169 3   3364391.134 2
  23732652.928     -510776.942 3   -397990.290 1
 91  4 23 21  4  0.0020000  0  6 16 06 02 18 19 11
  24513515.150    -1395180.748 2  -1087159.843 1
  24228552.518    -3122796.717 2  -2433330.392 1
  22509685.567    -7307631.303 3  -5694230.760 2
  23050714.726    12347886.396 2   9621707.214 2
  21804876.498     4345342.681 3   3385978.272 2
  23737192.088     -486906.242 3   -379389.747 1
 91  4 23 21  4 15.0020000  0  6 16 06 02 18 19 11
  24517118.654    -1376235.023 2  -1072396.977 1
  24225962.914    -3136380.981 2  -2443915.453 1
  22507709.940    -7318032.061 3  -5702335.190 2
  23062640.763    12410629.456 2   9670597.783 1
  21810164.839     4373111.837 3   3407616.542 2
  23741768.416     -462870.252 3   -360660.401 1
 91  4 23 21  4 30.0020000  0  6 16 06 02 18 19 11
  24520758.735    -1357149.641 2  -1057525.333 1
  24223385.901    -3149947.991 2  -2454487.045 1
  22505746.293    -7328345.218 3  -5710371.351 2
  23074606.386    12473457.966 2   9719554.924 2
  21815463.964     4400944.129 3   3429304.021 2
  23746375.326     -438671.732 3   -341804.405 1
 91  4 23 21  4 45.0020000  0  6 16 06 02 18 19 11
  24524418.002    -1337922.867 2  -1042543.517 1
  24220804.089    -3163495.989 2  -2465043.862 1
  22503799.146    -7338569.052 3  -5718337.909 2
  23086576.800    12536373.315 2   9768579.753 2
  21820765.201     4428841.200 3   3451041.989 2
  23751008.018     -414309.015 3   -322820.444 1
 91  4 23 21  5  0.0020000  0  6 16 06 02 18 19 11
  24528102.746    -1318557.680 2  -1027453.858 1
  24218236.368    -3177028.141 2  -2475588.329 1
  22501869.379    -7348706.563 3  -5726237.211 2
  23098562.796    12599372.341 2   9817669.803 1
  21826090.414     4456800.068 3   3472828.099 2
  23755675.489     -389785.252 3   -303710.997 1
 91  4 23 21  5 15.0020000  0  6 16 06 02 18 19 11
  24531812.078    -1299055.165 2  -1012257.148 1
  24215661.449    -3190545.122 2  -2486120.916 1
  22499958.204    -7358758.442 3  -5734069.796 2
  23110566.486    12662454.030 2   9866824.217 2
  21831418.027     4484820.113 3   3494661.882 2
  23760374.135     -365101.159 3   -284476.629 1
 91  4 23 21  5 30.0020000  0  6 16 06 02 18 19 11
  24535551.389    -1279413.361 2   -996951.867 1
  24213091.328    -3204045.091 2  -2496640.276 1
  22498061.715    -7368722.790 3  -5741834.164 2
  23122586.964    12725620.308 2   9916044.552 2
  21836767.818     4512903.255 3   3516544.831 2
  23765103.659     -340254.855 3   -265115.876 1
 91  4 23 21  5 45.0020000  0  6 16 06 02 18 19 11
  24539314.686    -1259637.020 2   -981541.868 1
  24210524.803    -3217532.694 2  -2507150.033 1
  22496180.215    -7378604.135 3  -5749533.858 2
  23134620.931    12788866.029 2   9965326.796 2
  21842118.212     4541044.782 3   3538473.284 2
  23769855.676     -315251.119 3   -245632.431 1
 91  4 23 21  6  0.0020000  0  6 16 06 02 18 19 11
  24543105.266    -1239721.808 2   -966023.567 1
  24207965.179    -3231003.299 2  -2517646.497 1
  22494318.809    -7388397.942 3  -5757165.332 2
  23146676.187    12852195.516 2  10014674.324 2
  21847485.698     4569249.610 3   3560451.052 2
  23774648.753     -290085.311 2   -226022.695 2
 91  4 23 21  6 15.0020000  0  6 16 06 02 18 19 11
  24546919.525    -1219668.820 2   -950397.945 1
  24205401.646    -3244458.231 2  -2528130.804 1
  22492472.087    -7398105.387 3  -5764729.536 2
  23158742.533    12915607.427 2  10064086.078 2
  21852865.478     4597516.384 3   3582477.096 2
  23779466.121     -264758.774 3   -206287.723 1
 91  4 23 21  6 30.0020000  0  6 16 06 02 18 19 11
  24550762.264    -1199484.785 2   -934670.208 1
  24202842.920    -3257903.796 2  -2538607.786 1
  22490638.253    -7407732.684 3  -5772231.250 2
  23170823.868    12979095.153 2  10113556.910 2
  21858263.843     4625838.881 3   3604546.559 2
  23784319.454     -239277.815 3   -186432.444 1
 91  4 23 21  6 45.0020000  0  6 16 06 02 18 19 11
  24554622.086    -1179165.592 2   -918837.208 1
  24200281.490    -3271335.873 2  -2549074.359 1
  22488821.816    -7417275.765 3  -5779667.466 2
  23182918.701    13042662.428 2  10163090.100 1
  21863656.807     4654221.380 3   3626662.654 2
  23789194.085     -213638.299 3   -166453.701 1
 91  4 23 21  7  0.0020000  0  6 16 06 02 18 19 11
  24558519.392    -1158719.565 2   -902905.296 1
  24197730.259    -3284762.581 2  -2559536.586 1
  22487019.461    -7426742.932 3  -5787044.406 2
  23195027.914    13106301.134 2  10212678.580 2
  21869068.363     4682655.712 3   3648819.294 2
  23794098.085     -187848.378 3   -146357.618 1
 91  4 23 21  7 15.0020000  0  6 16 06 02 18 19 11
  24562434.383    -1138143.917 2   -886872.296 1
  24195169.737    -3298181.068 2  -2569992.387 1
  22485232.097    -7436131.302 3  -5794359.852 2
  23207159.619    13170013.748 3  10262324.753 2
  21874491.001     4711144.882 3   3671018.728 2
  23799040.467     -161905.291 3   -126142.141 1
 91  4 23 21  7 30.0020000  0  5 06 02 18 19 11
  24192624.492    -3311589.580 2  -2580440.607 1
  22483460.027    -7445438.889 3  -5801612.563 2
  23219294.919    13233801.748 3  10312029.457 2
  21879922.643     4739690.873 3   3693262.237 2
  23804003.230     -135807.294 3   -105806.132 1
 91  4 23 21  7 45.0020000  0  5 06 02 18 19 11
  24190075.058    -3324988.708 2  -2590881.427 1
  22481706.236    -7454666.179 3  -5808802.609 2
  23231448.804    13297664.419 3  10361792.437 2
  21885357.880     4768293.132 3   3715549.693 2
  23809002.569     -109554.928 3    -85349.755 1
 91  4 23 21  8  0.0020000  0  6 16 06 02 18 19 11
  24574325.651       46754.07812     36424.833 1
  24187528.321    -3338373.485 2  -2601310.945 1
  22479970.141    -7463808.308 3  -5815926.187 2
  23243614.084    13361606.216 3  10411617.168 2
  21890821.901     4796956.660 3   3737884.993 2
  23814028.590      -83143.455 3    -64769.283 1
 91  4 23 21  8 15.0020000  0  6 16 06 02 18 19 11
  24578340.466       67859.633 2     52870.665 1
  24184986.383    -3351746.809 2  -2611731.590 1
  22478244.532    -7472868.087 3  -5822985.712 2
  23255795.845    13425624.347 3  10461501.281 2
  21896282.920     4825678.732 3   3760265.808 2
  23819081.894      -56575.674 3    -44067.101 1
 91  4 23 21  8 30.0020000  0  6 16 06 02 18 19 11
  24582396.961       89098.410 2     69420.287 1
  24182439.349    -3365108.055 2  -2622142.851 1
  22476536.618    -7481844.848 3  -5829980.525 2
  23267989.307    13489719.052 3  10511445.062 2
  21901758.327     4854459.933 3   3782692.711 2
  23824171.468      -29851.118 3    -23242.772 1
 91  4 23 21  8 45.0020000  0  6 16 06 02 18 19 11
  24586457.653      110470.582 2     86073.852 1
  24179896.207    -3378456.441 2  -2632544.131 1
  22474846.390    -7490737.855 3  -5836910.093 2
  23280204.651    13553890.914 3  10561448.978 2
  21907249.326     4883301.052 3   3805166.297 2
  23829283.832       -2968.982 3     -2295.649 1
 91  4 23 21  9  0.0020000  0  6 16 06 02 18 19 11
  24590543.220      131975.403 2    102830.823 1
  24177367.155    -3391792.664 2  -2642935.892 1
  22473167.548    -7499547.695 3  -5843774.829 2
  23292434.383    13618138.814 3  10611512.140 2
  21912747.218     4912201.477 3   3827686.085 2
  23834427.065       24069.999 2     18773.674 1
 91  4 23 21  9 15.0020000  0  6 16 06 02 18 19 11
  24594659.072      153619.280 2    119696.124 1
  24174826.116    -3405110.417 2  -2653313.270 1
  22471505.197    -7508268.225 3  -5850569.991 3
  23304672.509    13682469.060 3  10661639.478 2
  21918259.201     4941167.502 3   3850257.007 2
  23839609.579       51272.003 3     39970.049 1
 91  4 23 21  9 30.0030000  0  6 16 06 02 18 19 11
  24598812.096      175404.032 2    136671.091 1
  24172302.163    -3418409.895 2  -2663676.532 1
  22469863.833    -7516899.183 3  -5857295.470 2
  23316931.927    13746886.208 2  10711834.878 1
  21923785.880     4970201.854 3   3872881.052 2
  23844815.480       78639.767 3     61295.438 1
 91  4 23 21  9 45.0030000  0  6 16 06 02 18 19 11
  24602979.514      197320.463 2    153748.709 1
  24169767.414    -3431695.480 2  -2674028.843 1
  22468240.160    -7525445.651 3  -5863954.996 2
  23329200.329    13811375.213 2  10762085.937 1
  21929316.447     4999294.697 3   3895550.788 2
  23850054.349      106163.170 3     82742.236 1
 91  4 23 21 10  0.0030000  0  6 16 06 02 18 19 11
  24607179.903      219370.403 2    170930.472 1
  24167246.163    -3444967.909 2  -2684370.895 1
  22466627.576    -7533907.738 3  -5870548.755 2
  23341484.322    13875940.624 2  10812396.504 1
  21934868.304     5028448.434 3   3918267.977 2
  23855317.510      133844.380 2    104312.035 1
 91  4 23 21 10 15.0030000  0  6 16 06 02 18 19 11
  24611402.184      241555.375 2    188217.415 1
  24164716.815    -3458225.211 2  -2694701.138 1
  22465034.476    -7542283.740 3  -5877075.447 2
  23353793.209    13940583.610 3  10862767.521 1
  21940428.859     5057664.739 3   3941033.915 2
  23860618.737      161685.034 2    126006.050 1
 91  4 23 21 10 30.0030000  0  6 16 06 02 18 19 11
  24615651.138      263875.581 2    205609.729 1
  24162199.456    -3471467.043 2  -2705019.368 1
  22463459.071    -7550573.078 3  -5883534.614 2
  23366114.074    14005304.693 3  10913199.387 1
  21946002.895     5086944.106 3   3963848.996 2
  23865940.050      189685.600 2    147824.648 1
 91  4 23 21 10 45.0030000  0  6 16 06 02 18 19 11
  24619923.178      286330.751 2    223107.273 1
  24159688.997    -3484693.913 2  -2715325.828 1
  22461896.552    -7558776.377 3  -5889926.623 3
  23378439.739    14070103.032 3  10963691.578 1
  21951582.035     5116286.243 3   3986713.083 2
  23871303.637      217845.421 2    169767.479 1
 91  4 23 21 11  0.0030000  0  6 16 06 02 18 19 11
  24624223.705      308917.708 2    240707.323 1
  24157168.636    -3497908.537 2  -2725622.982 1
  22460352.618    -7566896.400 3  -5896253.987 2
  23390784.896    14134975.618 3  11014241.877 2
  21957183.660     5145688.586 3   4009623.847 2
  23876694.506      246161.697 2    191831.960 1
 91  4 23 21 11 15.0030000  0  6 16 06 02 18 19 11
  24628542.215      331634.406 2    258408.619 1
  24154654.583    -3511112.705 2  -2735911.841 1
  22458821.885    -7574934.759 3  -5902517.574 2
  23403142.939    14199920.512 3  11064848.146 1
  21962784.682     5175149.370 3   4032580.314 2
  23882110.556      274632.569 2    214017.065 1
 91  4 23 21 11 30.0030000  0  6 16 06 02 18 19 11
  24632890.103      354479.943 2    276210.269 1
  24152141.717    -3524307.057 2  -2746193.065 1
  22457307.930    -7582892.182 3  -5908718.105 2
  23415513.878    14264936.901 3  11115510.132 2
  21968399.491     5204667.929 3   4055581.771 2
  23887559.884      303257.365 2    236322.084 1
 91  4 23 21 11 45.0030000  0  6 16 06 02 18 19 11
  24637265.579      377452.913 2    294111.230 1
  24149633.056    -3537493.368 2  -2756468.035 1
  22455807.167    -7590770.416 3  -5914856.933 2
  23427899.799    14330022.663 3  11166226.167 1
  21974029.899     5234242.470 3   4078626.852 2
  23893036.792      332034.329 2    258745.718 1
 91  4 23 21 12  0.0030000  0  6 16 06 02 18 19 11
  24641653.934      400547.627 2    312107.040 1
  24147123.794    -3550677.084 2  -2766740.951 1
  22454324.396    -7598575.015 4  -5920938.375 2
  23440297.419    14395172.058 3  11216991.792 1
  21979667.794     5263867.621 3   4101711.359 2
  23898540.381      360957.818 3    281283.497 1
 91  4 23 21 12 15.0030000  0  6 16 06 02 18 19 11
  24646070.776      423772.315 2    330204.257 1
  24144621.424    -3563849.420 2  -2777004.933 1
  22452859.608    -7606297.054 4  -5926955.401 3
  23452710.326    14460393.405 3  11267813.567 2
  21985314.685     5293552.130 3   4124842.235 2
  23904073.653      390036.561 2    303942.351 1
 91  4 23 21 12 30.0030000  0  6 16 06 02 18 19 11
  24650524.796      447124.975 2    348401.075 1
  24142108.863    -3577012.478 2  -2787261.776 1
  22451401.118    -7613938.636 3  -5932909.829 2
  23465133.424    14525684.566 3  11318689.653 2
  21990977.464     5323294.250 3   4148017.891 2
  23909626.714      419268.473 2    326720.489 1
 91  4 23 21 12 45.0030000  0  6 16 06 02 18 19 11
  24654977.917      470599.031 2    366692.481 1
  24139613.098    -3590172.762 2  -2797516.460 1
  22449958.518    -7621506.340 3  -5938806.681 2
  23477570.020    14591038.854 2  11369614.928 2
  21996646.839     5353087.464 3   4171233.357 2
  23915225.337      448646.893 2    349612.740 1
 91  4 23 21 13  0.0030000  0  6 16 06 02 18 19 11
  24659480.500      494202.935 2    385085.065 1
  24137116.425    -3603321.533 2  -2807762.146 1
  22448532.407    -7628991.382 4  -5944639.121 2
  23490024.293    14656464.650 2  11420595.918 2
  22002328.507     5382940.532 3   4194495.479 2
  23920841.350      478180.410 2    372625.856 1
 91  4 23 21 13 15.0030000  0  6 16 06 02 18 19 11
  24663991.774      517936.536 2    403578.736 1
  24134611.359    -3616458.987 2  -2817999.059 1
  22447124.881    -7636393.992 3  -5950407.340 2
  23502484.568    14721961.358 2  11471632.156 2
  22008015.865     5412853.485 3   4217804.259 2
  23926491.538      507868.780 2    395759.650 2
 91  4 23 21 13 30.0030000  0  6 16 06 02 18 19 11
  24668529.433      541798.213 2    422172.162 1
  24132107.489    -3629586.372 2  -2828228.129 1
  22445729.344    -7643715.340 3  -5956112.229 2
  23514955.331    14787527.581 2  11522722.590 2
  22013719.722     5442825.100 3   4241158.741 2
  23932173.198      537710.629 2    419013.037 2
 91  4 23 21 13 45.0030000  0  6 16 06 02 18 19 11
  24673102.769      565790.893 2    440867.722 1
  24129607.518    -3642700.575 2  -2838446.857 1
  22444355.698    -7650952.253 3  -5961751.325 2
  23527451.284    14853166.435 2  11573869.591 2
  22019440.060     5472858.512 3   4264561.378 2
  23937882.752      567709.022 2    442388.421 2
 91  4 23 21 14  0.0030000  0  6 16 06 02 18 19 11
  24677682.692      589918.391 2    459668.267 1
  24127117.145    -3655797.552 2  -2848652.206 1
  22442997.032    -7658100.764 4  -5967321.542 2
  23539957.724    14918881.405 3  11625075.910 2
  22025164.595     5502957.756 3   4288015.311 2
  23943617.182      597867.960 2    465888.854 1
 91  4 23 21 14 15.0030000  0  5 06 02 18 19 11
  24124623.771    -3668878.185 2  -2858844.863 1
  22441652.764    -7665161.579 4  -5972823.403 3
  23552476.161    14984671.394 2  11676340.697 2
  22030901.721     5533122.097 3   4311519.987 2
  23949389.382      628186.516 2    489513.710 1
 91  4 23 21 14 30.0030000  0  6 16 06 02 18 19 11
  24686957.971       39509.71012     30778.521 1
  24122142.385    -3681937.955 2  -2869021.207 1
  22440324.383    -7672130.294 3  -5978253.521 3
  23565011.682    15050540.660 2  11727667.243 2
  22036660.136     5563355.990 3   4335078.849 2
  23955186.772      658669.016 2    513266.305 2
 91  4 23 21 14 45.0030000  0  6 16 06 02 18 19 11
  24691619.448       64045.567 2     49897.276 1
  24119661.304    -3694978.827 2  -2879182.926 1
  22439020.294    -7679008.858 3  -5983613.481 2
  23577562.193    15116486.963 2  11779054.222 2
  22042422.451     5593657.705 3   4358690.451 2
  23961020.432      689313.470 2    537144.995 1
 91  4 23 21 15  0.0030000  0  6 16 06 02 18 19 11
  24696315.397       88717.723 2     69122.178 1
  24117192.212    -3708000.605 2  -2889329.675 1
  22437722.189    -7685797.209 3  -5988903.038 2
  23590127.990    15182510.225 2  11830500.780 2
  22048205.147     5624027.454 3   4382355.172 2
  23966884.072      720119.849 2    561149.979 1
 91  4 23 21 15 15.0030000  0  6 16 06 02 18 19 11
  24701035.027      113526.540 2     88453.693 1
  24114718.626    -3721002.544 2  -2899460.948 1
  22436449.571    -7692494.428 3  -5994121.594 2
  23602701.291    15248611.071 2  11882007.805 1
  22053996.238     5654466.049 3   4406073.564 2
  23972771.993      751088.825 2    585281.639 2
 91  4 23 21 15 30.0030000  0  6 16 06 02 18 19 11
  24705780.142      138470.094 2    107890.135 1
  24112248.041    -3733986.583 2  -2909578.290 1
  22435193.138    -7699102.544 3  -5999270.721 2
  23615291.675    15314787.137 2  11933573.411 2
  22059809.211     5684971.548 3   4429844.051 2
  23978695.592      782218.370 2    609538.403 1
 91  4 23 21 15 45.0030000  0  6 16 06 02 18 19 11
  24710544.148      163546.804 2    127430.388 1
  24109773.854    -3746954.035 2  -2919682.771 1
  22433949.897    -7705622.987 3  -6004351.539 2
  23627907.537    15381036.885 2  11985196.429 1
  22065618.894     5715542.720 3   4453665.710 2
  23984656.665      813507.082 3    633919.219 1
 91  4 23 21 16  0.0030000  0  6 16 06 02 18 19 11
  24715345.619      188757.826 2    147075.156 1
  24107313.757    -3759903.618 2  -2929773.275 1
  22432723.452    -7712054.359 3  -6009362.985 2
  23640529.698    15447361.358 2  12036877.623 1
  22071451.054     5746180.963 3   4477539.620 2
  23990636.331      844956.147 2    658424.929 2
 91  4 23 21 16 15.0030000  0  6 16 06 02 18 19 11
  24720169.880      214106.578 2    166827.349 1
  24104848.259    -3772831.640 2  -2939846.946 2
  22431520.085    -7718392.839 3  -6014301.999 2
  23653164.153    15513764.080 2  12088619.866 2
  22077296.405     5776889.971 3   4501468.698 2
  23996649.563      876569.248 2    683058.501 1
 91  4 23 21 16 30.0030000  0  6 16 06 02 18 19 11
  24725032.819      239594.299 2    186687.852 1
  24102392.359    -3785736.583 2  -2949902.581 1
  22430334.099    -7724637.100 3  -6019167.562 2
  23665807.604    15580246.231 2  12140424.030 1
  22083151.948     5807671.322 3   4525454.178 2
  24002696.683      908347.554 2    707820.847 1
 91  4 23 21 16 45.0030000  0  6 16 06 02 18 19 11
  24729899.048      265217.338 2    206653.808 1
  24099940.063    -3798622.152 2  -2959943.228 1
  22429160.118    -7730790.777 3  -6023962.596 2
  23678477.430    15646803.855 3  12192286.939 1
  22089021.591     5838521.471 3   4549493.220 2
  24008785.465      940287.359 2    732709.006 1
 91  4 23 21 17  0.0030000  0  6 16 06 02 18 19 11
  24734806.049      290971.378 2    226721.820 1
  24097491.954    -3811492.263 2  -2969971.774 1
  22428005.315    -7736857.823 3  -6028690.106 2
  23691156.253    15713432.527 2  12244205.250 1
  22094906.214     5869436.433 3   4573582.781 2
  24014889.839      972384.693 2    757719.873 1
 91  4 23 21 17 15.0030000  0  6 16 06 02 18 19 11
  24739730.440      316856.345 2    246891.818 1
  24095041.752    -3824346.885 2  -2979988.316 1
  22426871.199    -7742838.270 4  -6033350.150 2
  23703850.065    15780132.183 2  12296178.840 1
  22100797.434     5900416.491 3   4597723.072 2
  24021026.889     1004639.475 2    782853.454 1
 91  4 23 21 17 30.0030000  0  6 16 06 02 18 19 11
  24744683.911      342867.967 2    267160.628 1
  24092599.044    -3837190.383 2  -2989996.046 1
  22425745.180    -7748736.505 4  -6037946.034 3
  23716555.568    15846898.199 2  12348204.247 1
  22106712.944     5931457.359 3   4621910.827 2
  24027188.526     1037047.132 2    808106.244 1
 91  4 23 21 17 45.0030000  0  6 16 06 02 18 19 11
  24749654.169      369001.626 2    287524.458 1
  24090153.335    -3850027.147 2  -2999998.606 1
  22424638.348    -7754556.899 4  -6042481.363 3
  23729268.872    15913725.938 2  12400277.644 1
  22112622.748     5962554.637 3   4646142.440 2
  24033388.832     1069603.189 2    833474.578 1
 91  4 23 21 18  0.0030000  0  6 16 06 02 18 19 11
  24754647.514      395255.568 2    307982.001 1
  24087716.325    -3862858.171 2  -3009996.756 1
  22423549.803    -7760300.402 3  -6046956.777 2
  23741994.155    15980614.098 2  12452398.116 1
  22118557.140     5993707.240 3   4670417.172 2
  24039615.820     1102306.498 2    858957.642 1
 91  4 23 21 18 15.0030000  0  6 16 06 02 18 19 11
  24759666.336      421627.264 2    328531.289 1
  24085277.212    -3875686.299 2  -3019992.595 1
  22422466.947    -7765969.852 3  -6051374.474 3
  23754735.336    16047559.524 2  12504563.207 1
  22124490.336     6024912.488 3   4694732.940 2
  24045866.192     1135154.207 2    884553.267 1
 91  4 23 21 18 30.0030000  0  6 16 06 02 18 19 11
  24764714.248      448117.261 2    349172.799 1
  24082836.895    -3888510.551 2  -3029985.471 1
  22421402.990    -7771564.323 3  -6055733.742 2
  23767490.913    16114563.026 2  12556773.563 1
  22130443.914     6056171.517 3   4719090.609 2
  24052139.048     1168147.133 2    910262.006 2
 91  4 23 21 18 45.0030000  0  6 16 06 02 18 19 11
  24769773.241      474720.646 2    369902.624 1
  24080394.493    -3901335.735 2  -3039979.031 1
  22420347.121    -7777088.703 3  -6060038.406 3
  23780251.873    16181619.489 2  12609025.203 1
  22136395.991     6087479.407 3   4743486.340 2
  24058447.284     1201280.242 2    936080.022 1
 91  4 23 21 19  0.0030000  0  6 16 06 02 18 19 11
  24774850.530      501443.799 2    390725.777 1
  24077956.575    -3914155.406 2  -3049968.285 1
  22419316.433    -7782536.382 4  -6064283.302 3
  23793021.236    16248735.010 2  12661322.853 1
  22142372.054     6118842.808 3   4767925.315 2
  24064776.801     1234560.001 2    962012.290 1
 91  4 23 21 19 15.0030000  0  6 16 06 02 18 19 11
  24779965.590      528287.431 2    411642.846 1
  24075521.362    -3926968.650 2  -3059952.573 1
  22418292.340    -7787906.677 3  -6068467.903 3
  23805806.181    16315909.966 2  12713666.822 1
  22148345.124     6150262.654 3   4792408.277 2
  24071142.291     1267987.041 2    988059.283 1
 91  4 23 21 19 30.0030000  0  6 16 06 02 18 19 11
  24785085.440      555256.491 2    432657.572 1
  24073083.453    -3939770.163 2  -3069927.728 1
  22417285.332    -7793194.184 3  -6072587.967 3
  23818600.428    16383149.772 2  12766061.305 1
  22154335.574     6181744.197 3   4816939.337 2
  24077530.275     1301566.720 2   1014225.268 1
 91  4 23 21 19 45.0030000  0  6 16 06 02 18 19 11
  24790246.072      582348.470 2    453768.124 1
  24070641.339    -3952562.288 2  -3079895.519 1
  22416293.619    -7798401.217 3  -6076645.346 3
  23831401.864    16450451.756 2  12818504.246 1
  22160335.020     6213285.179 3   4841516.702 2
  24083943.736     1335296.486 2   1040508.171 1
 91  4 23 21 20  0.0030000  0  6 16 06 02 18 19 11
  24795419.285      609569.296 2    474979.101 1
  24068211.824    -3965338.800 2  -3089851.193 1
  22415321.694    -7803521.738 3  -6080635.317 3
  23844221.291    16517821.698 2  12871000.125 1
  22166354.848     6244891.985 3   4866145.345 2
  24090401.259     1369182.394 2   1066912.768 1
 91  4 23 21 20 15.0030000  0  6 16 06 02 18 19 11
  24800618.289      636915.612 2    496287.818 1
  24065784.106    -3978102.894 2  -3099797.143 1
  22414359.663    -7808558.895 3  -6084560.326 3
  23857058.404    16585256.533 2  12923546.584 1
  22172379.483     6276561.479 3   4890822.843 2
  24096871.381     1403221.106 2   1093436.435 1
 91  4 23 21 20 30.0030000  0  6 16 06 02 18 19 11
  24805858.066      664394.066 2    517699.533 1
  24063369.877    -3990847.724 2  -3109728.116 1
  22413420.711    -7813505.836 3  -6088415.047 3
  23869906.310    16652762.347 2  12976148.339 1
  22178421.202     6308300.543 3   4915554.554 2
  24103378.375     1437419.334 2   1120084.374 1
 91  4 23 21 20 45.0030000  0  6 16 06 02 18 19 11
  24811110.730      692002.707 2    539212.664 1
  24060942.159    -4003575.071 2  -3119645.502 1
  22412496.451    -7818364.418 3  -6092200.903 3
  23882764.704    16720337.082 2  13028803.824 1
  22184466.813     6340107.308 3   4940339.025 2
  24109916.849     1471775.044 2   1146855.019 1
 91  4 23 21 21  0.0030000  0  6 16 06 02 18 19 11
  24816401.461      719741.527 2    560827.235 1
  24058519.537    -4016284.964 2  -3129549.223 1
  22411586.885    -7823134.594 3  -6095917.866 3
  23895637.197    16787980.660 2  13081512.928 1
  22190535.213     6371981.923 3   4965176.370 2
  24116489.203     1506288.063 2   1173748.292 1
 91  4 23 21 21 15.0030000  0  6 16 06 02 18 19 11
  24821710.786      747606.585 2    582540.204 1
  24056105.901    -4028980.955 2  -3139442.123 1
  22410698.294    -7827819.924 3  -6099568.738 3
  23908521.976    16855689.228 2  13134272.684 1
  22196611.702     6403920.936 3   4990063.882 2
  24123085.534     1540954.705 2   1200761.250 1
 91  4 23 21 21 30.0030000  0  6 16 06 02 18 19 11
  24827031.200      775598.982 2    604352.304 1
  24053690.773    -4041661.528 2  -3149323.042 1
  22409820.801    -7832418.885 3  -6103152.277 3
  23921423.245    16923463.952 2  13187084.008 1
  22202704.986     6435925.964 3   5015002.830 2
  24129704.349     1575776.409 2   1227895.019 1
 91  4 23 21 21 45.0030000  0  6 16 06 02 18 19 11
  24832374.108      803719.454 2    626264.308 1
  24051282.242    -4054325.940 2  -3159191.367 1
  22408963.096    -7836931.013 3  -6106668.160 3
  23934323.309    16991305.176 2  13239947.127 1
  22208804.867     6467997.657 3   5039993.728 2
  24136368.439     1610753.654 2   1255150.000 2
 91  4 23 21 22  0.0030000  0  6 16 06 02 18 19 11
  24837748.182      831964.327 2    648273.228 1
  24048871.311    -4066977.928 2  -3169049.995 1
  22408121.280    -7841359.951 4  -6110119.239 3
  23947244.969    17059208.976 2  13292858.995 1
  22214928.724     6500132.470 3   5065033.817 2
  24143051.716     1645882.627 2   1282523.202 1
 91  4 23 21 22 15.0030000  0  6 16 06 02 18 19 11
  24843159.739      860329.912 2    670376.193 1
  24046471.173    -4079620.678 2  -3178901.401 1
  22407295.353    -7845708.870 4  -6113507.953 3
  23960189.409    17127171.854 2  13345816.897 1
  22221050.784     6532327.301 3   5090120.668 2
  24149763.165     1681160.107 2   1310012.144 1
 91  4 23 21 22 30.0030000  0  6 16 06 02 18 19 11
  24848574.890      888815.581 2    692572.692 1
  24044057.843    -4092254.416 2  -3188745.804 1
  22406481.117    -7849978.114 4  -6116834.590 3
  23973129.348    17195193.526 2  13398820.647 1
  22227188.139     6564581.922 3   5115254.121 2
  24156507.596     1716585.678 2   1337616.465 2
 91  4 23 21 22 45.0030000  0  6 16 06 02 18 19 11
  24854015.824      917421.895 2    714863.264 1
  24041659.503    -4104878.150 2  -3198582.444 1
  22405680.972    -7854166.729 3  -6120098.396 3
  23986084.878    17263274.525 2  13451870.620 1
  22233332.684     6596897.375 3   5140434.959 2
  24163274.511     1752160.036 3   1365336.763 2
 91  4 23 21 23  0.0030000  0  6 16 06 02 18 19 11
  24859462.753      946144.104 2    737244.104 1
  24039259.967    -4117496.748 2  -3208415.067 2
  22404897.911    -7858279.494 3  -6123303.091 3
  23999047.903    17331409.554 2  13504962.694 1
  22239495.821     6629268.804 3   5165659.398 2
  24170073.805     1787878.252 3   1393169.098 1
 91  4 23 21 23 15.0030000  0  6 16 06 02 18 19 11
  24864960.645      974984.882 2    759717.350 1
  24036861.923    -4130107.620 2  -3218241.635 1
  22404135.240    -7862313.718 4  -6126446.590 3
  24012030.420    17399601.119 2  13558098.785 1
  22245663.147     6661698.754 3   5190929.462 2
  24176898.280     1823742.599 2   1421115.365 2
 91  4 23 21 23 30.0030000  0  6 16 06 02 18 19 11
  24870477.723     1003944.417 2    782283.103 1
  24034463.888    -4142710.072 2  -3228061.675 1
  22403378.564    -7866268.858 3  -6129528.461 3
  24025012.030    17467849.477 2  13611279.151 1
  22251850.864     6694188.207 3   5216245.883 2
  24183751.234     1859753.670 2   1449175.935 1
 91  4 23 21 23 45.0030000  0  6 16 06 02 18 19 11
  24876010.698     1033026.350 2    804944.291 1
  24032072.746    -4155299.948 2  -3237871.908 1
  22402643.474    -7870140.901 3  -6132545.599 3
  24038011.029    17536158.647 2  13664506.912 1
  22258044.277     6726741.021 3   5241611.690 2
  24190629.978     1895915.389 2   1477353.882 2
 91  4 23 21 24  0.0030000  0  6 16 06 02 18 19 11
  24881576.341     1062226.510 2    827697.586 1
  24029671.700    -4167881.433 2  -3247675.612 1
  22401919.176    -7873934.154 3  -6135501.333 2
  24051024.118    17604523.915 2  13717778.384 1
  22264247.882     6759353.123 3   5267023.685 2
  24197540.195     1932223.498 2   1505645.884 1
 91  4 23 21 24 15.0030000  0  6 16 06 02 18 19 11
  24887152.785     1091543.730 2    850542.055 1
  24027274.267    -4180455.606 2  -3257473.595 1
  22401212.565    -7877649.602 4  -6138396.428 3
  24064040.812    17672943.882 2  13771092.472 1
  22270462.577     6792023.650 3   5292481.221 2
  24204478.890     1968676.687 2   1534050.970 2
 91  4 23 21 24 30.0030000  0  6 16 06 02 18 19 11
  24892753.502     1120971.664 2    873472.808 1
  24024887.016    -4193028.237 2  -3267270.400 1
  22400524.241    -7881292.946 4  -6141235.356 2
  24077070.392    17741412.793 2  13824444.708 1
  22276696.466     6824746.933 3   5317979.866 2
  24211438.866     2005269.067 2   1562564.492 2
 91  4 23 21 24 45.0030000  0  6 16 06 02 18 19 11
  24898374.313     1150508.808 2    896488.720 1
  24022492.576    -4205600.764 2  -3277067.097 1
  22399836.519    -7884865.678 3  -6144019.263 3
  24090105.670    17809928.868 2  13877833.702 1
  22282930.050     6857521.431 3   5343518.399 2
  24218426.134     2041998.967 2   1591185.189 2
 91  4 23 21 25  0.0030000  0  6 16 06 02 18 19 11
  24903996.921     1180153.260 2    919588.146 1
  24020097.830    -4218175.068 2  -3286865.175 2
  22399167.678    -7888369.946 3  -6146749.811 3
  24103153.538    17878489.770 2  13931257.602 1
  22289178.921     6890345.243 3   5369095.385 2
  24225449.366     2078864.308 3   1619911.413 2
 91  4 23 21 25 15.0030000  0  6 16 06 02 18 19 11
  24909662.100     1209903.813 2    942770.284 1
  24017707.883    -4230751.979 2  -3296665.295 1
  22398522.526    -7891806.486 4  -6149427.584 3
  24116213.691    17947094.319 2  13984715.514 1
  22295437.389     6923217.629 3   5394710.183 2
  24232488.200     2115864.131 2   1648742.434 2
 91  4 23 21 25 30.0030000  0  6 16 06 02 18 19 11
  24915349.763     1239762.846 2    966037.005 1
  24015323.634    -4243328.806 2  -3306465.367 1
  22397881.266    -7895172.743 4  -6152050.584 3
  24129276.252    18015745.027 2  14038209.384 1
  22301699.156     6956141.459 3   5420365.094 2
  24239549.805     2153000.827 2   1677680.127 1
 91  4 23 21 25 45.0030000  0  6 16 06 02 18 19 11
  24921062.004     1269723.762 2    989383.060 1
  24012925.896    -4255911.642 2  -3316270.113 1
  22397252.002    -7898474.832 4  -6154623.602 3
  24142337.304    18084435.282 2  14091734.091 1
  22307972.910     6989110.478 3   5446055.222 2
  24246641.696     2190268.060 2   1706719.517 1
 91  4 23 21 26  0.0030000  0  6 16 06 02 18 19 11
  24926775.450     1299786.891 2   1012808.806 1
  24010529.352    -4268500.118 2  -3326079.246 1
  22396633.531    -7901712.357 3  -6157146.300 3
  24155423.248    18153165.641 2  14145290.023 1
  22314253.863     7022125.293 3   5471781.038 2
  24253764.465     2227666.142 2   1735860.873 1
 91  4 23 21 26 15.0030000  0  6 16 06 02 18 19 11
  24932526.370     1329952.389 2   1036314.304 1
  24008130.419    -4281094.255 2  -3335892.777 1
  22396028.253    -7904885.440 3  -6159618.784 3
  24168511.889    18221935.669 2  14198876.889 1
  22320544.710     7055185.879 3   5497542.502 2
  24260900.129     2265194.883 2   1765104.025 1
 91  4 23 21 26 30.0030000  0  6 16 06 02 18 19 11
  24938283.589     1360218.580 2   1059898.238 1
  24005731.782    -4293694.969 2  -3345711.448 1
  22395438.863    -7907994.955 3  -6162041.737 3
  24181605.319    18290743.853 2  14252493.511 1
  22326844.544     7088291.316 3   5523338.928 2
  24268070.267     2302853.153 2   1794448.122 1
 91  4 23 21 26 45.0030000  0  6 16 06 02 18 19 11
  24944047.099     1390584.093 2   1083559.584 1
  24003333.441    -4306303.434 2  -3355536.139 1
  22394859.961    -7911042.176 3  -6164416.149 3
  24194706.855    18359588.869 2  14306138.769 1
  22333154.874     7121440.582 3   5549169.491 2
  24275261.990     2340639.475 2   1823892.012 2
 91  4 23 21 27  0.0030000  0  6 16 06 02 18 19 11
  24949841.784     1421055.564 2   1107303.395 1
  24000935.397    -4318913.035 2  -3365361.820 1
  22394288.859    -7914020.648 3  -6166737.086 2
  24207817.675    18428476.933 2  14359818.010 1
  22339472.106     7154640.400 3   5575039.373 2
  24282474.392     2378560.333 2   1853440.652 1
 91  4 23 21 27 15.0030000  0  6 16 06 02 18 19 11
  24955677.844     1451636.777 2   1131132.782 1
  23998535.259    -4331519.704 2  -3375185.132 1
  22393738.139    -7916926.202 3  -6169001.121 2
  24220942.891    18497411.959 2  14413533.449 1
  22345800.428     7187894.783 3   5600951.856 2
  24289718.274     2416619.725 2   1883097.276 1
 91  4 23 21 27 30.0030000  0  6 16 06 02 18 19 11
  24961508.808     1482326.470 2   1155046.719 1
  23996134.825    -4344124.011 2  -3385006.604 1
  22393201.213    -7919759.528 4  -6171208.885 2
  24234057.611    18566392.883 2  14467284.581 1
  22352138.940     7221203.047 3   5626906.313 2
  24296982.250     2454816.766 2   1912861.192 1
 91  4 23 21 27 45.0030000  0  6 16 06 02 18 19 11
  24967373.643     1513128.257 2   1179047.934 1
  23993736.179    -4356722.360 2  -3394823.415 1
  22392674.775    -7922516.860 4  -6173357.413 2
  24247205.609    18635423.241 2  14521074.296 1
  22358485.846     7254568.955 3   5652905.695 2
  24304279.198     2493154.827 2   1942735.001 1
 91  4 23 21 28  0.0030000  0  6 16 06 02 18 19 11
  24973252.874     1544045.559 2   1203139.290 1
  23991342.035    -4369311.063 2  -3404632.711 1
  22392165.726    -7925194.674 4  -6175443.961 2
  24260349.706    18704506.167 2  14574904.978 1
  22364852.837     7287996.270 3   5678952.934 2
  24311603.726     2531637.554 2   1972721.521 1
 91  4 23 21 28 15.0030000  0  6 16 06 02 18 19 11
  24979165.680     1575077.188 2   1227319.674 1
  23988949.698    -4381891.003 2  -3414435.152 1
  22391670.768    -7927794.133 3  -6177469.457 2
  24273510.896    18773640.655 2  14628775.860 1
  22371221.329     7321484.175 3   5705047.394 2
  24318956.140     2570263.800 2   2002819.891 1
 91  4 23 21 28 30.0030000  0  6 16 06 02 18 19 11
  24985096.180     1606226.507 2   1251591.815 1
  23986550.755    -4394458.720 2  -3424228.009 1
  22391192.903    -7930311.720 4  -6179431.073 3
  24286667.592    18842829.789 2  14682689.394 1
  22377609.304     7355036.002 3   5731191.749 2
  24326328.037     2609036.705 2   2033032.629 2
 91  4 23 21 28 45.0030000  0  6 16 06 02 18 19 11
  24991045.561     1637493.257 2   1275955.495 1
  23984165.310    -4407014.007 2  -3434011.246 2
  22390729.721    -7932747.289 4  -6181328.892 3
  24299844.967    18912073.520 2  14736645.359 1
  22384001.179     7388652.034 3   5757386.049 2
  24333740.104     2647956.389 2   2063359.639 1
 91  4 23 21 29  0.0030000  0  6 16 06 02 18 19 11
  24997017.724     1668871.308 2   1300405.826 1
  23981773.566    -4419563.318 2  -3443789.831 2
  22390280.928    -7935107.192 4  -6183167.727 3
  24313024.445    18981365.177 2  14790638.704 1
  22390412.843     7422325.979 3   5783625.474 2
  24341171.655     2687016.245 2   2093795.884 1
 91  4 23 21 29 15.0030000  0  6 16 06 02 18 19 11
  25003009.675     1700370.014 2   1324950.173 1
  23979394.412    -4432096.376 2  -3453555.749 2
  22389847.430    -7937381.536 4  -6184939.896 3
  24326223.702    19050714.396 2  14844676.870 1
  22396831.400     7456068.018 3   5809917.952 2
  24348633.193     2726226.154 2   2124349.035 2
 91  4 23 21 29 30.0030000  0  6 16 06 02 18 19 11
  25009023.517     1731985.175 2   1349585.321 1
  23977010.163    -4444617.251 2  -3463312.190 1
  22389427.726    -7939574.286 3  -6186648.478 3
  24339431.362    19120116.803 2  14898756.490 1
  22403268.837     7489874.277 3   5836260.494 2
  24356121.710     2765581.979 2   2155015.901 2
 91  4 23 21 29 45.0030000  0  6 16 06 02 18 19 11
  25015062.532     1763713.893 2   1374308.847 1
  23974626.812    -4457128.627 2  -3473061.222 1
  22389025.097    -7941688.141 4  -6188295.590 3
  24352647.415    19189569.553 2  14952875.350 1
  22409706.886     7523741.814 3   5862650.759 2
  24363637.806     2805080.586 2   2185794.057 2
 91  4 23 21 30  0.0030000  0  6 16 06 02 18 19 11
  25021120.436     1795549.646 2   1399115.866 1
  23972247.056    -4469636.685 2  -3482807.661 1
  22388641.070    -7943729.234 4  -6189886.004 3
  24365874.855    19259066.228 2  15007028.412 1
  22416166.511     7557664.673 3   5889084.130 2
  24371180.585     2844715.739 2   2216678.530 2
 91  4 23 21 30 15.0030000  0  6 16 06 02 18 19 11
  25027191.236     1827494.997 2   1424008.217 1
  23969867.902    -4482138.653 2  -3492549.356 1
  22388266.327    -7945694.959 4  -6191417.699 3
  24379103.202    19328609.231 2  15061217.580 1
  22422633.335     7591645.719 3   5915562.848 2
  24378747.941     2884489.872 2   2247671.356 2
 91  4 23 21 30 30.0030000  0  6 16 06 02 18 19 11
  25033287.818     1859551.067 2   1448986.939 1
  23967494.446    -4494633.373 2  -3502285.406 2
  22387904.776    -7947584.313 4  -6192889.877 3
  24392355.822    19398199.192 2  15115443.363 1
  22429110.350     7625686.100 3   5942087.801 2
  24386341.988     2924404.041 2   2278773.285 1
 91  4 23 21 30 45.0030000  0  6 16 06 02 18 19 11
  25039416.771     1891713.368 2   1474048.303 1
  23965120.396    -4507124.560 2  -3512018.734 2
  22387557.316    -7949400.866 3  -6194305.329 3
  24405604.847    19467832.465 2  15169702.858 1
  22435596.657     7659782.093 3   5968656.087 2
  24393964.810     2964454.146 2   2309981.156 2
 91  4 23 21 31  0.0030000  0  6 16 06 02 18 19 11
  25045566.411     1923985.673 2   1499195.544 1
  23962735.248    -4519608.291 2  -3521746.212 1
  22387227.245    -7951140.931 4  -6195661.179 3
  24418860.774    19537512.685 2  15223998.933 1
  22442098.861     7693937.824 3   5995270.927 2
  24401617.909     3004643.994 3   2341297.894 2
 91  4 23 21 31 15.0030000  0  6 16 06 02 18 19 11
  25051720.256     1956372.296 2   1524431.799 1
  23960366.285    -4532080.041 2  -3531464.358 1
  22386912.766    -7952800.064 4  -6196953.962 3
  24432124.789    19607243.790 2  15278334.671 1
  22448607.356     7728157.680 3   6021935.730 2
  24409290.499     3044977.957 3   2372726.965 1
 91  4 23 21 31 30.0030000  0  6 16 06 02 18 19 11
  25057910.067     1988867.272 2   1549752.475 1
  23957993.727    -4544545.565 2  -3541177.680 2
  22386612.072    -7954384.030 4  -6198188.181 3
  24445408.297    19677019.677 2  15332705.322 1
  22455135.334     7762435.831 3   6048645.957 2
  24416990.373     3085449.909 3   2404263.546 2
 91  4 23 21 31 45.0030000  0  6 16 06 02 18 19 11
  25064111.577     2021473.496 2   1575159.807 1
  23955621.466    -4557001.860 2  -3550883.794 1
  22386323.367    -7955889.747 4  -6199361.418 3
  24458701.393    19746843.319 2  15387113.172 1
  22461664.813     7796775.672 3   6075404.252 2
  24424721.718     3126062.731 3   2435909.888 2
 91  4 23 21 32  0.0030000  0  6 16 06 02 18 19 11
  25070341.567     2054190.498 2   1600653.477 1
  23953252.206    -4569448.763 2  -3560582.602 1
  22386049.364    -7957317.382 4  -6200473.811 3
  24471992.089    19816714.083 2  15441557.722 1
  22468213.775     7831177.028 3   6102210.475 2
  24432476.446     3166816.137 3   2467665.761 1
 91  4 23 21 32 15.0030000  0  6 16 06 02 18 19 11
  25076576.050     2087012.986 2   1626229.374 1
  23950889.848    -4581891.465 2  -3570278.109 2
  22385796.336    -7958672.099 4  -6201529.402 3
  24485295.681    19886626.776 2  15496034.995 1
  22474768.740     7865634.974 3   6129060.791 2
  24440256.364     3207704.944 2   2499527.155 1
 91  4 23 21 32 30.0040000  0  6 16 06 02 18 19 11
  25082853.699     2119945.070 2   1651890.634 1
  23948521.185    -4594328.639 2  -3579969.326 2
  22385548.406    -7959951.938 4  -6202526.636 3
  24498611.867    19956588.088 2  15550550.077 1
  22481336.892     7900153.775 3   6155958.539 2
  24448063.856     3248733.670 2   2531497.612 1
 91  4 23 21 32 45.0040000  0  6 16 06 02 18 19 11
  25089148.446     2152983.249 2   1677634.546 1
  23946150.424    -4606757.638 2  -3589654.182 1
  22385324.162    -7961155.743 4  -6203464.614 3
  24511934.341    20026589.001 2  15605096.088 1
  22487913.739     7934730.038 3   6182901.073 2
  24455899.231     3289897.639 2   2563573.389 1
 91  4 23 21 33  0.0040000  0  6 16 06 02 18 19 11
  25095458.175     2186131.355 2   1703464.127 1
  23943788.956    -4619176.909 2  -3599331.460 2
  22385105.013    -7962281.372 4  -6204341.685 3
  24525253.219    20096636.414 2  15659678.285 1
  22494512.774     7969368.367 3   6209891.951 2
  24463760.388     3331201.631 2   2595758.308 1
 91  4 23 21 33 15.0040000  0  6 16 06 02 18 19 11
  25101783.198     2219378.218 2   1729370.665 1
  23941432.592    -4631597.465 2  -3609009.725 1
  22384902.957    -7963339.661 4  -6205166.292 3
  24538597.881    20166718.924 2  15714287.865 1
  22501105.807     8004057.794 3   6236922.654 2
  24471641.334     3372634.424 2   2628043.578 2
 91  4 23 21 33 30.0040000  0  6 16 06 02 18 19 11
  25108119.608     2252727.863 2   1755357.608 1
  23939067.826    -4644014.951 2  -3618685.727 1
  22384717.985    -7964326.465 4  -6205935.276 2
  24551946.442    20236840.527 2  15768928.315 1
  22507726.725     8038802.640 3   6263996.426 2
  24479551.658     3414200.170 2   2660432.351 1
 91  4 23 21 33 45.0040000  0  6 16 06 02 18 19 11
  25114477.612     2286178.058 2   1781422.610 1
  23936703.365    -4656431.148 2  -3628360.600 1
  22384543.500    -7965243.862 4  -6206650.081 3
  24565293.503    20306998.973 2  15823597.025 1
  22514342.242     8073601.142 3   6291112.138 2
  24487485.966     3455896.809 2   2692923.246 1
 91  4 23 21 34  0.0040000  0  6 16 06 02 18 19 11
  25120870.979     2319728.800 2   1807565.978 1
  23934343.398    -4668845.964 2  -3638034.427 1
  22384378.919    -7966091.646 3  -6207310.659 3
  24578651.051    20377194.338 2  15878294.509 1
  22520978.752     8108453.576 3   6318269.840 2
  24495446.354     3497724.212 2   2725515.984 1
 91  4 23 21 34 15.0040000  0  6 16 06 02 18 19 11
  25127276.649     2353382.978 2   1833789.899 1
  23931984.634    -4681256.314 2  -3647704.731 1
  22384232.616    -7966866.917 4  -6207914.708 2
  24592015.205    20447429.561 2  15933023.101 1
  22527616.754     8143362.900 3   6345471.889 2
  24503428.633     3539685.160 2   2758212.835 1
 91  4 23 21 34 30.0040000  0  6 16 06 02 18 19 11
  25133694.306     2387136.626 2   1860091.322 1
  23929613.874    -4693666.034 2  -3657374.613 1
  22384101.905    -7967573.541 4  -6208465.292 3
  24605388.048    20517700.431 2  15987779.407 1
  22534272.145     8178325.414 3   6372715.381 2
  24511441.485     3581775.612 2   2791010.579 1
 91  4 23 21 34 45.0040000  0  6 16 06 02 18 19 11
  25140141.342     2420991.196 2   1886471.412 1
  23927259.604    -4706072.743 2  -3667042.095 1
  22383978.698    -7968209.056 4  -6208960.441 2
  24618772.278    20588008.752 2  16042564.944 1
  22540935.039     8213343.531 3   6400002.207 2
  24519474.423     3623997.673 2   2823910.871 1
 91  4 23 21 35  0.0040000  0  6 16 06 02 18 19 11
  25146604.571     2454947.919 2   1912931.116 1
  23924897.237    -4718475.479 2  -3676706.509 1
  22383870.768    -7968772.558 4  -6209399.508 2
  24632150.217    20658355.195 2  16097380.159 1
  22547611.710     8248418.205 3   6427333.066 2
  24527533.439     3666352.059 2   2856914.264 1
 91  4 23 21 35 15.0040000  0  6 16 06 02 18 19 11
  25153081.280     2488996.785 2   1939462.627 1
  23922530.979    -4730883.521 2  -3686375.046 1
  22383775.734    -7969273.479 4  -6209789.791 3
  24645548.538    20728729.943 2  16152217.460 1
  22554292.587     8283540.186 3   6454700.845 2
  24535618.544     3708829.249 2   2890013.357 1
 91  4 23 21 35 30.0040000  0  6 16 06 02 18 19 11
  25159578.982     2523144.213 2   1966070.975 1
  23920172.207    -4743290.373 2  -3696042.537 2
  22383691.493    -7969705.651 4  -6210126.384 3
  24658942.068    20799139.192 2  16207081.720 1
  22560990.251     8318715.958 3   6482110.611 2
  24543717.740     3751435.379 2   2923213.019 1
 91  4 23 21 35 45.0040000  0  6 16 06 02 18 19 11
  25166095.871     2557386.544 2   1992753.227 1
  23917807.449    -4755699.711 2  -3705712.118 2
  22383622.844    -7970072.694 4  -6210412.372 3
  24672349.987    20869579.163 2  16261970.255 1
  22567689.111     8353941.840 3   6509559.329 2
  24551859.802     3794166.545 2   2956510.006 1
 91  4 23 21 36  0.0040000  0  6 16 06 02 18 19 11
  25172622.357     2591726.994 2   2019511.920 1
  23915448.380    -4768107.627 2  -3715380.540 2
  22383566.777    -7970370.681 4  -6210644.531 3
  24685757.905    20940053.539 2  16316885.196 1
  22574405.063     8389221.876 3   6537050.227 2
  24560017.151     3837026.522 2   2989907.361 1
 91  4 23 21 36 15.0040000  0  6 16 06 02 18 19 11
  25179169.827     2626157.352 2   2046340.712 1
  23913089.608    -4780521.995 2  -3725054.015 1
  22383522.113    -7970607.683 4  -6210829.170 3
  24699177.515    21010553.800 2  16371820.287 1
  22581129.714     8424548.018 3   6564577.065 2
  24568192.194     3880006.941 2   3023398.557 1
 91  4 23 21 36 30.0040000  0  6 16 06 02 18 19 11
  25185752.965     2660683.095 2   2073243.742 1
  23910721.553    -4792937.066 2  -3734728.036 2
  22383489.429    -7970778.007 4  -6210961.849 3
  24712600.424    21081085.512 2  16426779.854 1
  22587860.646     8459926.153 3   6592144.413 2
  24576391.815     3923113.338 2   3056987.922 1
 91  4 23 21 36 45.0040000  0  6 16 06 02 18 19 11
  25192337.604     2695306.364 2   2100222.739 1
  23908359.491    -4805350.131 2  -3744400.570 1
  22383474.142    -7970878.884 4  -6211040.496 2
  24726019.737    21151651.119 2  16481766.237 1
  22594602.686     8495358.928 3   6619754.243 2
  24584618.721     3966348.190 2   3090677.271 1
 91  4 23 21 37  0.0040000  0  6 16 06 02 18 19 11
  25198937.242     2730021.242 2   2127273.155 1
  23905999.524    -4817767.266 2  -3754076.206 1
  22383463.655    -7970916.678 4  -6211069.931 2
  24739457.932    21222244.040 2  16536773.479 1
  22601351.907     8530840.324 3   6647402.065 2
  24592865.118     4009705.105 2   3124461.892 1
 91  4 23 21 37 15.0040000  0  6 16 06 02 18 19 11
  25205570.750     2764829.387 2   2154396.308 1
  23903642.854    -4830186.199 2  -3763753.233 1
  22383466.647    -7970889.232 4  -6211048.475 3
  24752900.925    21292866.242 2  16591803.607 1
  22608113.727     8566372.517 3   6675089.478 2
  24601146.284     4053186.180 2   3158343.205 1
 91  4 23 21 37 30.0040000  0  6 16 06 02 18 19 11
  25212204.258     2799734.456 2   2181594.892 1
  23901275.095    -4842602.687 2  -3773428.359 1
  22383487.937    -7970792.395 4  -6210972.997 3
  24766339.721    21363521.938 2  16646859.771 1
  22614889.341     8601959.856 3   6702819.831 2
  24609442.441     4096795.424 2   3192324.403 1
 91  4 23 21 37 45.0040000  0  6 16 06 02 18 19 11
  25218859.047     2834734.030 2   2208867.214 1
  23898907.328    -4855019.494 2  -3783103.767 1
  22383520.909    -7970628.895 4  -6210845.550 2
  24779795.907    21434207.854 2  16701939.532 1
  22621667.643     8637599.539 3   6730590.985 2
  24617766.474     4140529.632 2   3226403.006 1
 91  4 23 21 38  0.0040000  0  6 16 06 02 18 19 11
  25225533.625     2869826.065 2   2236211.908 1
  23896544.970    -4867438.195 2  -3792780.600 1
  22383563.784    -7970400.322 4  -6210667.398 2
  24793255.984    21504922.083 2  16757041.324 1
  22628462.443     8673290.072 3   6758401.747 2
  24626108.498     4184386.957 2   3260577.527 1
 91  4 23 21 38 15.0040000  0  6 16 06 02 18 19 11
  25232238.181     2905010.590 2   2263628.403 1
  23894183.798    -4879858.268 2  -3802458.509 1
  22383618.944    -7970106.475 4  -6210438.406 2
  24806708.575    21575664.458 2  16812165.049 1
  22635260.237     8709031.908 3   6786252.491 2
  24634481.706     4228367.591 2   3294848.118 1
 91  4 23 21 38 30.0040000  0  6 16 06 02 18 19 11
  25238961.331     2940287.481 2   2291116.842 1
  23891819.337    -4892279.418 2  -3812137.262 1
  22383683.702    -7969747.035 4  -6210158.265 2
  24820177.945    21646435.331 2  16867310.958 1
  22642071.816     8744825.370 3   6814143.498 2
  24642871.098     4272471.635 2   3329214.855 1
 91  4 23 21 38 45.0040000  0  6 16 06 02 18 19 11
  25245688.373     2975650.719 2   2318672.452 1
  23889461.473    -4904707.383 2  -3821821.359 1
  22383763.746    -7969327.944 4  -6209831.659 2
  24833656.022    21717228.525 2  16922474.301 1
  22648893.594     8780664.970 3   6842070.423 2
  24651290.471     4316693.145 2   3363673.173 1
 91  4 23 21 39  0.0040000  0  6 16 06 02 18 19 11
  25252437.602     3011108.356 2   2346301.728 1
  23887088.313    -4917134.084 2  -3831504.417 1
  22383859.975    -7968841.101 4  -6209452.265 3
  24847128.393    21788051.834 2  16977661.120 1
  22655724.971     8816558.613 3   6870039.470 2
  24659727.529     4361039.924 2   3398229.108 1
 91  4 23 21 39 15.0040000  0  6 16 06 02 18 19 11
  25259197.921     3046652.184 2   2373998.075 1
  23884723.546    -4929567.123 2  -3841192.484 1
  22383961.902    -7968294.203 4  -6209026.072 2
  24860609.462    21858896.980 2  17032864.892 1
  22662565.936     8852498.536 3   6898044.571 2
  24668189.471     4405503.908 3   3432876.319 1
 91  4 23 21 39 30.0040000  0  6 16 06 02 18 19 11
  25265982.828     3082289.391 2   2401767.268 1
  23882355.185    -4941998.950 2  -3850879.548 1
  22384083.024    -7967679.795 4  -6208547.291 2
  24874098.324    21929771.512 2  17088091.565 1
  22669414.693     8888492.495 3   6926091.766 2
  24676672.694     4450092.460 2   3467620.616 1
 91  4 23 21 39 45.0040000  0  6 16 06 02 18 19 11
  25272778.222     3118018.461 2   2429607.945 1
  23879996.719    -4954430.784 2  -3860566.643 1
  22384206.833    -7966999.297 4  -6208017.003 2
  24887592.577    22000673.800 2  17143339.917 1
  22676268.842     8924539.108 3   6954180.002 2
  24685184.701     4494804.038 2   3502460.775 1
 91  4 23 21 40  0.0040000  0  6 16 06 02 18 19 11
  25279592.200     3153838.049 2   2457519.298 1
  23877626.866    -4966863.584 2  -3870254.470 1
  22384352.839    -7966253.590 4  -6207435.888 2
  24901090.434    22071602.862 2  17198609.563 1
  22683143.390     8960637.611 3   6982308.684 2
  24693715.301     4539637.461 2   3537395.903 1
 91  4 23 21 40 15.0040000  0  6 16 06 02 18 19 11
  25286424.772     3189750.498 2   2485502.875 1
  23875265.101    -4979294.474 2  -3879940.828 1
  22384504.534    -7965440.113 4  -6206801.966 2
  24914590.088    22142560.630 2  17253901.144 1
  22690020.625     8996790.818 3   7010479.991 2
  24702266.876     4584595.184 2   3572427.893 1
 91  4 23 21 40 30.0040000  0  6 16 06 02 18 19 11
  25293279.523     3225754.943 2   2513558.120 1
  23872890.440    -4991724.525 2  -3889626.500 1
  22384672.414    -7964559.992 4  -6206116.093 2
  24928100.535    22213545.962 2  17309214.204 1
  22696919.447     9032997.786 2   7038693.215 2
  24710847.235     4629675.980 3   3607555.777 2
 91  4 23 21 40 45.0040000  0  6 16 06 02 18 19 11
  25300144.770     3261850.726 2   2541684.703 1
  23870526.582    -5004153.792 2  -3899311.572 1
  22384853.189    -7963613.216 4  -6205378.334 2
  24941618.181    22284558.710 2  17364548.597 1
  22703811.375     9069258.347 3   7066948.149 2
  24719451.283     4674879.451 2   3642779.235 1
 91  4 23 21 41  0.0040000  0  6 16 06 02 18 19 11
  25307031.307     3298038.949 2   2569883.111
  23868163.613    -5016580.494 2  -3908994.658 1
  22385045.953    -7962598.341 4  -6204587.478 3
  24955134.020    22355599.984 2  17419905.259 1
  22710723.695     9105574.005 3   7095246.043 2
  24728074.509     4720206.951 2   3678099.361 1
 91  4 23 21 41 15.0040000  0  6 16 06 02 18 19 11
  25313933.426     3334314.897 2   2598150.111 1
  23865803.052    -5029009.479 2  -3918679.505 1
  22385251.613    -7961520.396 4  -6203747.468 3
  24968661.856    22426664.477 2  17475279.965 1
  22717642.601     9141940.205 3   7123583.326 2
  24736727.723     4765653.313 2   3713512.115 1
 91  4 23 21 41 30.0040000  0  6 16 06 02 18 19 11
  25320855.038     3370680.549 2   2626486.810 1
  23863438.888    -5041438.141 2  -3928364.132 1
  22385471.363    -7960376.683 4  -6202856.239 2
  24982185.496    22497754.821 2  17530674.815 1
  22724573.801     9178359.467 3   7151961.938 2
  24745398.614     4811220.882 2   3749019.271 1
 91  4 23 21 41 45.0040000  0  6 16 06 02 18 19 11
  25327791.639     3407140.897 2   2654897.663 2
  23861072.324    -5053861.223 2  -3938044.370 1
  22385698.303    -7959161.990 4  -6201909.678 2
  24995715.426    22568875.830 2  17586093.578 1
  22731513.701     9214837.291 3   7180386.186 2
  24754092.897     4856914.597 2   3784624.742 1
 91  4 23 21 42  0.0040000  0  6 16 06 02 18 19 11
  25334752.216     3443695.330 2   2683381.702 1
  23858710.856    -5066279.066 2  -3947720.565 1
  22385942.633    -7957876.896 4  -6200908.255 2
  25009257.650    22640026.629 2  17641536.008 1
  22738473.685     9251373.115 3   7208855.626 2
  24762810.267     4902733.895 2   3820328.116 1
 91  4 23 21 42 15.0040000  0  6 16 06 02 18 19 11
  25341717.593     3480336.045 2   2711932.851 1
  23856349.396    -5078699.256 3  -3957398.564 1
  22386199.552    -7956529.136 4  -6199858.021 2
  25022798.975    22711199.201 2  17696994.949 1
  22745426.471     9287959.298 3   7237364.307 2
  24771548.917     4948670.791 2   3856123.070 1
 91  4 23 21 42 30.0040000  0  6 16 06 02 18 19 11
  25348711.448     3517071.549 2   2740557.786 1
  23853979.535    -5091112.844 2  -3967071.403 2
  22386473.564    -7955109.694 4  -6198751.919 2
  25036354.688    22782402.642 2  17752477.996 1
  22752407.736     9324604.918 3   7265919.303 2
  24780316.945     4994734.021 2   3892016.522 1
 91  4 23 21 42 45.0040000  0  6 16 06 02 18 19 11
  25355722.100     3553898.978 2   2769254.361 1
  23851625.561    -5103522.070 3  -3976740.878 1
  22386754.774    -7953621.015 4  -6197591.877 2
  25049916.701    22853633.885 2  17807982.616 1
  22759386.305     9361307.617 3   7294518.787 2
  24789105.057     5040920.845 2   3928006.257 1
 91  4 23 21 43  0.0040000  0  6 16 06 02 18 19 11
  25362753.133     3590814.381 2   2798019.578 1
  23849265.297    -5115930.525 3  -3986409.643 2
  22387053.662    -7952066.644 4  -6196380.543 3
  25063465.827    22924889.069 2  17863506.012 1
  22766382.263     9398063.945 3   7323160.157 2
  24797912.366     5087227.567 2   3964089.469 1
 91  4 23 21 43 15.0040000  0  6 16 06 02 18 19 11
  25369793.754     3627825.181 2   2826859.064 1
  23846895.741    -5128330.654 2  -3996072.010 1
  22387358.857    -7950439.306 4  -6195112.451 3
  25077035.029    22996175.472 2  17919053.619 1
  22773389.608     9434881.407 3   7351849.051 2
  24806758.937     5133661.316 2   4000271.605 1
 91  4 23 21 43 30.0040000  0  6 16 06 02 18 19 11
  25376844.576     3664924.971 2   2855767.847 1
  23844542.666    -5140728.490 2  -4005732.597 2
  22387680.535    -7948745.162 4  -6193792.296 3
  25090603.934    23067486.733 2  17974620.652 1
  22780412.247     9471753.866 3   7380580.808 2
  24815612.706     5180215.634 2   4036547.705 1
 91  4 23 21 43 45.0040000  0  6 16 06 02 18 19 11
  25383934.067     3702108.732 2   2884742.198 1
  23842185.395    -5153128.728 2  -4015395.044 2
  22388016.303    -7946988.899 4  -6192423.733 3
  25104180.038    23138817.805 2  18030203.093 1
  22787430.088     9508676.744 3   7409351.850 2
  24824494.064     5226885.734 2   4072914.022 1
 91  4 23 21 44  0.0040000  0  6 16 06 02 18 19 11
  25391025.661     3739384.857 2   2913788.329 1
  23839824.834    -5165522.387 2  -4025052.433 1
  22388364.958    -7945161.841 4  -6191000.060 2
  25117752.538    23210177.243 2  18085808.055 1
  22794477.611     9545658.906 2   7438169.042 2
  24833398.195     5273680.127 2   4109377.095 1
 91  4 23 21 44 15.0040000  0  6 16 06 02 18 19 11
  25398137.637     3776747.174 2   2942901.680 1
  23837458.873    -5177915.387 2  -4034709.305 1
  22388726.806    -7943269.970 4  -6189525.890 2
  25131348.133    23281558.933 2  18141429.910 1
  22801516.139     9582694.458 3   7467027.861 2
  24842330.813     5320592.632 2   4145932.221 1
 91  4 23 21 44 30.0040000  0  6 16 06 02 18 19 11
  25405261.601     3814198.178 2   2972084.160 1
  23835104.001    -5190304.834 2  -4044363.361 1
  22389094.055    -7941310.544 4  -6187999.023 3
  25144928.425    23352965.287 2  18197071.459 1
  22808577.152     9619786.443 3   7495930.681 2
  24851277.217     5367625.706 2   4182581.363 1
 91  4 23 21 44 45.0040000  0  6 16 06 02 18 19 11
  25412412.255     3851737.319 2   3001335.415 1
  23832749.434    -5202691.085 2  -4054014.816 1
  22389484.687    -7939284.095 4  -6186419.834 3
  25158525.513    23424395.698 2  18252731.425 1
  22815642.055     9656934.357 3   7524877.170 2
  24860248.208     5414778.768 2   4219324.101 1
 91  4 23 21 45  0.0040000  0  6 16 06 02 18 19 11
  25419559.010     3889365.211 2   3030655.724 1
  23830393.358    -5215073.331 2  -4063663.265 2
  22389880.108    -7937189.717 4  -6184787.815 3
  25172120.506    23495850.456 2  18308410.288 1
  22822725.256     9694138.910 2   7553867.702 2
  24869245.584     5462052.276 2   4256160.581 2
 91  4 23 21 45 15.0040000  0  6 16 06 02 18 19 11
  25426738.439     3927081.504 2   3060044.947 1
  23828041.191    -5227451.165 2  -4073308.256 1
  22390287.231    -7935027.154 4  -6183102.667 3
  25185721.485    23567329.729 2  18364108.189 1
  22829807.549     9731400.530 3   7582902.701 2
  24878259.136     5509446.265 2   4293090.917 2
 91  4 23 21 45 30.0040000  0  6 16 06 02 18 19 11
  25433924.762     3964883.976 2   3089501.302 1
  23825689.015    -5239826.659 2  -4082951.454 2
  22390715.634    -7932798.586 4  -6181366.077 3
  25199323.973    23638831.054 2  18419823.292 1
  22836917.727     9768717.148 3   7611980.560 2
  24887309.578     5556958.393 2   4330113.336 1
 91  4 23 21 45 45.0040000  0  6 16 06 02 18 19 11
  25441136.570     4002770.586 2   3119023.182 1
  23823329.056    -5252201.067 2  -4092593.791 1
  22391151.531    -7930505.457 4  -6179579.187 3
  25212934.550    23710352.628 2  18475554.161 1
  22844026.711     9806087.552 3   7641100.327 2
  24896371.398     5604586.973 2   4367226.501 1
 91  4 23 21 46  0.0040000  0  6 16 06 02 18 19 11
  25448367.260     4040747.530 2   3148615.468 1
  23820969.682    -5264568.293 2  -4102230.536 2
  22391600.019    -7928141.932 4  -6177737.425 3
  25226551.121    23781900.368 2  18531305.888 1
  22851152.175     9843517.783 3   7670266.722 2
  24905459.305     5652337.800 2   4404434.886 2
 91  4 23 21 46 15.0040000  0  6 16 06 02 18 19 11
  25455606.046     4078812.697 2   3178276.521 1
  23818616.014    -5276929.998 2  -4111862.938 1
  22392067.694    -7925709.579 4  -6175842.048 3
  25240171.295    23853472.481 2  18587076.186 1
  22858283.338     9881006.190 3   7699478.436 2
  24914562.508     5700208.900 2   4441737.030 1
 91  4 23 21 46 30.0040000  0  6 16 06 02 18 19 11
  25462866.428     4116962.743 2   3208003.741 1
  23816268.942    -5289288.921 2  -4121493.236 2
  22392541.066    -7923211.486 4  -6173895.439 3
  25253796.259    23925065.730 2  18642862.887 1
  22865427.692     9918549.916 2   7728733.256 2
  24923692.985     5748197.194 2   4479130.493 2
 91  4 23 21 46 45.0040000  0  6 16 06 02 18 19 11
  25470148.683     4155198.705 2   3237797.836 1
  23813914.672    -5301643.909 2  -4131120.431 2
  22393030.030    -7920646.579 4  -6171896.775 3
  25267422.724    23996680.868 2  18698666.674 1
  22872579.839     9956150.252 3   7758032.205 2
  24932850.746     5796303.535 2   4516615.917 2
 91  4 23 21 47  0.0040000  0  6 16 06 02 18 19 11
  25477441.137     4193520.002 2   3267658.458 1
  23811573.891    -5313995.122 2  -4140744.709 2
  22393530.380    -7918015.049 4  -6169846.195 3
  25281050.995    24068317.184 2  18754487.426 1
  22879746.381     9993806.890 3   7787375.009 2
  24942029.796     5844527.241 2   4554192.826 2
 91  4 23 21 47 15.0040000  0  6 16 06 02 18 19 11
  25484738.679     4231923.684 2   3297583.269 1
  23809214.221    -5326345.263 2  -4150368.127 2
  22394042.430    -7915319.493 4  -6167745.716 3
  25294695.748    24139971.894 2  18810322.061 1
  22886925.209    10031517.343 3   7816759.750 2
  24951226.829     5892865.451 2   4591858.923 1
 91  4 23 21 47 30.0040000  0  6 16 06 02 18 19 11
  25492074.306     4270411.852 2   3327573.950 1
  23806871.948    -5338691.364 3  -4159988.417 1
  22394570.361    -7912557.423 4  -6165593.410 3
  25308329.411    24211647.336 2  18866172.818 1
  22894105.241    10069284.373 2   7846188.591 2
  24960440.046     5941320.525 2   4629616.103 2
 91  4 23 21 47 45.0040000  0  6 16 06 02 18 19 11
  25499407.227     4308987.279 2   3357632.575 1
  23804519.772    -5351030.430 2  -4169603.235 2
  22395105.794    -7909725.925 4  -6163387.016 3
  25321979.556    24283346.301 2  18922042.368 1
  22901307.757    10107110.975 2   7875663.850 2
  24969690.442     5989895.260 2   4667466.550 1
 91  4 23 21 48  0.0040000  0  6 16 06 02 18 19 11
  25506757.538     4347640.998 2   3387752.179 1
  23802176.600    -5363371.405 2  -4179219.659 1
  22395659.804    -7906833.936 4  -6161133.598 3
  25335619.518    24355059.429 2  18977922.904 1
  22908513.868    10144988.292 2   7905178.493 2
  24978953.427     6038580.564 2   4705402.967 1
 91  4 23 21 48 15.0040000  0  6 16 06 02 18 19 11
  25514144.721     4386378.730 2   3417937.300 1
  23799828.621    -5375707.984 2  -4188832.518 1
  22396220.715    -7903875.405 4  -6158828.228 3
  25349268.765    24426792.609 2  19033818.653 1
  22915737.063    10182922.349 2   7934737.467 2
  24988247.893     6087382.105 2   4743430.090 1
 91  4 23 21 48 30.0040000  0  6 16 06 02 18 19 11
  25521537.305     4425202.354 2   3448189.354 1
  23797482.448    -5388038.039 3  -4198440.309 1
  22396796.319    -7900848.443 4  -6156469.512 3
  25362930.305    24498547.694 2  19089731.478 1
  22922962.360    10220915.326 2   7964342.372 2
  24997548.955     6136301.794 2   4781549.302 1
 91  4 23 21 48 45.0040000  0  6 16 06 02 18 19 11
  25528932.289     4464112.498 2   3478508.822 1
  23795136.868    -5400360.227 3  -4208041.936 1
  22397388.414    -7897751.725 4  -6154056.432 2
  25376587.953    24570325.696 2  19145662.626 1
  22930205.946    10258968.515 2   7993994.221 2
  25006883.592     6185340.669 2   4819761.433 1
 91  4 23 21 49  0.0040000  0  6 16 06 02 18 19 11
  25536350.656     4503111.191 2   3508897.261 1
  23792792.789    -5412672.569 3  -4217635.891 2
  22397989.792    -7894583.299 4  -6151587.473 2
  25390245.296    24642128.140 2  19201612.398 1
  22937459.731    10297083.919 3   8023694.517 2
  25016236.219     6234500.222 2   4858067.527 1
 91  4 23 21 49 15.0040000  0  6 16 06 02 18 19 11
  25543798.400     4542196.832 2   3539353.498 1
  23790451.110    -5424976.207 2  -4227223.098 1
  22398607.067    -7891344.555 4  -6149063.741 2
  25403919.732    24713953.590 2  19257580.503 1
  22944726.700    10335260.411 2   8053442.418 2
  25025616.427     6283779.027 2   4896466.541 1
 91  4 23 21 49 30.0040000  0  6 16 06 02 18 19 11
  25551245.839     4581369.032 2   3569877.103 1
  23788113.932    -5437270.780 3  -4236803.210 2
  22399236.331    -7888035.202 4  -6146484.983 3
  25417591.166    24785802.067 2  19313566.083 1
  22952000.858    10373498.458 2   8083238.271 2
  25035011.022     6333177.030 2   4934958.535 1
 91  4 23 21 49 45.0040000  0  6 16 06 02 18 19 11
  25558716.670     4620624.557 2   3600465.760 1
  23785774.050    -5449559.169 3  -4246378.543 1
  22399875.489    -7884658.493 4  -6143853.741 3
  25431264.406    24857670.211 2  19369567.005 1
  22959284.317    10411795.007 2   8113079.704 2
  25044438.598     6382690.889 2   4973540.677 1
 91  4 23 21 50  0.0040000  0  6 16 06 02 18 19 11
  25566204.288     4659966.125 2   3631121.361 1
  23783434.770    -5461838.198 3  -4255946.622 2
  22400532.934    -7881211.201 4  -6141167.563 3
  25444951.127    24929560.971 2  19425586.011 1
  22966588.760    10450153.270 3   8142969.193 2
  25053881.155     6432323.564 2   5012215.405 1
 91  4 23 21 50 15.0040000  0  6 16 06 02 18 19 11
  25573708.091     4699396.005 2   3661845.765 1
  23781096.694    -5474105.330 3  -4265505.304 1
  22401199.969    -7877690.850 4  -6138424.351 3
  25458634.253    25001476.387 2  19481623.780 1
  22973901.902    10488575.605 3   8172908.699 2
  25063346.502     6482077.213 2   5050984.516 1
 91  4 23 21 50 30.0040000  0  6 16 06 02 18 19 11
  25581225.383     4738912.151 2   3692637.462 1
  23778772.394    -5486362.200 3  -4275056.046 2
  22401884.401    -7874099.258 4  -6135625.662 2
  25472325.179    25073414.412 2  19537679.603 1
  22981220.436    10527060.377 3   8202896.803 2
  25072840.031     6531949.781 2   5089846.257 1
 91  4 23 21 50 45.0040000  0  6 16 06 02 18 19 11
  25588758.275     4778513.396 2   3723495.463 1
  23776440.016    -5498609.615 3  -4284599.429 1
  22402582.916    -7870437.379 4  -6132772.228 2
  25486018.792    25145373.908 2  19593751.693 1
  22988557.554    10565606.882 3   8232933.015 2
  25082347.652     6581940.022 2   5128799.650 1
 91  4 23 21 51  0.0040000  0  6 16 06 02 18 19 11
  25596304.945     4818205.637 2   3754424.387 1
  23774107.332    -5510841.430 2  -4294130.658 1
  22403291.325    -7866699.203 4  -6129859.322 3
  25499711.219    25217360.645 2  19649845.033 1
  22995906.661    10604221.145 3   8263022.029 2
  25091890.949     6632053.821 2   5167849.363 1
 91  4 23 21 51 15.0040000  0  6 16 06 02 18 19 11
  25603882.501     4857982.494 2   3785419.249 1
  23771787.535    -5523063.537 3  -4303654.339 1
  22404019.819    -7862890.731 4  -6126891.679 3
  25513422.823    25289368.320 2  19705955.148 1
  23003267.468    10642897.123 2   8293159.102 2
  25101448.032     6682284.857 2   5206990.401 1
 91  4 23 21 51 30.0040000  0  6 16 06 02 18 19 11
  25611467.552     4897844.772 2   3816480.652 1
  23769456.648    -5535274.705 3  -4313169.432 1
  22404755.215    -7859011.072 4  -6123868.500 3
  25527123.042    25361397.941 2  19762082.021 1
  23010641.163    10681636.065 3   8323345.296 2
  25111029.397     6732634.004 2   5246223.521 1
 91  4 23 21 51 45.0040000  0  6 16 06 02 18 19 11
  25619075.079     4937790.975 2   3847607.349 1
  23767142.252    -5547476.112 3  -4322676.972 1
  22405506.491    -7855061.549 4  -6120790.923 3
  25540842.743    25433447.986 2  19818225.041 1
  23018018.460    10720437.126 2   8353579.858 2
  25120632.644     6783099.703 2   5285547.412 1
 91  4 23 21 52  0.0040000  0  6 16 06 02 18 19 11
  25626702.404     4977821.262 2   3878799.652 1
  23764822.158    -5559666.990 3  -4332176.296 1
  22406274.256    -7851041.314 4  -6117658.249 3
  25554549.558    25505518.672 2  19874384.266 1
  23025417.937    10759300.787 2   8383863.194 2
  25130257.486     6833682.426 2   5324962.456 1
 91  4 23 21 52 15.0040000  0  6 16 06 02 18 19 11
  25634318.927     5017939.364 2   3910060.407 1
  23762503.260    -5571843.271 3  -4341664.229 1
  22407054.622    -7846946.648 4  -6114467.537 3
  25568265.656    25577613.599 2  19930562.371 1
  23032821.611    10798230.891 2   8414198.328 2
  25139905.406     6884385.813 2   5364471.590 1
 91  4 23 21 52 30.0040000  0  6 16 06 02 18 19 11
  25641967.531     5058132.599 2   3941379.644 1
  23760182.869    -5584017.462 2  -4351150.561 2
  22407845.771    -7842790.183 4  -6111228.707 3
  25581991.657    25649720.320 2  19986749.211
  23040241.775    10837215.095 2   8444575.589 2
  25149573.411     6935197.010 2   5404064.674 1
 91  4 23 21 52 45.0040000  0  6 16 06 02 18 19 11
  25649645.217     5098407.875 2   3972762.915 1
  23757878.062    -5596182.001 3  -4360629.357 1
  22408649.214    -7838564.518 4  -6107935.950 3
  25595717.352    25721845.707 2  20042950.961 1
  23047673.325    10876260.845 2   8475000.822 2
  25159271.396     6986123.239 2   5443747.431 1
 91  4 23 21 53  0.0040000  0  6 16 06 02 18 19 11
  25657324.700     5138768.595 2   4004212.679 1
  23755560.368    -5608333.010 3  -4370097.643 2
  22409464.950    -7834265.910 4  -6104586.379 3
  25609445.447    25793993.186 2  20099169.646 1
  23055119.272    10915371.990 2   8505476.975 2
  25168978.080     7037167.882 2   5483522.408 1
 91  4 23 21 53 15.0040000  0  6 16 06 02 18 19 11
  25665012.586     5179213.799 2   4035728.294 1
  23753247.769    -5620471.017 3  -4379555.699 2
  22410300.170    -7829895.003 4  -6101180.389 3
  25623185.539    25866161.777 2  20155404.739
  23062571.213    10954547.904 2   8536003.691 2
  25178720.135     7088330.014 2   5523389.071 1
 91  4 23 21 53 30.0040000  0  6 16 06 02 18 19 11
  25672729.238     5219739.227 2   4067306.338 1
  23750938.468    -5632600.212 3  -4389006.987 2
  22411141.986    -7825456.086 4  -6097721.459 3
  25636906.436    25938347.213 2  20211653.259 1
  23070035.745    10993784.463 2   8566577.585 2
  25188469.388     7139605.103 2   5563343.655 1
 91  4 23 21 53 45.0040000  0  6 16 06 02 18 19 11
  25680455.793     5260344.684 2   4098946.840 1
  23748633.966    -5644720.325 3  -4398451.156 2
  22411999.097    -7820949.160 4  -6094209.537 3
  25650654.922    26010549.379 2  20267914.907 1
  23077517.063    11033081.887 2   8597198.920 2
  25198254.013     7190993.052 2   5603386.196 1
 91  4 23 21 54  0.0040000  0  6 16 06 02 18 19 11
  25688195.235     5301034.032 2   4130652.688 1
  23746333.652    -5656826.817 3  -4407884.732 2
  22412872.690    -7816369.843 4  -6090641.211 3
  25664401.008    26082772.047 2  20324192.095 1
  23085006.784    11072444.621 3   8627871.126 2
  25208045.836     7242497.883 2   5643519.804 1
 91  4 23 21 54 15.0040000  0  6 16 06 02 18 19 11
  25695954.762     5341798.396 2   4162416.988 1
  23744026.149    -5668928.262 3  -4417314.375 1
  22413751.387    -7811726.730 4  -6087023.157 3
  25678151.588    26155006.602 2  20380478.977 1
  23092505.788    11111864.023 2   8658587.529 2
  25217878.423     7294110.729 2   5683737.601 1
 91  4 23 21 54 30.0040000  0  6 16 06 02 18 19 11
  25703717.587     5382642.751 2   4194243.659 1
  23741727.345    -5681018.988 3  -4426735.649 2
  22414651.356    -7807014.424 4  -6083351.187 3
  25691894.070    26227258.263 2  20436778.727 1
  23100022.487    11151345.777 2   8689352.495 2
  25227714.919     7345836.857 2   5724043.639 1
 91  4 23 21 54 45.0040000  0  6 16 06 02 18 19 11
  25711519.388     5423565.714 2   4226131.529 1
  23739422.843    -5693100.275 3  -4436149.573 1
  22415561.830    -7802234.386 4  -6079626.448 3
  25705635.960    26299525.502 2  20493091.097 1
  23107547.876    11190888.549 2   8720165.015 2
  25237573.891     7397674.631 2   5764436.728 1
 91  4 23 21 55  0.0040000  0  6 16 06 02 18 19 11
  25719320.883     5464565.749 2   4258079.495 1
  23737126.726    -5705173.249 3  -4445557.016 2
  22416486.089    -7797388.002 4  -6075850.004 3
  25719409.024    26371806.612 2  20549414.237 1
  23115084.058    11230491.048 2   8751024.080 2
  25247468.845     7449622.498 2   5804915.527 1
 91  4 23 21 55 15.0040000  0  6 16 06 02 18 19 11
  25727130.178     5505636.508 2   4290082.529 1
  23734830.617    -5717243.874 3  -4454962.633 2
  22417419.047    -7792481.132 4  -6072026.429 3
  25733158.103    26444095.355 2  20605742.906 1
  23122628.040    11270147.352 2   8781925.063 2
  25257373.388     7501674.079 2   5845475.174 1
 91  4 23 21 55 30.0040000  0  6 16 06 02 18 19 11
  25734966.451     5546785.387 2   4322146.409 1
  23732534.805    -5729304.031 2  -4464360.105 2
  22418366.385    -7787505.799 4  -6068149.502 3
  25746921.875    26516399.468 2  20662083.939 1
  23130191.200    11309865.565 2   8812874.292 2
  25267303.713     7553837.141 2   5886121.681 1
 91  4 23 21 55 45.0050000  0  6 16 06 02 18 19 11
  25742812.622     5588010.410 2   4354269.676 1
  23730241.100    -5741359.402 2  -4473753.837 2
  22419319.728    -7782466.634 4  -6064222.850 3
  25760669.456    26588718.447 2  20718436.152 1
  23137754.965    11349643.406 3   8843869.973 2
  25277248.125     7606109.950 2   5926853.698 1
 91  4 23 21 56  0.0050000  0  6 16 06 02 18 19 11
  25750669.583     5629307.779 2   4386449.336 1
  23727950.078    -5753405.789 2  -4483140.555 2
  22420293.451    -7777362.049 4  -6060245.199 3
  25774438.027    26661044.855 2  20774794.623 1
  23145337.913    11389478.137 2   8874909.988 2
  25287214.729     7658487.624 2   5967667.466 1
 91  4 23 21 56 15.0050000  0  6 16 06 02 18 19 11
  25758539.430     5670678.365 2   4418685.985 1
  23725661.168    -5765445.256 3  -4492521.920 1
  22421276.177    -7772193.123 4  -6056217.443 3
  25788209.896    26733381.966 2  20831161.436 1
  23152924.465    11429371.072 2   8905995.340 2
  25297204.412     7710971.954 2   6008564.313 1
 91  4 23 21 56 30.0050000  0  6 16 06 02 18 19 11
  25766418.579     5712122.097 2   4450979.721 1
  23723362.660    -5777477.794 3  -4501897.871 2
  22422271.782    -7766960.053 4  -6052139.702 3
  25801979.365    26805729.245 2  20887535.692 1
  23160536.791    11469322.065 2   8937125.949 2
  25307212.679     7763562.618 2   6049544.022 1
 91  4 23 21 56 45.0050000  0  6 16 06 02 18 19 11
  25774335.202     5753634.690 2   4483327.123 1
  23721079.735    -5789507.476 3  -4511271.587 2
  22423279.383    -7761666.982 4  -6048015.185 3
  25815751.226    26878082.299 2  20943914.898 1
  23168140.732    11509326.967 2   8968298.565 2
  25317235.639     7816255.130 2   6090603.068 1
 91  4 23 21 57  0.0050000  0  6 16 06 02 18 19 11
  25782226.635     5795222.052 1   4515732.646 1
  23718793.818    -5801527.362 3  -4520637.691 2
  22424299.584    -7756307.243 4  -6043838.728 3
  25829516.202    26950447.766 2  21000303.333 1
  23175768.650    11549392.708 2   8999518.587 2
  25327282.890     7869055.945 2   6131746.518 1
 91  4 23 21 57 15.0050000  0  6 16 06 02 18 19 11
  25790155.543     5836891.562 2   4548202.212 1
  23716507.002    -5813530.015 3  -4529990.331 2
  22425336.267    -7750873.684 4  -6039604.743 3
  25843289.562    27022832.504 2  21056706.790 1
  23183398.365    11589526.792 2   9030791.866 2
  25337350.819     7921972.153 2   6172979.877 1
 91  4 23 21 57 30.0050000  0  6 16 06 02 18 19 11
  25798113.837     5878639.623 2   4580733.097 1
  23714227.986    -5825518.546 3  -4539331.978 1
  22426380.741    -7745369.433 4  -6035315.676 3
  25857065.323    27095233.083 2  21113123.040 1
  23191058.068    11629725.975 2   9062115.877 2
  25347441.529     7975000.207 2   6214300.426 1
 91  4 23 21 57 45.0050000  0  6 16 06 02 18 19 11
  25806083.220     5920458.161 2   4613319.167 1
  23711951.361    -5837500.480 3  -4548668.501 2
  22427441.409    -7739802.100 4  -6030977.476 3
  25870843.788    27167641.795 2  21169545.643 1
  23198709.971    11669982.634 2   9093484.648 2
  25357557.133     8028132.172 2   6255701.894 1
 91  4 23 21 58  0.0050000  0  6 16 06 02 18 19 11
  25814043.006     5962345.393 2   4645958.503 1
  23709665.740    -5849477.412 3  -4558001.132 1
  22428515.566    -7734173.558 4  -6026591.576 2
  25884623.745    27240056.465 2  21225972.411 1
  23206383.757    11710295.038 2   9124896.895 2
  25367683.215     8081366.101 2   6297182.856 1
 91  4 23 21 58 15.0050000  0  6 16 06 02 18 19 11
  25822035.180     6004300.280 2   4678650.461 1
  23707393.913    -5861449.685 3  -4567330.113 2
  22429598.413    -7728484.275 4  -6022158.320 3
  25898404.304    27312476.525 2  21282403.411 1
  23214067.437    11750663.056 2   9156352.449 2
  25377831.494     8134701.306 2   6338742.714 1
 91  4 23 21 58 30.0050000  0  6 16 06 02 18 19 11
  25830025.844     6046318.920 2   4711392.221 1
  23705110.395    -5873420.711 3  -4576658.129 2
  22430690.255    -7722737.813 4  -6017680.525 3
  25912191.163    27384897.981 2  21338835.870 1
  23221757.713    11791083.024 2   9187848.516 2
  25388005.546     8188133.754 2   6380378.360 1
 91  4 23 21 58 45.0050000  0  6 16 06 02 18 19 11
  25838038.696     6088403.089 2   4744184.884 1
  23702833.770    -5885388.410 3  -4585983.536 2
  22431794.688    -7716932.359 4  -6013156.743 3
  25925972.324    27457322.519 2  21395270.463 1
  23229456.679    11831556.970 2   9219386.624 2
  25398190.096     8241665.093 2   6422091.080 1
 91  4 23 21 59  0.0050000  0  6 16 06 02 18 19 11
  25846059.348     6130548.201 2   4777025.023 1
  23700552.652    -5897357.151 2  -4595309.781 2
  22432910.516    -7711072.224 4  -6008590.381 3
  25939742.387    27529745.359 2  21451704.029 1
  23237175.434    11872080.663 2   9250963.483 2
  25408396.833     8295290.703 2   6463877.205 1
 91  4 23 21 59 15.0050000  0  6 16 06 02 18 19 11
  25854090.488     6172758.635 2   4809916.083 1
  23698275.721    -5909322.164 2  -4604633.131 2
  22434036.239    -7705153.028 4  -6003977.999 3
  25953531.348    27602171.063 2  21508139.529 1
  23244895.096    11912658.553 2   9282582.595 2
  25418619.755     8349014.832 2   6505740.139 1
 91  4 23 21 59 30.0050000  0  6 16 06 02 18 19 11
  25862126.121     6215035.063 2   4842858.610 1
  23696007.795    -5921281.828 3  -4613952.282 2
  22435173.356    -7699173.358 4  -5999318.482 3
  25967312.204    27674600.665 2  21564578.359 1
  23252620.744    11953292.153 2   9314245.077 2
  25428853.767     8402838.573 2   6547680.626 1
 91  4 23 21 59 45.0050000  0  6 16 06 02 18 19 11
  25870195.634     6257380.444 2   4875854.877 1
  23693731.475    -5933232.855 3  -4623264.767 2
  22436319.757    -7693129.856 4  -5994609.264 3
  25981101.758    27747037.191 2  21621022.556 1
  23260369.182    11993984.840 2   9345953.600 2
  25439119.861     8456765.033 2   6589701.175 1
 91  4 23 22  0  0.0050000  0  6 16 06 02 18 19 11
  25878268.149     6299786.672 2   4908898.482 1
  23691453.951    -5945183.208 3  -4632576.673 2
  22437484.751    -7687030.769 4  -5989856.678 3
  25994887.413    27819472.572 2  21677465.936 1
  23268124.215    12034728.754 2   9377702.100 2
  25449402.445     8510785.847 2   6631795.303 1
 91  4 23 22  0 15.0050000  0  6 16 06 02 18 19 11
  25886336.161     6342258.996 2   4941993.786 1
  23689179.420    -5957126.873 3  -4641883.371 2
  22438656.341    -7680870.354 4  -5985056.325 3
  26008671.270    27891912.069 2  21733912.079 1
  23275887.337    12075529.444 2   9409494.813 2
  25459699.417     8564906.403 2   6673967.128 1
 91  4 23 22  0 30.0050000  0  6 16 06 02 18 19 11
  25894426.658     6384797.252 2   4975140.306 1
  23686910.595    -5969063.678 3  -4651184.710 2
  22439840.225    -7674648.690 4  -5980208.234 3
  26022463.224    27964355.261 2  21790361.547 1
  23283660.659    12116387.195 2   9441331.991 2
  25470013.778     8619126.544 2   6716216.533 1
 91  4 23 22  0 45.0050000  0  6 16 06 02 18 19 11
  25902536.646     6427401.953 2   5008338.564 1
  23684643.864    -5980993.024 3  -4660480.248 2
  22441035.198    -7668365.143 4  -5975311.938 3
  26036235.686    28036802.340 2  21846813.605 1
  23291449.267    12157302.692 2   9473214.162 2
  25480357.517     8673446.520 2   6758543.744 1
 91  4 23 22  1  0.0050000  0  6 16 06 02 18 19 11
  25910667.916     6470071.047 2   5041587.032 1
  23682376.234    -5992916.117 3  -4669770.942 2
  22442244.559    -7662021.161 4  -5970368.585 3
  26050028.539    28109251.928 2  21903268.049 1
  23299245.972    12198274.649 2   9505140.303 2
  25490715.041     8727864.591 2   6800947.338 1
 91  4 23 22  1 15.0050000  0  6 16 06 02 18 19 11
  25918786.001     6512802.776 2   5074884.398 1
  23680104.408    -6004834.379 3  -4679057.856 2
  22443459.016    -7655618.443 4  -5965379.395 3
  26063815.092    28181702.348 2  21959723.103 1
  23307055.564    12239301.461 2   9537109.226 2
  25501076.169     8782378.787 2   6843425.864 1
 91  4 23 22  1 30.0050000  0  6 16 06 02 18 19 11
  25926940.348     6555599.946 2   5108232.706 1
  23677837.974    -6016744.662 3  -4688338.477 2
  22444693.558    -7649153.819 4  -5960341.955 3
  26077594.753    28254156.291 1  22016180.931 1
  23314872.651    12280386.235 2   9569123.367 1
  25511473.576     8836992.083 2   6885981.755 1
 91  4 23 22  1 45.0050000  0  6 16 06 02 18 19 11
  25935091.110     6598465.400 2   5141634.200 1
  23675575.439    -6028643.278 3  -4697610.120 2
  22445931.101    -7642624.022 4  -5955253.797 3
  26091389.708    28326617.073 2  22072644.043 1
  23322699.928    12321532.461 2   9601185.291 2
  25521884.463     8891707.624 2   6928617.166 1
 91  4 23 22  2  0.0050000  0  6 16 06 02 18 19 11
  25943258.658     6641398.207 2   5175088.113 1
  23673316.805    -6040531.004 3  -4706873.244 1
  22447187.534    -7636029.974 4  -5950115.542 3
  26105181.357    28399083.368 2  22129111.049 1
  23330544.002    12362739.207 2   9633294.401 2
  25532320.243     8946524.162 2   6971331.369 1
 91  4 23 22  2 15.0050000  0  6 16 06 02 18 19 11
  25951449.886     6684396.016 2   5208592.752 1
  23671055.170    -6052409.854 3  -4716129.424 2
  22448455.956    -7629373.958 4  -5944928.984 3
  26118970.310    28471552.659 2  22185580.396 1
  23338399.165    12404004.375 2   9665449.067 2
  25542767.113     9001439.158 2   7014122.193 1
 91  4 23 22  2 30.0050000  0  6 16 06 02 18 19 11
  25959647.710     6727459.282 2   5242148.331 1
  23668790.533    -6064278.928 3  -4725378.060 2
  22449731.575    -7622655.137 4  -5939693.556 3
  26132754.472    28544025.573 2  22242052.556 1
  23346256.719    12445329.052 2   9697650.037 2
  25553237.959     9056453.173 2   7056990.168 1
 91  4 23 22  2 45.0050000  0  6 16 06 02 18 19 11
  25967835.640     6770587.503 2   5275754.603 1
  23666528.906    -6076138.129 2  -4734618.920 2
  22451023.982    -7615873.399 4  -5934409.021 3
  26146554.515    28616502.090 2  22298527.975 1
  23354132.569    12486713.313 2   9729897.519 1
  25563720.209     9111566.034 2   7099935.254 1
 91  4 23 22  3  0.0050000  0  6 16 06 02 18 19 11
  25976068.243     6813780.999 2   5309411.687 1
  23664278.963    -6087986.350 3  -4743851.260 1
  22452326.580    -7609028.097 4  -5929075.013 3
  26160349.165    28688982.454 2  22355005.938 1
  23362018.009    12528157.816 2   9762191.881 2
  25574230.928     9166778.184 2   7142957.657 1
 91  4 23 22  3 15.0050000  0  6 16 06 02 18 19 11
  25984286.755     6857039.711 2   5343119.653 1
  23662030.519    -6099823.459 3  -4753074.906 2
  22453642.064    -7602119.092 4  -5923691.338 3
  26174154.913    28761466.645 2  22411487.310 1
  23369919.642    12569662.721 2   9794533.356 1
  25584762.938     9222089.412 2   7186057.272 1
 91  4 23 22  3 30.0050000  0  6 16 06 02 18 19 11
  25992549.633     6900361.520 2   5376876.689 1
  23659773.081    -6111651.163 3  -4762291.259 2
  22454965.349    -7595148.400 4  -5918259.612 3
  26187932.174    28833952.512 2  22467970.045 1
  23377834.162    12611226.281 2   9826920.495 2
  25595299.746     9277497.590 2   7229232.434 1
 91  4 23 22  3 45.0050000  0  6 16 06 02 18 19 11
  26000803.822     6943746.248 2   5410682.779 1
  23657528.538    -6123468.979 3  -4771499.904 2
  22456305.125    -7588115.720 4  -5912779.574 3
  26201725.027    28906440.001 2  22524454.040 1
  23385752.879    12652848.901 2   9859353.662 2
  25605857.232     9333002.549 2   7272482.970 1
 91  4 23 22  4  0.0050000  0  6 16 06 02 18 19 11
  26009072.992     6987194.705 2   5444538.596 1
  23655280.391    -6135275.738 3  -4780699.950 2
  22457655.091    -7581020.068 4  -5907250.466 3
  26215524.467    28978930.153 2  22580940.078 1
  23393682.694    12694531.794 2   9891833.799 2
  25616443.206     9388605.098 2   7315809.595 1
 91  4 23 22  4 15.0050000  0  6 16 06 02 18 19 11
  26017354.158     7030711.858 2   5478447.910 1
  23653037.044    -6147066.109 3  -4789887.186 2
  22459020.047    -7573856.289 4  -5901668.266 3
  26229323.916    29051427.733 2  22637431.508 1
  23401631.687    12736280.189 2   9924365.009 1
  25627042.965     9444310.193 2   7359216.173 1
 91  4 23 22  4 30.0050000  0  6 16 06 02 18 19 11
  26025652.714     7074288.457 2   5512403.942 1
  23650795.493    -6158849.000 3  -4799068.605 2
  22460394.592    -7566633.692 4  -5896040.232 3
  26243121.262    29123923.108 2  22693921.547 1
  23409577.085    12778084.947 2   9956940.109 1
  25637665.515     9500108.382 2   7402695.219 1
 91  4 23 22  4 45.0050000  0  6 16 06 02 18 19 11
  26033952.474     7117927.264 2   5546408.028 1
  23648555.749    -6170621.203 3  -4808241.713 2
  22461782.032    -7559349.025 4  -5890363.853 3
  26256909.622    29196419.319 2  22750411.883 1
  23417554.566    12819949.250 2   9989561.601 2
  25648302.147     9556002.544 2   7446249.052 1
 91  4 23 22  5  0.0050000  0  6 16 06 02 18 19 11
  26042272.912     7161631.720 2   5580463.252 1
  23646314.801    -6182378.815 3  -4817403.420 2
  22463179.062    -7551998.409 4  -5884636.084 3
  26270714.463    29268920.221 2  22806906.304 1
  23425523.347    12861876.895 2  10022232.465 2
  25658957.677     9611996.045 2   7489880.371 1
 91  4 23 22  5 15.0050000  0  6 16 06 02 18 19 11
  26050584.651     7205393.802 2   5614563.559 1
  23644076.549    -6194129.219 3  -4826559.519 2
  22464587.190    -7544589.611 4  -5878862.953 3
  26284503.721    29341417.697 2  22863397.620 1
  23433513.715    12903860.440 2  10054946.889 2
  25669625.484     9668081.029 2   7533582.880 1
 91  4 23 22  5 30.0050000  0  6 16 06 02 18 19 11
  26058925.480     7249214.149 2   5648709.077 1
  23641849.090    -6205871.426 3  -4835709.233 2
  22466007.009    -7537121.932 4  -5873043.952 3
  26298300.465    29413912.679 2  22919887.404 1
  23441523.269    12945900.759 2  10087705.560 2
  25680317.590     9724258.119 2   7577357.213 1
 91  4 23 22  5 45.0050000  0  6 16 06 02 18 19 11
  26067279.798     7293094.607 2   5682901.537 1
  23639612.041    -6217602.904 3  -4844850.573 2
  22467441.217    -7529592.839 4  -5867177.096 3
  26312099.914    29486407.016 2  22976376.271 1
  23449524.734    12988000.350 2  10120510.400 2
  25691025.576     9780529.368 2   7621204.891 1
 91  4 23 22  6  0.0050000  0  6 16 06 02 18 19 11
  26075652.701     7337031.835 2   5717138.148 1
  23637385.176    -6229326.325 3  -4853985.665 2
  22468885.318    -7522005.391 4  -5861264.786 3
  26325890.062    29558897.444 2  23032862.518 1
  23457545.980    13030156.394 2  10153359.226 2
  25701756.047     9836891.380 2   7665123.303 1
 91  4 23 22  6 15.0050000  0  6 16 06 02 18 19 11
  26084024.102     7381025.794 2   5751418.935 1
  23635157.725    -6241041.653 3  -4863114.411 2
  22470342.603    -7514359.734 4  -5855307.088 3
  26339686.518    29631383.627 2  23089345.476 1
  23465583.716    13072369.017 2  10186252.141 2
  25712489.213     9893344.075 2   7709112.400 1
 91  4 23 22  6 30.0050000  0  7 16 06 02 18 19 11 15
  26092408.705     7425073.508 2   5785741.735 1
  23632928.765    -6252751.293 3  -4872238.747 2
  22471806.493    -7506658.372 4  -5849306.005 3
  26353482.660    29703862.937 2  23145823.099 1
  23473617.849    13114635.553 2  10219187.058 2
  25723252.961     9949884.668 2   7753169.936 1
  26376884.162           0.678 2         0.144 1
 91  4 23 22  6 45.0050000  0  7 16 06 02 18 19 11 15
  26100782.201     7469171.951 2   5820103.968 1
  23630700.407    -6264457.736 3  -4881360.553 2
  22473284.169    -7498904.056 4  -5843263.624 3
  26367277.616    29776332.395 2  23202293.021 1
  23481680.774    13156953.219 2  10252161.850 2
  25734028.401    10006509.992 2   7797293.560 1
  26374021.148      -15047.082 2    -11725.306 1
 91  4 23 22  7  0.0050000  0  7 16 06 02 18 19 11 15
  26109188.381     7513323.979 2   5854507.998 1
  23628472.049    -6276157.574 3  -4890477.247 2
  22474769.340    -7491093.803 4  -5837177.681 3
  26381056.674    29848795.240 2  23258757.810 1
  23489742.792    13199325.525 2  10285179.200 2
  25744818.533    10063223.091 2   7841485.591 1
  26371164.425      -30056.493 2    -23420.869 1
 91  4 23 22  7 15.0050000  0  7 16 06 02 18 19 11 15
  26117605.956     7557521.240 2   5888947.201 1
  23626246.989    -6287858.532 3  -4899594.835 2
  22476264.404    -7483235.177 4  -5831054.091 3
  26394848.026    29921243.124 2  23315210.908 1
  23497814.399    13241744.738 2  10318233.077 2
  25755629.345    10120015.740 2   7885739.476 1
  26368310.102      -45034.409 2    -35091.755 1
 91  4 23 22  7 30.0050000  0  7 16 06 02 18 19 11 15
  26126008.838     7601765.472 2   5923423.456 1
  23624021.633    -6299558.688 3  -4908711.789 2
  22477771.466    -7475326.500 4  -5824891.468 3
  26408631.884    29993677.218 2  23371652.859 1
  23505899.207    13284212.532 2  10351324.817 2
  25766451.560    10176889.301 2   7930056.517 1
  26365477.661      -59978.669 2    -46736.438 1
 91  4 23 22  7 45.0050000  0  7 16 06 02 18 19 11 15
  26134453.391     7646054.878 2   5957934.540 1
  23621793.572    -6311259.343 3  -4917829.112 2
  22479282.114    -7467369.391 4  -5818691.088 3
  26422414.545    30066096.137 2  23428083.411 1
  23513988.203    13326727.464 2  10384453.306 2
  25777294.453    10233842.130 2   7974435.261 1
  26362635.326      -74890.494 2    -58355.795 1
 91  4 23 22  8  0.0050000  0  7 16 06 02 18 19 11 15
  26142889.855     7690377.140 2   5992471.125 1
  23619560.720    -6322972.497 3  -4926956.204 2
  22480803.860    -7459376.090 4  -5812462.515 3
  26436180.717    30138487.645 2  23484492.554 1
  23522083.499    13369277.477 2  10417609.103 2
  25788139.746    10290861.710 2   8018866.062 1
  26359795.390      -89781.708 2    -69959.229 1
 91  4 23 22  8 15.0050000  0  7 16 06 02 18 19 11 15
  26151320.021     7734740.242 2   6027039.759 1
  23617332.659    -6334689.465 3  -4936086.206 2
  22482334.306    -7451338.016 4  -5806199.016 3
  26449963.972    30210859.693 1  23540886.167 1
  23530184.789    13411871.180 2  10450799.008 2
  25799007.820    10347956.188 2   8063355.284 1
  26356973.149     -104643.409 2    -81539.551 1
 91  4 23 22  8 30.0050000  0  7 16 06 02 18 19 11 15
  26159778.359     7779144.329 2   6061640.108 1
  23615101.003    -6346409.642 3  -4945218.775 2
  22483871.644    -7443254.686 4  -5799900.310 3
  26463727.142    30283212.860 2  23597265.010 1
  23538304.671    13454509.299 2  10484023.458 2
  25809886.085    10405125.820 2   8107902.972 1
  26354142.506     -119474.473 2    -93096.454 1
 91  4 23 22  8 45.0050000  0  7 16 06 02 18 19 11 15
  26168226.813     7823585.674 2   6096269.634 1
  23612874.146    -6358136.122 3  -4954356.200 2
  22485419.766    -7435129.539 4  -5793569.011 3
  26477494.814    30355543.105 1  23653625.992 1
  23546421.248    13497188.363 2  10517279.822 2
  25820775.152    10462366.981 2   8152506.431 1
  26351332.549     -134277.839 2   -104631.421 1
 91  4 23 22  9  0.0050000  0  6 16 06 02 19 11 15
  26176680.361     7868068.449 2   6130931.287 1
  23610642.795    -6369864.664 3  -4963495.280 2
  22486970.296    -7426958.541 4  -5787201.980 3
  23554563.319    13539912.679 2  10550571.456 2
  25831678.301    10519683.623 2   8197168.678 1
  26348513.903     -149048.897 2   -116141.214 1
 91  4 23 22  9 15.0050000  0  6 16 06 02 19 11 15
  26185159.090     7912596.703 1   6165628.432 1
  23608407.841    -6381590.499 3  -4972632.211 1
  22488537.910    -7418737.123 4  -5780795.617 3
  23562693.087    13582686.731 2  10583901.883 2
  25842605.139    10577079.945 2   8241893.058 1
  26345731.230     -163782.692 2   -127622.284 1
 91  4 23 22  9 30.0050000  0  6 16 06 02 19 11 15
  26193659.109     7957166.368 2   6200357.892 1
  23606177.084    -6393317.258 3  -4981769.909 2
  22490108.526    -7410468.918 4  -5774352.846 3
  23570841.449    13625506.780 2  10617268.099 2
  25853539.768    10634551.894 2   8286676.334 1
  26342929.667     -178482.526 2   -139076.557 1
 91  4 23 22  9 45.0050000  0  6 16 06 02 19 11 15
  26202140.534     8001779.695 2   6235121.330 1
  23603947.225    -6405041.782 3  -4990905.825 2
  22491692.325    -7402151.207 4  -5767871.469 3
  23578995.499    13668375.780 2  10650672.496 2
  25864487.590    10692101.980 2   8331520.533 1
  26340133.209     -193145.386 2   -150502.408 1
 91  4 23 22 10  0.0050000  0  6 16 06 02 19 11 15
  26210644.749     8046433.651 2   6269916.861 1
  23601713.475    -6416767.126 3  -5000042.425 2
  22493283.925    -7393787.267 4  -5761354.120 3
  23587166.642    13711290.776 2  10684112.684 2
  25875453.097    10749726.786 2   8376422.929 1
  26337339.743     -207773.959 2   -161901.227 1
 91  4 23 22 10 15.0050000  0  6 16 06 02 19 11 15
  26219154.060     8091130.461 2   6304745.414 1
  23599483.015    -6428490.451 3  -5009177.388 2
  22494883.918    -7385374.339 4  -5754798.539 3
  23595338.387    13754254.567 2  10717590.926 2
  25886429.999    10807428.679 2   8421385.405 1
  26334551.966     -222365.229 2   -173271.287 1
 91  4 23 22 10 30.0050000  0  6 16 06 02 19 11 15
  26227668.161     8135871.586 2   6339608.448 1
  23597261.558    -6440209.731 3  -5018309.231 2
  22496495.602    -7376910.528 4  -5748203.337 3
  23603529.615    13797268.893 2  10751108.540 2
  25897430.582    10865209.089 2   8466409.029 1
  26331793.881     -236916.713 2   -184609.903 1
 91  4 23 22 10 45.0050000  0  6 16 06 02 19 11 15
  26236184.670     8180657.322 2   6374506.183 1
  23595031.700    -6451924.191 3  -5027437.331 2
  22498115.977    -7368395.456 4  -5741568.201 3
  23611720.844    13840334.633 2  10784666.215 2
  25908441.957    10923068.370 2   8511494.132 1
  26329034.888     -251427.321 2   -195917.117 1
 91  4 23 22 11  0.0050000  0  6 16 06 02 19 11 15
  26244720.357     8225492.282 2   6409442.329 1
  23592797.950    -6463628.731 3  -5036557.678 2
  22499745.653    -7359824.218 4  -5734889.271 3
  23619925.264    13883456.669 2  10818267.766 2
  25919462.633    10981011.222 2   8556644.383 1
  26326286.688     -265891.874 2   -207188.128 1
 91  4 23 22 11 15.0050000  0  6 16 06 02 19 11 15
  26253256.349     8270374.253 2   6444415.093 1
  23590573.789    -6475325.171 3  -5045671.751 1
  22501388.512    -7351198.759 4  -5728168.128 3
  23628144.378    13926633.198 2  10851911.747 1
  25930505.786    11039035.292 2   8601857.863 1
  26323548.984     -280311.758 2   -218424.305 1
 91  4 23 22 11 30.0050000  0  6 16 06 02 19 11 15
  26261802.235     8315301.929 2   6479423.553 1
  23588348.127    -6487014.191 3  -5054780.018 1
  22503041.572    -7342520.062 4  -5721405.463 3
  23636374.581    13969863.280 2  10885597.503 1
  25941567.226    11097139.322 2   8647133.697 1
  26320813.078     -294687.662 2   -229626.542 1
 91  4 23 22 11 45.0050000  0  6 16 06 02 19 11 15
  26270375.100     8360281.423 2   6514472.346 1
  23586123.669    -6498689.303 3  -5063877.448 2
  22504701.218    -7333781.957 4  -5714596.500 3
  23644608.082    14013153.162 2  10919329.838 2
  25952642.460    11155329.370 2   8692476.550 1
  26318076.579     -309012.925 1   -240788.913 1
 91  4 23 22 12  0.0050000  0  6 16 06 02 19 11 15
  26278915.289     8405311.669 1   6549561.098 1
  23583906.401    -6510351.085 3  -5072964.512 2
  22506376.457    -7324985.056 4  -5707741.763 3
  23652858.065    14056502.269 2  10953108.298 2
  25963733.583    11213604.488 2   8737885.691 1
  26315347.565     -323287.957 2   -251912.234 1
 91  4 23 22 12 15.0050000  0  6 16 06 02 19 11 15
  26287498.946     8450384.453 2   6584682.500 1
  23581688.836    -6522007.226 3  -5082047.188 2
  22508064.294    -7316137.275 4  -5700847.357 3
  23661115.247    14099902.753 2  10986926.815 2
  25974833.396    11271956.450 2   8783354.712 1
  26312647.929     -337519.993 1   -263002.000 1
 91  4 23 22 12 30.0050000  0  6 16 06 02 19 11 15
  26296104.486     8495502.793 2   6619839.464 1
  23579473.374    -6533654.215 3  -5091122.732 2
  22509755.124    -7307235.418 4  -5693910.826 3
  23669385.324    14143357.876 2  11020787.887 2
  25985950.903    11330388.193 2   8828885.850 1
  26309955.797     -351705.309 1   -274055.257 1
 91  4 23 22 12 45.0050000  0  6 16 06 02 19 11 15
  26304705.533     8540667.729 2   6655032.695 1
  23577257.606    -6545290.443 3  -5100189.868 2
  22511459.740    -7298278.180 4  -5686931.141 3
  23677666.796    14186869.241 2  11054692.817 2
  25997091.786    11388900.879 2   8874480.124 1
  26307267.556     -365841.997 1   -285070.713 1
 91  4 23 22 13  0.0050000  0  5 16 06 02 19 11
  26313305.375     8585874.527 2   6690258.701 1
  23575043.636    -6556919.765 3  -5109251.622 2
  22513174.250    -7289269.439 4  -5679911.316 3
  23685955.754    14230433.123 2  11088638.632 2
  26008238.967    11447490.347 2   8920134.203 1
 91  4 23 22 13 15.0050000  0  5 16 06 02 19 11
  26321898.630     8631120.564 2   6725515.147 1
  23572832.964    -6568544.962 3  -5118310.146 2
  22514898.663    -7280212.211 4  -5672853.693 3
  23694250.409    14274046.431 2  11122622.998 1
  26019406.836    11506153.124 2   8965845.436 1
 91  4 23 22 13 30.0050000  0  5 16 06 02 19 11
  26330525.154     8676405.955 2   6760802.601 1
  23570620.503    -6580165.154 3  -5127364.817 2
  22516629.664    -7271105.985 4  -5665757.908 3
  23702560.360    14317709.715 2  11156646.294 1
  26030585.803    11564889.486 2   9011613.899 1
 91  4 23 22 13 45.0050000  0  5 16 06 02 19 11
  26339153.187     8721726.614 2   6796117.341 1
  23568405.931    -6591783.804 3  -5136418.252 2
  22518371.754    -7261954.248 4  -5658626.647 3
  23710884.393    14361419.541 2  11190705.856 2
  26041766.559    11623695.594 2   9057436.839 1
 91  4 23 22 14  0.0050000  0  6 16 06 02 19 11 15
  26347780.610     8767083.182 2   6831459.954 1
  23566196.166    -6603400.098 3  -5145469.877 2
  22520120.745    -7252756.480 4  -5651459.535 3
  23719198.837    14405176.647 2  11224802.245 2
  26052974.904    11682571.887 2   9103314.451 1
  26293929.788       -5182.06412     -4036.863
 91  4 23 22 14 15.0050000  0  6 16 06 02 19 11 15
  26356419.733     8812477.620 2   6866832.058 1
  23563992.683    -6615011.201 3  -5154517.419 2
  22521879.631    -7243510.093 4  -5644254.519 3
  23727548.662    14448983.784 2  11258937.634 1
  26064188.937    11741520.752 2   9149248.583 1
  26291289.221      -19061.581 2    -14851.962 1
 91  4 23 22 14 30.0050000  0  6 16 06 02 19 11 15
  26365057.050     8857904.299 2   6902229.250 1
  23561779.324    -6626622.494 3  -5163565.156 2
  22523645.707    -7234220.675 4  -5637015.993 3
  23735889.185    14492835.352 2  11293107.638 2
  26075421.258    11800536.284 2   9195234.685 1
  26288664.533      -32901.844 2    -25636.425 1
 91  4 23 22 14 45.0050000  0  6 16 06 02 19 11 15
  26373715.952     8903356.839 2   6937646.630 1
  23559571.348    -6638239.641 3  -5172617.418 2
  22525423.771    -7224894.117 4  -5629748.516 3
  23744240.502    14536725.581 2  11327307.780 2
  26086659.879    11859612.224 2   9241267.817 1
  26286035.353      -46708.383 2    -36394.597 1
 91  4 23 22 15  0.0050000  0  5 06 02 19 11 15
  23557359.480    -6649860.008 3  -5181672.189 2
  22527202.140    -7215528.146 4  -5622450.321 3
  23752599.017    14580656.943 2  11361539.968 1
  26097916.186    11918750.648 2   9287349.668 1
  26283412.768      -60478.425 2    -47124.412 1
 91  4 23 22 15 15.0050000  0  5 06 02 19 11 15
  23555148.512    -6661486.884 3  -5190732.035 2
  22528995.499    -7206126.134 4  -5615124.037 3
  23760965.628    14624626.064 2  11395801.597 2
  26109180.589    11977947.780 2   9333477.253 1
  26280795.881      -74214.838 2    -57827.865 1
 91  4 23 22 15 30.0050000  0  5 06 02 19 11 15
  23552935.143    -6673120.462 3  -5199797.103 2
  22530793.054    -7196688.366 4  -5607769.911 3
  23769343.626    14668632.608 2  11430092.348 1
  26120467.774    12037203.028 2   9379650.083 1
  26278193.085      -87917.359 2    -68504.976 1
 91  4 23 22 15 45.0050000  0  5 06 02 19 11 15
  23550718.477    -6684762.194 3  -5208868.546 2
  22532596.909    -7187216.690 4  -5600389.360 3
  23777729.721    14712674.936 2  11464410.995 1
  26131741.173    12096514.373 2   9425866.723 1
  26275589.984     -101587.629 2    -79156.993 1
 91  4 23 22 16  0.0050000  0  5 06 02 19 11 15
  23548497.012    -6696407.690 3  -5217942.868 2
  22534402.859    -7177706.897 4  -5592979.100 3
  23786105.319    14756757.394 2  11498760.929 1
  26143040.948    12155885.752 2   9472130.127 1
  26272998.880     -115220.968 2    -89780.616 1
 91  4 23 22 16 15.0050000  0  5 06 02 19 11 15
  23546281.847    -6708056.846 3  -5227020.087 2
  22536218.100    -7168159.174 4  -5585539.284 3
  23794506.107    14800879.872 2  11533142.045 1
  26154352.415    12215316.807 2   9518439.957 1
  26270401.476     -128816.724 2   -100374.526 1
 91  4 23 22 16 30.0050000  0  5 06 02 19 11 15
  23544064.884    -6719713.951 3  -5236103.503 2
  22538040.540    -7158578.059 4  -5578073.455 3
  23802911.388    14845038.018 2  11567550.926 1
  26165670.783    12274802.820 2   9564792.652 1
  26267826.260     -142379.020 2   -110942.408 1
 91  4 23 22 16 45.0050000  0  5 06 02 19 11 15
  23541844.623    -6731377.109 3  -5245191.626 2
  22539871.373    -7148961.876 4  -5570580.300 3
  23811322.062    14889233.403 2  11601988.846 1
  26177000.538    12334345.077 2   9611189.173
  26265251.044     -155905.991 2   -121482.814 1
 91  4 23 22 17  0.0050000  0  5 06 02 19 11 15
  23539624.658    -6743040.697 3  -5254280.103 2
  22541709.998    -7139304.975 4  -5563055.430 3
  23819734.245    14933471.841 2  11636460.294 1
  26188347.088    12393948.714 2   9657633.504 1
  26262691.420     -169391.722 2   -131990.991 1
 91  4 23 22 17 15.0050000  0  5 06 02 19 11 15
  23537401.693    -6754712.431 3  -5263374.906 2
  22543554.922    -7129615.616 4  -5555505.235 3
  23828165.605    14977745.220 2  11670958.977 1
  26199695.130    12453605.297 2   9704119.149 1
  26260134.186     -182843.772 2   -142472.892 1
 91  4 23 22 17 30.0050000  0  5 06 02 19 11 15
  23535186.527    -6766389.957 3  -5272474.224 2
  22545406.137    -7119891.579 4  -5547928.040 3
  23836595.465    15022055.808 2  11705486.696 2
  26211058.163    12513316.887 2   9750647.570 1
  26257579.056     -196259.382 2   -152926.478 1
 91  4 23 22 17 45.0050000  0  5 06 02 19 11 15
  23532963.265    -6778074.062 3  -5281578.664 2
  22547259.455    -7110133.927 4  -5540324.653 3
  23845035.525    15066402.722 2  11740042.690 2
  26222427.494    12573082.014 2   9797217.759 1
  26255019.126     -209639.595 2   -163352.507 1
 91  4 23 22 18  0.0050000  0  5 06 02 19 11 15
  23530734.313    -6789764.566 3  -5290688.109 2
  22549124.770    -7100342.581 4  -5532695.001 3
  23853481.579    15110785.944 2  11774626.969 2
  26233813.011    12632900.488 2   9843829.588 1
  26252495.772     -222983.657 1   -173750.267 1
 91  4 23 22 18 15.0050000  0  5 06 02 19 11 15
  23528509.856    -6801458.865 3  -5299800.477 2
  22550994.273    -7090515.290 4  -5525037.349 3
  23861936.924    15155207.786 2  11809241.335 2
  26245204.818    12692774.581 2   9890484.664 1
  26249946.043     -236288.579 1   -184117.578 1
 91  4 23 22 18 30.0050000  0  5 06 02 19 11 15
  23526283.295    -6813154.535 3  -5308913.946 2
  22552873.966    -7080649.874 4  -5517349.969 3
  23870386.878    15199670.619 2  11843887.664 2
  26256611.930    12752705.982 2   9937184.419 1
  26247422.985     -249551.826 1   -194452.418 1
 91  4 23 22 18 45.0050000  0  4 06 02 19 11
  23524056.734    -6824856.081 3  -5318031.980 2
  22554756.670    -7070750.968 4  -5509636.507 3
  23878867.405    15244169.848 2  11878562.344 2
  26268026.824    12812689.662 2   9983924.903 1
 91  4 23 22 19  0.0050000  0  5 06 02 19 11 15
  23521831.073    -6836559.473 3  -5327151.450 2
  22556646.555    -7060814.676 4  -5501893.927 3
  23887336.842    15288709.595 2  11913268.583 1
  26279444.118    12872729.356 2  10030709.041 1
  26242400.263         633.75812       497.164 1
 91  4 23 22 19 15.0050000  0  5 06 02 19 11 15
  23519600.019    -6848263.741 3  -5336271.606 2
  22558546.343    -7050840.377 4  -5494121.728 3
  23895823.066    15333290.465 2  11948006.880 2
  26290885.396    12932825.403 2  10077537.088 1
  26239905.091      -12507.890 2     -9743.274 1
 91  4 23 22 19 30.0050000  0  5 06 02 19 11 15
  23517377.655    -6859968.291 3  -5345391.989 2
  22560447.928    -7040827.832 4  -5486319.723 3
  23904318.888    15377912.760 2  11982777.460 2
  26302335.671    12992977.749 2  10124409.005
  26237419.814      -25605.998 2    -19949.826 1
 91  4 23 22 19 45.0050000  0  5 06 02 19 11 15
  23515149.000    -6871676.344 3  -5354515.077 2
  22562363.002    -7030780.404 4  -5478490.535 3
  23912814.107    15422573.222 2  12017577.776 2
  26313790.142    13053182.859 2  10171322.003 1
  26234927.635      -38663.641 2    -30124.392 1
 91  4 23 22 20  0.0060000  0  5 06 02 19 11 15
  23512923.342    -6883382.368 3  -5363636.606 2
  22564280.470    -7020691.584 4  -5470629.079 3
  23921319.513    15467280.918 2  12052414.905 2
  26325264.998    13113450.438 2  10218283.757 1
  26232448.651      -51674.920 2    -40262.907 1
 91  4 23 22 20 15.0060000  0  5 06 02 19 11 15
  23510689.592    -6895083.550 3  -5372754.349 2
  22566205.142    -7010561.428 4  -5462735.434 3
  23929840.812    15512031.093 2  12087285.116 2
  26336737.156    13173773.192 2  10265288.417 1
  26229978.364      -64636.888 2    -50362.932 1
 91  4 23 22 20 30.0060000  0  5 06 02 19 11 15
  23508469.322    -6906784.365 3  -5381871.837 2
  22568143.896    -7000393.151 4  -5454812.083 3
  23938361.517    15556822.999 2  12122187.840 2
  26348226.998    13234150.948 2  10312335.960 1
  26227521.565      -77553.901 2    -60427.979 1
 91  4 23 22 20 45.0060000  0  5 06 02 19 11 15
  23506237.971    -6918484.912 3  -5390989.081 2
  22570086.856    -6990187.265 4  -5446859.426 3
  23946893.609    15601656.234 2  12157122.787 2
  26359730.941    13294582.867 2  10359425.668 1
  26225081.553      -90425.816 1    -70457.902 1
 91  4 23 22 21  0.0060000  0  5 06 02 19 11 15
  23504013.514    -6930184.708 3  -5400105.765 2
  22572037.005    -6979943.542 4  -5438877.285 3
  23955432.001    15646531.168 2  12192090.228 2
  26371233.374    13355069.052 2  10406557.831 1
  26222646.637     -103251.889 1    -80452.012 1
 91  4 23 22 21 15.0060000  0  5 06 02 19 11 15
  23501785.452    -6941880.995 3  -5409219.694 2
  22573992.249    -6969659.383 4  -5430863.626 3
  23963974.284    15691450.384 2  12227092.158 2
  26382758.301    13415611.896 2  10453734.048 1
  26220203.328     -116029.133 2    -90408.098
 91  4 23 22 21 30.0060000  0  5 06 02 19 11 15
  23499566.692    -6953572.499 3  -5418329.907 2
  22575956.193    -6959333.844 4  -5422817.736 3
  23972540.255    15736414.891 2  12262129.398 2
  26394288.611    13476211.983 2  10500954.844 1
  26217783.410     -128756.227 2   -100325.125 1
 91  4 23 22 21 45.0060000  0  5 06 02 19 11 15
  23497341.030    -6965256.117 3  -5427433.984 2
  22577926.427    -6948964.098 4  -5414737.388 3
  23981099.631    15781427.725 2  12297204.285 2
  26405843.517    13536871.975 2  10548222.320 1
  26215367.078     -141429.899 2   -110200.560 1
 91  4 23 22 22  0.0060000  0  5 06 02 19 11 15
  23495118.064    -6976940.816 3  -5436538.897 2
  22579909.854    -6938559.165 4  -5406629.626 3
  23989666.798    15826479.716 2  12332309.683 2
  26417391.818    13597582.354 2  10595529.098 1
  26212962.447     -154058.704 2   -120041.047 1
 91  4 23 22 22 15.0060000  0  5 06 02 19 11 15
  23492894.811    -6988620.777 3  -5445640.111 2
  22581898.978    -6928113.246 4  -5398489.928 3
  23998254.957    15871576.617 2  12367450.076 2
  26428962.307    13658348.704 2  10642879.384 1
  26210553.907     -166636.586 1   -129841.834 1
 91  4 23 22 22 30.0060000  0  5 06 02 19 11 15
  23490667.351    -7000297.446 3  -5454738.752 2
  22583892.299    -6917628.294 4  -5390319.800 3
  24006846.110    15916716.637 2  12402624.090 1
  26440532.499    13719168.689 2  10690271.570 1
  26208188.547     -179164.835 2   -139604.323 1
 91  4 23 22 22 45.0060000  0  5 06 02 19 11 15
  23488452.186    -7011962.412 3  -5463828.284 2
  22585897.905    -6907096.226 4  -5382112.989 3
  24015442.654    15961908.067 2  12437838.146 2
  26452108.389    13780050.229 2  10737711.686 1
  26205814.794     -191635.002 2   -149321.174 1
 91  4 23 22 23  0.0060000  0  5 06 02 19 11 15
  23486232.824    -7023621.699 3  -5472913.388 2
  22587908.615    -6896523.249 4  -5373874.279 3
  24024052.391    16007144.677 2  12473087.407 2
  26463709.756    13840986.887 2  10785194.730 1
  26203449.426     -204053.052 2   -158997.455 1
 91  4 23 22 23 15.0060000  0  5 06 02 19 11 15
  23484016.454    -7035277.755 3  -5481995.982 2
  22589930.720    -6885912.038 4  -5365605.786 3
  24032672.929    16052423.928 2  12508369.883 2
  26475312.319    13901975.719 2  10832718.407 1
  26201094.859     -216421.112 2   -168635.139 1
 91  4 23 22 23 30.0060000  0  5 06 02 19 11 15
  23481798.287    -7046923.353 3  -5491070.432 2
  22591956.411    -6875255.809 4  -5357302.207 3
  24041290.161    16097752.971 2  12543691.175 2
  26486928.379    13963023.306 2  10880288.033 1
  26198755.579     -228731.837 2   -178227.775 1
 91  4 23 22 23 45.0060000  0  5 06 02 19 11 15
  23479586.420    -7058557.609 3  -5500136.014 2
  22593993.506    -6864553.843 4  -5348962.969 3
  24049931.675    16143132.414 2  12579051.741 1
  26498554.333    14024130.038 2  10927903.593 1
  26196428.889     -240983.968 2   -187775.120 1
 91  4 23 22 24  0.0060000  0  5 06 02 19 11 15
  23477374.552    -7070179.396 3  -5509191.912 2
  22596040.783    -6853805.223 4  -5340587.398 3
  24058576.495    16188563.149 2  12614452.262 2
  26510199.474    14085296.442 2  10975565.760 1
  26194112.094     -253175.948 2   -197275.238 1
 91  4 23 22 24 15.0060000  0  5 06 02 19 11 15
  23475163.287    -7081794.667 3  -5518242.694 2
  22598092.265    -6843016.082 4  -5332180.246 3
  24067233.600    16234039.159 2  12649888.055 2
  26521849.702    14146516.191 1  11023269.349 1
  26191794.696     -265313.995 2   -206733.273 1
 91  4 23 22 24 30.0060000  0  4 06 02 19 15
  23472954.115    -7093395.592 3  -5527282.346 2
  22600153.337    -6832178.890 4  -5323735.666 3
  24075893.707    16279568.108 2  12685365.107 2
  26189502.182     -277389.734 2   -216142.787 1
 91  4 23 22 24 45.0060000  0  4 06 02 19 15
  23470746.741    -7104987.087 3  -5536314.634 2
  22602224.608    -6821298.986 4  -5315257.789 3
  24084569.397    16325144.928 2  12720879.479 2
  26187205.175     -289408.196 2   -225507.651 1
 91  4 23 22 25  0.0060000  0  4 06 02 19 15
  23468548.660    -7116567.946 3  -5545338.613 2
  22604301.271    -6810375.243 4  -5306745.760 3
  24093247.792    16370770.640 2  12756431.912 2
  26184933.052     -301367.937 2   -234826.739 1
 91  4 23 22 25 15.0060000  0  4 06 02 19 15
  23466342.193    -7128137.942 3  -5554354.148 2
  22606391.118    -6799407.659 4  -5298199.566 3
  24101944.169    16416445.322 2  12792022.521 1
  26182673.214     -313268.405 2   -244099.655 1
 91  4 23 22 25 30.0060000  0  4 06 02 19 15
  23464141.712    -7139692.800 3  -5563357.911 2
  22608486.671    -6788392.177 4  -5289616.060 3
  24110643.251    16462172.834 2  12827654.262 1
  26180419.676     -325105.184 2   -253322.872 1
 91  4 23 22 25 45.0060000  0  4 06 02 19 15
  23461950.828    -7151234.775 3  -5572351.606 2
  22610592.711    -6777331.349 4  -5280997.200 3
  24119358.518    16507950.765 2  12863325.354 1
  26178181.423     -336880.328 2   -262498.212 1
 91  4 23 22 26  0.0060000  0  4 06 02 19 15
  23459755.451    -7162763.256 3  -5581334.766 2
  22612702.652    -6766224.978 4  -5272342.837 3
  24128074.378    16553779.746 2  12899036.221 1
  26175943.773     -348593.221 2   -271624.940 1
 91  4 23 22 26 15.0060000  0  4 06 02 19 15
  23457560.964    -7174279.903 3  -5590308.718 2
  22614826.378    -6755074.865 4  -5263654.412 3
  24136805.839    16599657.854 2  12934785.352 1
  26173728.302     -360245.377 2   -280704.458 1
 91  4 23 22 26 30.0060000  0  5 06 02 19 11 15
  23455372.785    -7185782.747 3  -5599271.941 2
  22616954.904    -6743879.328 4  -5254930.598 3
  24145540.589    16645586.953 2  12970574.218 1
  26627189.582       49137.56312     38299.140 1
  26171521.836     -371834.516 2   -289734.759 1
 91  4 23 22 26 45.0060000  0  5 06 02 19 11 15
  23453190.295    -7197271.616 3  -5608224.281 2
  22619095.426    -6732638.312 4  -5246171.344 3
  24154294.229    16691567.032 2  13006402.784 1
  26638942.941      110921.592 2     86442.589 1
  26169322.253     -383360.350 2   -298715.784 2
 91  4 23 22 27  0.0060000  0  4 06 19 11 15
  23451003.007    -7208746.579 3  -5617165.773 2
  24163053.269    16737597.853 2  13042270.894 1
  26650710.093      172760.582 2    134628.779 1
  26167148.759     -394822.490 2   -307647.221 1
 91  4 23 22 27 15.0060000  0  5 06 02 19 11 15
  23448826.816    -7220204.875 3  -5626094.258 2
  22623399.243       48673.52014     37967.528 3
  24171825.197    16783681.629 2  13078180.267 1
  26662487.141      234656.398 2    182859.127 1
  26164981.258     -406218.166 2   -316527.211 1
 91  4 23 22 27 30.0060000  0  5 06 02 19 11 15
  23446647.921    -7231647.443 3  -5635010.506 2
  22625564.047       60053.479 4     46835.052 3
  24180600.118    16829817.377 2  13114130.133 1
  26674275.880      296607.683 2    231132.866 1
  26162821.253     -417548.085 2   -325355.544 1
 91  4 23 22 27 45.0060000  0  5 06 02 19 11 15
  23444469.331    -7243074.998 3  -5643915.062 2
  22627741.145       71478.895 4     55738.003 3
  24189384.636    16876004.384 2  13150119.963 1
  26686072.715      358613.173 2    279448.924 1
  26160679.535     -428812.901 2   -334133.176 1
 91  4 23 22 28  0.0060000  0  5 06 02 19 11 15
  23442304.527    -7254482.280 3  -5652803.808 2
  22629919.429       82954.868 4     64680.356 3
  24198187.442    16922247.956 2  13186153.842 1
  26697878.547      420677.825 2    327810.865 1
  26158546.517     -440007.277 2   -342855.921 1
 91  4 23 22 28 15.0060000  0  5 06 02 19 11 15
  23440140.630    -7265871.365 3  -5661678.369 2
  22632116.010       94478.922 4     73660.165 3
  24207001.643    16968545.627 2  13222229.896 1
  26709703.853      482798.874 2    376216.901 1
  26156429.683     -451133.192 2   -351525.279 1
 91  4 23 22 28 30.0060000  0  5 06 02 19 11 15
  23437969.230    -7277244.491 3  -5670540.495 2
  22634317.085      106048.454 4     82675.414 3
  24215820.337    17014894.794 2  13258346.072 1
  26721548.354      544973.428 2    424664.433 1
  26154333.528     -462192.434 2   -360142.749 1
 91  4 23 22 28 45.0060000  0  5 06 02 19 11 15
  23435803.527    -7288600.451 3  -5679389.256 2
  22636526.256      117664.514 4     91726.920 3
  24224648.620    17061296.613 2  13294503.271 1
  26733370.972      607202.236 2    473154.429 1
  26152236.187     -473183.687 2   -368707.157 1
 91  4 23 22 29  0.0060000  0  5 06 02 19 11 15
  23433645.624    -7299943.331 3  -5688227.822 2
  22638744.127      129322.854 4    100811.358 3
  24233492.801    17107746.941 2  13330698.257 1
  26745235.855      669480.672 2    521683.060 1
  26150149.629     -484110.889 2   -377221.734 1
 91  4 23 22 29 15.0060000  0  5 06 02 19 11 15
  23431491.316    -7311266.590 3  -5697051.093 2
  22640975.181      141029.627 4    109933.559 3
  24242342.679    17154251.797 2  13366935.772 1
  26757098.949      731814.675 2    570254.969 1
  26148097.850     -494967.466 2   -385681.241 1
 91  4 23 22 29 30.0060000  0  5 06 02 19 11 15
  23429346.300    -7322572.652 3  -5705860.968 2
  22643208.634      152782.054 4    119091.313 3
  24251194.947    17200808.664 2  13403213.784 1
  26768958.431      794201.252 2    618867.742 1
  26146035.880     -505755.590 2   -394087.380 1
 91  4 23 22 29 45.0060000  0  5 06 02 19 11 15
  23427191.696    -7333861.455 3  -5714657.403 2
  22645459.477      164580.148 4    128284.654 3
  24260068.200    17247417.669 2  13439532.413 1
  26780844.604      856640.123 2    667521.454 1
  26144003.287     -516474.708 2   -402439.785 1
 91  4 23 22 30  0.0060000  0  5 06 02 19 11 15
  23425047.876    -7345130.297 3  -5723438.290 2
  22647709.420      176426.222 4    137515.402 3
  24268951.059    17294080.999 2  13475893.384 1
  26792734.676      919133.305 2    716217.399 1
  26141967.397     -527122.349 2   -410736.485 1
 91  4 23 22 30 15.0060000  0  5 06 02 19 11 15
  23422911.253    -7356377.669 3  -5732202.432 2
  22649975.253      188321.502 4    146784.472 3
  24277836.003    17340800.072 2  13512297.817 1
  26804637.932      981681.657 1    764956.433 1
  26139962.681     -537696.759 2   -418976.148 1
 91  4 23 22 30 30.0060000  0  5 06 02 19 11 15
  23420774.937    -7367605.491 3  -5740951.339 2
  22652246.180      200263.859 4    156090.235 3
  24286736.242    17387572.839 2  13548744.084 1
  26816543.291     1044282.887 2    813736.858 1
  26137956.167     -548199.653 2   -427160.016 1
 91  4 23 22 30 45.0060000  0  5 06 02 19 11 15
  23418642.808    -7378816.863 3  -5749687.411 2
  22654524.900      212249.918 4    165430.054 3
  24295654.473    17434395.933 2  13585229.544 2
  26828479.231     1106933.402 2    862555.638 1
  26135966.450     -558633.970 2   -435290.522 1
 91  4 23 22 31  0.0060000  0  5 06 02 19 11 15
  23416512.485    -7390005.238 3  -5758405.583 2
  22656817.108      224285.866 4    174808.746 3
  24304573.296    17481275.568 2  13621759.069 1
  26840410.974     1169639.074 2    911417.075 1
  26133992.918     -568993.405 2   -443362.617 1
 91  4 23 22 31 15.0060000  0  5 06 02 19 11 15
  23414384.257    -7401176.048 3  -5767110.093 2
  22659117.718      236366.190 4    184222.008 3
  24313504.108    17528206.319 2  13658328.425 1
  26852350.204     1232394.017 2    960317.025 1
  26132039.767     -579282.897 2   -451380.273 1
 91  4 23 22 31 30.0060000  0  5 06 02 19 11 15
  23412264.727    -7412326.136 3  -5775798.428 2
  22661422.220      248493.638 4    193671.996 3
  24322442.127    17575191.221 2  13694939.986 1
  26864301.134     1295200.766 2   1009257.360 1
  26130101.606     -589499.079 2   -459340.803 1
 91  4 23 22 31 45.0060000  0  5 06 02 19 11 15
  23410147.292    -7423453.461 3  -5784469.024 2
  22663741.415      260669.844 4    203159.965 3
  24331394.229    17622231.930 2  13731595.004 1
  26876251.758     1358060.650 2   1058238.916 1
  26128170.042     -599639.936 2   -467242.579 1
 91  4 23 22 32  0.0060000  0  5 06 02 19 11 15
  23408032.857    -7434559.186 3  -5793122.792 2
  22666066.308      272893.403 4    212684.838 3
  24340362.515    17669327.058 2  13768292.474 1
  26888246.453     1420971.859 2   1107260.678 1
  26126256.765     -609706.498 2   -475086.544 1
 91  4 23 22 32 15.0060000  0  5 06 02 19 11 15
  23405922.315    -7445642.270 3  -5801758.800 2
  22668404.087      285165.370 4    222247.543 4
  24349330.208    17716477.599 2  13805033.186 1
  26900216.570     1483935.364 2   1156323.363 1
  26124351.585     -619697.217 2   -482871.703 1
 91  4 23 22 32 30.0060000  0  5 06 02 19 11 15
  23403813.281    -7456704.151 3  -5810378.435 2
  22670743.673      297483.945 4    231846.445 4
  24358312.594    17763681.728 2  13841815.540 2
  26912214.860     1546948.983 2   1205424.679 1
  26122463.794     -629613.581 2   -490598.579 1
 91  4 23 22 32 45.0060000  0  4 06 02 19 15
  23401719.822    -7467744.275 3  -5818981.085 3
  22673097.637      309849.275 4    241481.789 4
  24367305.765    17810939.728 2  13878639.894 2
  26120591.290     -639454.813 2   -498266.885 1
 91  4 23 22 33  0.0060000  0  4 06 02 19 15
  23399620.378    -7478762.662 3  -5827566.817 2
  22675461.505      322261.087 4    251153.335 3
  24376310.635    17858251.349 2  13915506.020 1
  26118735.573     -649221.179 2   -505876.907 1
 91  4 23 22 33 15.0060000  0  4 06 02 19 15
  23397527.530    -7489760.248 3  -5836136.420 2
  22677830.765      334718.271 4    260860.154 3
  24385326.892    17905615.521 2  13952412.987 1
  26116887.359     -658913.289 2   -513429.137 1
 91  4 23 22 33 30.0060000  0  4 06 02 19 15
  23395442.176    -7500732.929 3  -5844686.508 2
  22680210.521      347224.720 4    270605.487 3
  24394354.841    17953036.150 2  13989364.125 1
  26115055.924     -668526.721 2   -520919.944 1
 91  4 23 22 33 45.0060000  0  4 06 02 19 15
  23393353.822    -7511682.070 3  -5853218.254 2
  22682601.061      359778.735 4    280387.838 3
  24403377.398    18000511.794 2  14026358.063 1
  26113246.380     -678062.640 2   -528350.316 1
 91  4 23 22 34  0.0060000  0  4 06 02 19 15
  23391276.556    -7522610.277 3  -5861733.603 2
  22684999.105      372377.456 4    290205.148 4
  24412424.533    18048039.456 2  14063392.634 2
  26111443.423     -687523.538 2   -535722.250 1
 91  4 23 22 34 15.0060000  0  4 06 02 19 15
  23389203.191    -7533520.932 3  -5870235.374 2
  22687404.338      385017.167 4    300054.276 4
  24421476.161    18095615.566 2  14100464.885 2
  26109656.957     -696912.685 2   -543038.335 1
 91  4 23 22 34 30.0060000  0  4 06 02 19 15
  23387128.326    -7544407.081 3  -5878718.020 2
  22689819.169      397704.705 4    309940.691 4
  24430546.087    18143246.993 2  14137580.227 1
  26107891.187     -706223.062 2   -550293.003 1
 91  4 23 22 34 45.0060000  0  4 06 02 19 15
  23385066.059    -7555266.653 3  -5887179.986 3
  22692239.087      410441.674 4    319865.613 4
  24439616.605    18190935.473 2  14174740.040 2
  26106136.795     -715452.481 2   -557484.642 1
 91  4 23 22 35  0.0060000  0  4 06 02 19 15
  23382993.287    -7566104.623 3  -5895625.107 2
  22694674.003      423222.830 4    329824.977 4
  24448698.815    18238675.753 2  14211940.190 2
  26104390.508     -724605.702 2   -564616.848 1
 91  4 23 22 35 15.0060000  0  4 06 02 19 15
  23380940.609    -7576914.343 3  -5904048.206 3
  22697116.710      436054.706 4    339823.854 4
  24457798.118    18286474.437 2  14249185.856 2
  26102661.305     -733675.736 2   -571684.209 1
 91  4 23 22 35 30.0060000  0  4 06 02 19 15
  23378890.331    -7587698.191 3  -5912451.159 2
  22699567.218      448934.737 4    349860.252 4
  24466903.118    18334328.968 2  14286475.030 2
  26100953.085     -742664.845 2   -578688.526 1
 91  4 23 22 35 45.0060000  0  4 06 02 19 15
  23376839.154    -7598454.672 3  -5920832.787 3
  22702027.612      461863.791 4    359934.863 4
  24476023.998    18382240.470 2  14323808.606 2
  26099260.161     -751571.737 2   -585628.796 1
 91  4 23 22 36  0.0060000  0  4 06 02 19 15
  23374804.458    -7609182.794 3  -5929192.316 3
  22704497.001      474842.583 4    370048.208 4
  24485152.085    18430209.672 2  14361187.159 2
  26097583.117     -760395.195 2   -592504.051 1
 91  4 23 22 36 15.0060000  0  4 06 02 19 15
  23372767.372    -7619883.966 3  -5937530.851 3
  22706976.590      487869.544 4    380199.104 4
  24494284.656    18478234.891 2  14398609.343 2
  26095917.476     -769136.461 2   -599315.274 1
 91  4 23 22 36 30.0060000  0  4 06 02 19 15
  23370740.172    -7630558.511 3  -5945848.621 2
  22709462.469      500944.134 4    390387.111 4
  24503434.922    18526315.614 2  14436074.768 2
  26094264.417     -777795.927 2   -606062.841 1
 91  4 23 22 36 45.0060000  0  4 06 02 19 15
  23368709.376    -7641209.618 3  -5954148.134 3
  22711958.539      514063.167 4    400609.748 4
  24512599.279    18574448.551 2  14473580.899 2
  26092626.051     -786376.399 2   -612748.737 1
 91  4 23 22 37  0.0060000  0  4 06 02 19 15
  23366684.279    -7651833.239 3  -5962426.238 2
  22714464.504      527230.045 4    410869.664 4
  24521764.831    18622637.367 2  14511130.558 2
  26091023.658     -794873.824 2   -619369.957 1
 91  4 23 22 37 15.0060000  0  4 06 02 19 15
  23364667.574    -7662428.901 3  -5970682.544 2
  22716977.362      540444.986 4    421167.039 4
  24530946.281    18670882.461 2  14548724.096 1
  26089415.874     -803287.431 2   -625925.842 1
 91  4 23 22 37 30.0060000  0  4 06 02 19 15
  23362654.168    -7672999.583 3  -5978919.397 2
  22719503.412      553704.776 4    431499.357 4
  24540137.616    18719180.530 2  14586358.878 1
  26087822.774     -811620.153 2   -632418.757 1
 91  4 23 22 37 45.0060000  0  4 06 02 19 15
  23360651.555    -7683549.497 3  -5987140.059 2
  22722033.964      567004.867 4    441863.072 4
  24549336.149    18767527.090 2  14624031.460 1
  26086256.058     -819876.167 2   -638851.876 1
 91  4 23 22 38  0.0060000  0  4 06 02 19 15
  23358649.247    -7694065.183 3  -5995334.068 3
  22724577.106      580358.446 4    452268.473 4
  24558551.173    18815935.458 2  14661752.211 1
  26084702.535     -828041.940 2   -645214.659 1
 91  4 23 22 38 15.0060000  0  4 06 02 19 15
  23356656.520    -7704546.414 3  -6003501.218 2
  22727127.141      593765.500 4    462715.540 4
  24567777.880    18864405.461 2  14699520.980 1
  26083171.497     -836117.142 2   -651506.896 1
 91  4 23 22 38 30.0060000  0  4 06 02 19 15
  23354665.904    -7715003.319 3  -6011649.399 3
  22729686.469      607215.660 4    473196.199 4
  24577008.190    18912926.772 2  14737329.740 2
  26081646.452     -844111.634 2   -657736.215 1
 91  4 23 22 38 45.0060000  0  4 06 02 19 15
  23352682.172    -7725435.888 3  -6019778.622 2
  22732251.494      620708.902 4    483710.427 4
  24586250.497    18961499.345 2  14775178.429 2
  26080143.596     -852025.186 2   -663902.486 1
 91  4 23 22 39  0.0060000  0  4 06 02 19 15
  23350698.448    -7735841.606 3  -6027886.952 2
  22734830.906      634247.147 4    494259.726 4
  24595501.791    19010125.331 2  14813068.741 1
  26078650.922     -859855.358 2   -670003.754 1
 91  4 23 22 39 15.0060000  0  4 06 02 19 15
  23348723.415    -7746216.588 3  -6035971.311 2
  22737417.814      647833.879 4    504846.803 4
  24604772.271    19058808.331 2  14851003.461 1
  26077177.443     -867598.353 2   -676037.113 1
 91  4 23 22 39 30.0060000  0  4 06 02 19 15
  23346754.682    -7756567.978 3  -6044037.284 2
  22740008.621      661461.747 4    515465.941 4
  24614036.758    19107541.072 2  14888976.962 2
  26075714.757     -875260.975 2   -682007.883 1
 91  4 23 22 39 45.0060000  0  4 06 02 19 15
  23344793.434    -7766888.639 3  -6052079.316 3
  22742611.714      675137.774 4    526122.607 4
  24623323.127    19156330.549 2  14926994.663 1
  26074273.360     -882835.979 2   -687910.368 1
 91  4 23 22 40  0.0060000  0  4 06 02 19 15
  23342833.094    -7777180.133 3  -6060098.636 3
  22745219.911      688859.890 4    536815.181 4
  24632619.390    19205174.900 2  14965055.133 2
  26072853.235     -890324.825 2   -693745.724 1
 91  4 23 22 40 15.0060000  0  4 06 02 19 15
  23340879.647    -7787442.333 3  -6068095.095 3
  22747844.895      702628.089 4    547543.673 4
  24641928.549    19254074.014 2  15003158.264 2
  26071436.417     -897727.295 2   -699513.769 1
 91  4 23 22 40 30.0060000  0  4 06 02 19 15
  23338935.789    -7797676.243 3  -6076069.537 3
  22750468.081      716441.112 4    558307.090 4
  24651238.903    19303026.594 2  15041303.074 1
  26070040.286     -905044.150 2   -705215.081 1
 91  4 23 22 40 45.0060000  0  4 06 02 19 15
  23336991.040    -7807882.229 3  -6084022.209 3
  22753106.851      730298.291 4    569104.902 4
  24660567.842    19352031.954 2  15079488.961 1
  26068673.533     -912275.801 2   -710850.032 1
 91  4 23 22 41  0.0060000  0  4 06 02 19 15
  23335048.980    -7818060.216 3  -6091953.056 2
  22755753.717      744199.645 4    579937.142 4
  24669900.384    19401090.120 2  15117716.027 2
  26067316.674     -919421.958 2   -716418.298 1
 91  4 23 22 41 15.0060000  0  4 06 02 19 15
  23333126.716    -7828208.498 3  -6099860.782 3
  22758405.985      758146.113 4    590804.534 4
  24679249.408    19450202.247 2  15155985.161 1
  26065969.404     -926480.909 2   -721918.664 1
 91  4 23 22 41 30.0060000  0  4 06 02 19 15
  23331195.151    -7838330.688 3  -6107748.168 3
  22761072.038      772134.127 4    601704.301 4
  24688598.441    19499364.661 2  15194293.446 1
  26064644.923     -933456.090 2   -727353.807 1
 91  4 23 22 41 45.0060000  0  4 06 02 19 15
  23329269.284    -7848430.448 3  -6115618.088 3
  22763738.091      786159.575 4    612633.245 4
  24697970.551    19548573.363 2  15232637.865 1
  26063328.531     -940351.081 2   -732726.387 1
 91  4 23 22 42  0.0060000  0  4 06 02 19 15
  23327360.501    -7858494.911 3  -6123460.482 3
  22766417.938      800234.991 4    623601.141 4
  24707340.865    19597841.105 2  15271028.245 1
  26062036.430     -947152.909 2   -738026.370 1
 91  4 23 22 42 15.0060000  0  4 06 02 19 15
  23325448.428    -7868528.180 3  -6131278.577 3
  22769102.881      814356.089 4    634604.604 4
  24716730.068    19647163.458 2  15309461.155 1
  26060755.418     -953865.565 2   -743256.889 1
 91  4 23 22 42 30.0060000  0  4 06 02 19 15
  23323545.342    -7878531.854 3  -6139073.611 3
  22771798.311      828520.975 4    645642.198 4
  24726122.865    19696538.603 2  15347935.219 1
  26059492.991     -960490.316 2   -748418.944 1
 91  4 23 22 42 45.0060000  0  4 06 02 19 15
  23321649.455    -7888509.432 3  -6146848.315 3
  22774502.144      842725.807 4    656710.918 4
  24735532.450    19745962.657 2  15386447.412 1
  26058256.041     -967031.007 2   -753515.463 1
 91  4 23 22 43  0.0060000  0  4 06 02 19 15
  23319756.272    -7898455.381 3  -6154598.372 3
  22777211.962      856975.928 4    667814.931 4
  24744948.928    19795441.001 2  15425001.903 1
  26057023.296     -973481.660 2   -758541.819 1
 91  4 23 22 43 15.0060000  0  4 06 02 19 15
  23317867.879    -7908369.264 3  -6162323.444 3
  22779934.676      871271.531 4    678954.373 4
  24754373.206    19844973.771 2  15463598.794 1
  26055814.537     -979841.961 2   -763497.740 1
 91  4 23 22 43 30.0060000  0  4 06 02 19 15
  23315986.379    -7918250.861 3  -6170023.331 3
  22782662.791      885612.443 4    690129.137 4
  24763808.268    19894561.027 2  15502238.126 1
  26054624.956     -986111.561 2   -768383.013 1
 91  4 23 22 43 45.0060000  0  4 06 02 19 15
  23314110.873    -7928104.126 3  -6177701.171 3
  22785397.196      899994.459 4    701335.921 4
  24773254.132    19944198.471 2  15540916.579 1
  26053441.081     -992294.519 2   -773200.816 1
 91  4 23 22 44  0.0060000  0  4 06 02 19 15
  23312241.972    -7937927.725 3  -6185355.893 3
  22788145.396      914418.701 4    712575.605 4
  24782706.593    19993887.333 2  15579635.097 2
  26052283.878     -998389.047 2   -777949.664 1
 91  4 23 22 44 15.0060000  0  4 06 02 19 15
  23310379.956    -7947721.047 3  -6192987.012 3
  22790896.292      928885.324 4    723848.316 4
  24792172.236    20043627.830 2  15618393.853 2
  26051136.876    -1004394.493 2   -782629.179 1
 91  4 23 22 44 30.0060000  0  4 06 02 19 15
  23308524.544    -7957485.231 3  -6200595.440 3
  22793659.778      943392.656 4    735152.749 4
  24801642.382    20093418.357 2  15657191.582 2
  26050018.046    -1010312.423 2   -787240.432 1
 91  4 23 22 44 45.0060000  0  4 06 02 19 15
  23306670.327    -7967217.893 3  -6208179.300 3
  22796428.360      957943.310 4    746490.937 4
  24811126.916    20143261.384 2  15696030.214 1
  26048913.910    -1016139.734 2   -791781.054 1
 91  4 23 22 45  0.0060000  0  4 06 02 19 15
  23304820.604    -7976920.877 3  -6215740.025 3
  22799204.140      972535.059 4    757861.147 4
  24820632.433    20193154.836 2  15734908.146 1
  26047811.274    -1021878.294 2   -796252.504 1
 91  4 23 22 45 15.0060000  0  4 06 02 19 15
  23302986.482    -7986588.738 3  -6223273.393 3
  22801989.212      987172.748 4    769267.163 4
  24830137.358    20243103.571 2  15773829.146 2
  26046737.117    -1027522.964 2   -800650.876 1
 91  4 23 22 45 30.0060000  0  4 06 02 19 15
  23301150.553    -7996219.846 3  -6230778.116 3
  22804783.873     1001857.988 4    780710.220 4
  24839647.072    20293109.134 2  15812794.447 1
  26045681.248    -1033071.759 2   -804974.442 1
 91  4 23 22 45 45.0060000  0  4 06 02 19 15
  23299325.409    -8005819.703 3  -6238258.502 3
  22807585.139     1016584.928 4    792185.773 4
  24849175.676    20343165.793 2  15851799.569 1
  26044643.667    -1038529.952 2   -809227.483 1
 91  4 23 22 46  0.0060000  0  4 06 02 19 15
  23297503.571    -8015390.825 3  -6245716.473 3
  22810391.797     1031350.678 4    803691.579 4
  24858706.976    20393270.594 2  15890842.184 1
  26043623.475    -1043900.137 2   -813411.935 1
 91  4 23 22 46 15.0060000  0  4 06 02 19 15
  23295684.429    -8024929.672 3  -6253149.307 3
  22813214.344     1046158.496 4    815230.147 4
  24868254.461    20443426.945 2  15929924.972 1
  26042614.974    -1049178.810 2   -817525.034 1
 91  4 23 22 46 30.0060000  0  4 06 02 19 15
  23293875.784    -8034443.386 3  -6260562.560 3
  22816036.891     1061001.177 4    826795.875 4
  24877815.750    20493627.403 2  15969042.114 1
  26041633.155    -1054372.728 2   -821572.082 1
 91  4 23 22 46 45.0060000  0  4 06 02 19 15
  23292071.336    -8043929.027 3  -6267953.919 3
  22818869.026     1075881.282 4    838390.794 4
  24887371.934    20543874.649 2  16008195.758 1
  26040660.323    -1059479.161 2   -825551.021 1
 91  4 23 22 47  0.0070000  0  4 06 02 19 15
  23290268.984    -8053386.489 3  -6275323.333 3
  22821711.661     1090800.112 4    850015.871 4
  24896939.804    20594172.471 2  16047388.814 1
  26039704.587    -1064497.751 2   -829461.478 1
 91  4 23 22 47 15.0070000  0  4 06 02 19 15
  23288475.320    -8062814.744 3  -6282669.996 3
  22824550.689     1105755.051 4    861669.081 4
  24906519.372    20644513.678 2  16086615.634 1
  26038759.945    -1069427.903 2   -833303.076 1
 91  4 23 22 47 30.0070000  0  4 06 02 19 15
  23286689.159    -8072217.228 3  -6289996.580 3
  22827405.615     1120744.245 4    873348.995 4
  24916112.437    20694898.563 2  16125876.516 1
  26037843.172    -1074272.398 2   -837077.882 1
 91  4 23 22 47 45.0070000  0  4 06 02 19 15
  23284904.194    -8081589.385 3  -6297299.501 3
  22830266.238     1135771.931 4    885058.891 4
  24925703.993    20745331.198 2  16165174.572 1
  26036933.902    -1079026.889 2   -840782.558 1
 91  4 23 22 48  0.0070000  0  4 06 02 19 15
  23283130.624    -8090926.085 3  -6304574.814 3
  22833135.245     1150842.844 4    896802.458 4
  24935312.039    20795816.489 2  16204513.690 1
  26036052.815    -1083686.273 2   -844413.121 1
 91  4 23 22 48 15.0070000  0  4 06 02 19 15
  23281359.750    -8100232.543 3  -6311826.558 3
  22836011.757     1165951.241 4    908575.243 4
  24944927.589    20846349.190 2  16243889.740 1
  26035182.817    -1088255.630 2   -847973.556 1
 91  4 23 22 48 30.0070000  0  4 06 02 19 15
  23279593.072    -8109501.685 3  -6319049.228 3
  22838893.965     1181104.135 4    920382.718 4
  24954555.118    20896936.023 2  16283307.977 1
  26034333.802    -1092727.546 2   -851458.076 1
 91  4 23 22 48 45.0070000  0  4 06 02 19 15
  23277836.891    -8118738.593 3  -6326246.782 3
  22841783.058     1196296.287 4    932220.772 4
  24964193.450    20947571.614 2  16322764.195 2
  26033499.185    -1097107.307 2   -854870.790 1
 91  4 23 22 49  0.0070000  0  4 06 02 19 15
  23276086.102    -8127945.618 3  -6333421.049 3
  22844682.953     1211524.939 4    944087.264 4
  24973835.375    20998253.333 2  16362256.356 1
  26032683.151    -1101397.265 2   -858213.544 1
 91  4 23 22 49 15.0070000  0  4 06 02 19 15
  23274340.111    -8137118.615 3  -6340568.783 2
  22847587.044     1226793.972 4    955985.213 4
  24983492.884    21048985.164 2  16401787.571 1
  26031881.802    -1105592.981 2   -861482.800 1
 91  4 23 22 49 30.0070000  0  4 06 02 19 15
  23272597.716    -8146255.632 3  -6347688.505 3
  22850502.225     1242105.087 4    967915.959 4
  24993155.497    21099768.515 2  16441358.934 1
  26031105.338    -1109692.616 2   -864677.235 1
 91  4 23 22 49 45.0070000  0  4 06 02 19 15
  23270865.511    -8155359.572 3  -6354782.446 3
  22853422.807     1257455.078 4    979876.997 4
  25002825.902    21150600.331 2  16480968.072 1
  26030338.470    -1113698.999 2   -867798.993 1
 91  4 23 22 50  0.0070000  0  4 06 02 19 15
  23269144.711    -8164423.334 3  -6361845.070 3
  22856351.477     1272850.729 4    991873.626 4
  25012503.802    21201487.475 2  16520620.283 1
  26029596.182    -1117604.988 2   -870842.539 1
 91  4 23 22 50 15.0070000  0  4 06 02 19 15
  23267423.901    -8173446.296 3  -6368875.900 3
  22859290.338     1288292.175 4   1003905.931 4
  25022205.390    21252430.148 2  16560315.774 1
  26028873.987    -1121409.808 2   -873807.212 1
 91  4 23 22 50 30.0070000  0  4 06 02 19 15
  23265715.376    -8182431.054 3  -6375876.983 3
  22862237.000     1303776.577 4   1015971.706 4
  25031899.178    21303425.461 2  16600052.301 1
  26028171.869    -1125115.996 2   -876695.091 1
 91  4 23 22 50 45.0070000  0  4 06 02 19 15
  23264011.659    -8191377.246 3  -6382848.000 3
  22865191.758     1319304.068 4   1028071.072 4
  25041624.446    21354473.812 2  16639830.172 1
  26027481.145    -1128723.072 2   -879505.683 1
 91  4 23 22 51  0.0070000  0  4 06 02 19 15
  23262317.234    -8200286.757 3  -6389790.450 3
  22868158.504     1334872.375 4   1040202.229 4
  25051337.420    21405572.684 2  16679647.373 1
  26026817.112    -1132232.998 2   -882240.606 1
 91  4 23 22 51 15.0070000  0  4 06 02 19 15
  23260629.702    -8209153.373 3  -6396699.459 3
  22871124.046     1350487.599 4   1052369.944 4
  25061077.076    21456728.022 2  16719508.626 1
  26026162.965    -1135639.654 2   -884895.037 1
 91  4 23 22 51 30.0070000  0  4 06 02 19 15
  23258952.065    -8217980.764 3  -6403578.044 2
  22874102.188     1366145.384 4   1064570.666 3
  25070820.335    21507935.851 2  16759410.600 1
  26025535.795    -1138946.451 2   -887471.773 1
 91  4 23 22 51 45.0070000  0  4 06 02 19 15
  23257279.217    -8226765.602 3  -6410423.286 2
  22877092.920     1381849.156 4   1076807.457 3
  25080582.476    21559199.313 2  16799356.114 1
  26024926.320    -1142149.985 2   -889967.922 1
 91  4 23 22 52  0.0070000  0  4 06 02 19 15
  23255613.576    -8235503.299 3  -6417231.854 2
  22880091.146     1397603.119 4   1089083.277 3
  25090347.617    21610522.684 2  16839348.264 1
  26024333.327    -1145245.948 2   -892380.285 1
 91  4 23 22 52 15.0070000  0  4 06 02 19 15
  23253965.316    -8244197.051 3  -6424006.224 2
  22883098.063     1413403.700 4   1101395.409 3
  25100121.144    21661902.684 2  16879384.538 1
  26023770.915    -1148237.192 2   -894711.072 1
 91  4 23 22 52 30.0070000  0  4 06 02 19 15
  23252312.562    -8252850.794 3  -6430749.325 2
  22886111.873     1429246.761 4   1113740.683 3
  25109913.569    21713334.941 2  16919461.541 1
  26023220.204    -1151127.707 2   -896963.342 1
 91  4 23 22 52 45.0070000  0  4 06 02 19 15
  23250673.891    -8261463.701 3  -6437460.646 2
  22889138.875     1445132.709 4   1126119.362 3
  25119705.087    21764819.851 2  16959579.573 1
  26022690.764    -1153916.771 2   -899136.417 1
 91  4 23 22 53  0.0070000  0  4 06 02 19 15
  23249043.019    -8270027.725 3  -6444133.878 2
  22892168.582     1461069.410 4   1138537.583 3
  25129518.496    21816365.376 2  16999744.907 1
  26022173.627    -1156596.052 2   -901224.141 1
 91  4 23 22 53 15.0070000  0  4 06 02 19 15
  23247421.746    -8278547.166 3  -6450772.235 3
  22895210.879     1477052.189 4   1150991.806 4
  25139328.904    21867966.816 2  17039953.809 1
  26021692.760    -1159169.809 2   -903229.465 1
 91  4 23 22 53 30.0070000  0  4 06 02 19 15
  23245807.365    -8287019.860 3  -6457374.328 3
  22898260.662     1493082.844 4   1163483.240 3
  25149159.397    21919625.991 2  17080207.632 1
  26021215.784    -1161635.922 2   -905151.021 1
 91  4 23 22 53 45.0070000  0  4 06 02 19 15
  23244206.770    -8295444.528 3  -6463938.967 3
  22901319.450     1509162.506 4   1176012.868 4
  25159014.774    21971344.027 2  17120507.313 1
  26020758.903    -1163993.133 2   -906987.741 1
 91  4 23 22 54  0.0070000  0  4 06 02 19 15
  23242616.069    -8303822.416 3  -6470467.160 3
  22904383.629     1525289.586 4   1188579.438 4
  25168861.164    22023119.229 2  17160851.541 1
  26020340.098    -1166242.525 2   -908740.425 1
 91  4 23 22 54 15.0070000  0  4 06 02 19 15
  23241031.965    -8312152.577 3  -6476958.172 3
  22907463.689     1541464.569 4   1201183.338 4
  25178729.131    22074952.112 2  17201240.693 1
  26019929.677    -1168383.518 2   -910408.664 1
 91  4 23 22 54 30.0070000  0  4 06 02 19 15
  23239449.963    -8320436.691 3  -6483413.301 3
  22910553.058     1557685.839 4   1213823.296 4
  25188597.099    22126840.816 2  17241673.374 1
  26019544.446    -1170417.595 2   -911993.553 1
 91  4 23 22 54 45.0070000  0  4 06 02 19 15
  23237886.842    -8328677.529 3  -6489834.698 3
  22913646.912     1573950.171 4   1226496.827 4
  25198484.549    22178782.343 2  17282147.199 1
  26019179.597    -1172347.277 2   -913497.138 1
 91  4 23 22 55  0.0070000  0  4 06 02 19 15
  23236323.425    -8336871.681 3  -6496219.702 3
  22916755.458     1590260.632 4   1239206.303 3
  25208380.105    22230779.831 2  17322664.636 1
  26018832.739    -1174169.179 2   -914916.670 1
 91  4 23 22 55 15.0070000  0  4 06 02 19 15
  23234777.397    -8345017.272 4  -6502566.891 3
  22919865.803     1606618.695 4   1251952.855 4
  25218282.842    22282834.766 2  17363226.852 2
  26018502.965    -1175881.490 2   -916250.861 1
 91  4 23 22 55 30.0070000  0  4 06 02 19 15
  23233232.869    -8353118.920 3  -6508879.823 3
  22922986.050     1623019.583 4   1264732.792 4
  25228203.875    22334942.315 2  17403830.045 1
  26018206.172    -1177488.472 2   -917502.962 1
 91  4 23 22 55 45.0070000  0  4 06 02 19 15
  23231701.831    -8361172.284 3  -6515155.156 3
  22926114.682     1639467.097 4   1277549.052 4
  25238130.004    22387106.331 2  17444477.230 1
  26017913.872    -1178986.142 2   -918669.845 1
 91  4 23 22 56  0.0070000  0  4 06 02 19 15
  23230176.481    -8369179.672 3  -6521394.648 3
  22929254.404     1655958.778 4   1290399.727 4
  25248050.741    22439324.289 2  17485166.477 1
  26017644.056    -1180376.704 2   -919753.307 1
 91  4 23 22 56 15.0070000  0  5 13 06 02 19 15
  25086086.964           0.601 2         0.146 1
  23228664.629    -8377136.576 3  -6527594.922 2
  22932399.230     1672498.836 4   1303287.934 3
  25258016.735    22491600.440 2  17525901.367 1
  26017412.317    -1181655.713 2   -920749.991 1
 91  4 23 22 56 30.0070000  0  5 13 06 02 19 15
  25078098.097      -41961.092 2    -32697.312 1
  23227162.069    -8385052.917 3  -6533763.446 2
  22935556.943     1689077.105 4   1316206.130 3
  25267965.348    22543924.630 2  17566673.433 1
  26017183.580    -1182833.205 2   -921667.366 1
 91  4 23 22 56 45.0070000  0  5 13 06 02 19 15
  25070123.312      -83868.421 2    -65352.495 1
  23225660.714    -8392924.459 3  -6539897.070 2
  22938718.852     1705697.582 4   1329157.176 3
  25277937.345    22596300.559 2  17607485.675 1
  26016984.813    -1183904.881 2   -922502.310 1
 91  4 23 22 57  0.0070000  0  5 13 06 02 19 15
  25062155.430     -125717.503 1    -97962.310 1
  23224174.042    -8400747.546 3  -6545992.846 3
  22941890.656     1722363.562 4   1342143.778 3
  25287915.938    22648731.744 2  17648341.206 1
  26016800.146    -1184867.113 2   -923251.932 1
 91  4 23 22 57 15.0070000  0  4 06 02 19 15
  23222692.763    -8408519.960 3  -6552049.234 3
  22945072.058     1739076.828 4   1355167.122 4
  25297897.227    22701220.065 2  17689241.095 1
  26016635.861    -1185717.432 2   -923914.469 1
 91  4 23 22 57 30.0070000  0  4 06 02 19 15
  23221218.386    -8416242.786 3  -6558066.985 3
  22948262.751     1755835.961 4   1368226.193 4
  25307901.602    22753764.069 2  17730184.375 1
  26016498.554    -1186456.793 2   -924490.509 1
 91  4 23 22 57 45.0070000  0  4 06 02 19 15
  23219756.895    -8423927.766 3  -6564055.242 3
  22951457.939     1772628.964 4   1381311.671 4
  25317913.769    22806351.765 2  17771161.701 1
  26016378.034    -1187097.076 2   -924989.309 1
 91  4 23 22 58  0.0070000  0  4 06 02 19 15
  23218306.197    -8431562.010 3  -6570003.970 3
  22954661.816     1789468.472 4   1394433.388 4
  25327926.539    22858995.763 2  17812182.901 1
  26016276.108    -1187625.195 2   -925400.734 1
 91  4 23 22 58 15.0070000  0  4 06 02 19 15
  23216859.705    -8439152.186 4  -6575918.345 3
  22957876.190     1806347.547 4   1407585.919 4
  25337946.803    22911688.881 2  17853242.379 1
  26016195.165    -1188048.109 2   -925730.191 1
 91  4 23 22 58 30.0070000  0  4 06 02 19 15
  23215428.194    -8446682.887 3  -6581786.388 3
  22961095.362     1823281.402 4   1420781.134 3
  25347999.149    22964446.472 2  17894352.060 1
  26016140.598    -1188350.364 2   -925965.615 1
 91  4 23 22 58 45.0070000  0  4 06 02 19 15
  23214006.280    -8454159.960 3  -6587612.642 3
  22964324.726     1840263.551 4   1434013.996 4
  25358040.091    23017262.088 2  17935506.995 1
  26016086.642    -1188538.101 2   -926111.815 1
 91  4 23 22 59  0.0070000  0  5 13 06 02 19 15
  24998863.246      160243.96012    124864.571 1
  23212593.057    -8461586.410 3  -6593399.440 3
  22967566.086     1857291.048 4   1447282.185 4
  25368108.919    23070132.570 2  17976704.663 1
  26016089.635    -1188613.872 2   -926170.766 1
 91  4 23 22 59 15.0070000  0  5 13 06 02 19 15
  24990987.395      118937.905 2     92677.805 1
  23211191.822    -8468960.519 3  -6599145.466 3
  22970814.034     1874365.310 4   1460586.811 4
  25378177.154    23123059.417 2  18017946.266 1
  26016082.742    -1188575.930 2   -926141.126 1
 91  4 23 22 59 30.0070000  0  5 13 06 02 19 15
  24983145.424       77692.641 2     60538.864 1
  23209798.989    -8476284.948 4  -6604852.777 3
  22974072.182     1891483.080 4   1473925.356 4
  25388246.584    23176039.406 2  18059229.277 1
  26016129.508    -1188427.320 2   -926025.217 1
 91  4 23 22 59 45.0070000  0  5 13 06 02 19 15
  24975316.349       36516.998 2     28453.743 1
  23208416.949    -8483551.080 3  -6610514.647 3
  22977340.215     1908652.839 4   1487304.395 4
  25398349.885    23229080.976 2  18100560.254 1
  26016167.279    -1188159.202 2   -925816.171 1
 91  4 23 23  0  0.0070000  0  5 13 06 02 19 15
  24967482.475       -4594.614 2     -3581.510 1
  23207037.300    -8490764.490 3  -6616135.446 3
  22980615.455     1925868.525 4   1500719.231 4
  25408457.095    23282178.079 2  18141934.509 1
  26016244.025    -1187777.333 2   -925518.530 1
 91  4 23 23  0 15.0070000  0  5 13 06 02 19 15
  24959672.875      -45642.420 2    -35566.674 1
  23205677.143    -8497925.515 3  -6621715.432 3
  22983903.277     1943129.692 4   1514169.491 3
  25418570.586    23335330.252 2  18183351.715 1
  26016343.256    -1187281.856 2   -925132.384 1
 91  4 23 23  0 30.0070000  0  5 13 06 02 19 15
  24951876.475      -86621.387 2    -67498.570 1
  23204327.779    -8505029.325 3  -6627250.827 3
  22987196.194     1960440.808 4   1527658.679 4
  25428697.279    23388541.927 2  18224815.259 1
  26016446.989    -1186667.946 2   -924653.881 1
 91  4 23 23  0 45.0070000  0  5 13 06 02 19 15
  24944090.869     -127530.345 2    -99375.910 1
  23202983.205    -8512074.909 3  -6632740.851 3
  22990497.513     1977802.632 4   1541187.389 4
  25438838.360    23441813.819 2  18266325.738 1
  26016594.784    -1185934.530 2   -924082.322 1
 91  4 23 23  1  0.0070000  0  5 13 06 02 19 15
  24936328.942     -168364.839 2   -131194.872 1
  23201655.732    -8519057.881 3  -6638182.111 3
  22993811.118     1995219.189 4   1554758.738 4
  25448979.441    23495149.936 2  18307886.225 1
  26016755.770    -1185077.285 2   -923414.287 1
 91  4 23 23  1 15.0070000  0  5 13 06 02 19 15
  24928559.215     -209126.039 2   -162956.676 1
  23200337.542    -8525979.698 3  -6643575.691 3
  22997139.415     2012688.777 4   1568371.421 4
  25459140.606    23548548.553 2  18349495.456 1
  26016941.345    -1184097.754 2   -922650.929 1
 91  4 23 23  1 30.0070000  0  5 13 06 02 19 15
  24920827.268     -249816.673 2   -194663.882 1
  23199032.842    -8532842.811 3  -6648923.532 3
  23000474.300     2030208.541 4   1582023.197 4
  25469321.255    23602006.887 2  18391151.169 1
  26017153.897    -1182998.340 2   -921794.128 1
 91  4 23 23  1 45.0070000  0  5 13 06 02 19 15
  24913091.429     -290431.966 2   -226312.380 1
  23197735.942    -8539642.943 3  -6654222.440 3
  23003816.985     2047782.535 4   1595717.085 3
  25479498.912    23655529.027 2  18432856.507 1
  26017385.339    -1181774.833 2   -920840.805 1
 91  4 23 23  2  0.0070000  0  5 13 06 02 19 15
  24905373.564     -330973.253 2   -257902.930 1
  23196456.125    -8546381.316 3  -6659473.065 3
  23007172.566     2065409.049 4   1609452.066 3
  25489696.950    23709113.375 2  18474610.496 1
  26017639.266    -1180428.521 2   -919791.640 1
 91  4 23 23  2 15.0070000  0  5 13 06 02 19 15
  24897683.594     -371435.446 2   -289431.838 1
  23195187.407    -8553052.964 3  -6664671.721 2
  23010536.541     2083092.952 4   1623231.741 3
  25499908.477    23762764.461 2  18516416.418 1
  26017924.368    -1178954.537 2   -918642.910 1
 91  4 23 23  2 30.0070000  0  5 13 06 02 19 15
  24889996.616     -411824.192 2   -320903.648 1
  23193929.473    -8559663.868 3  -6669822.949 3
  23013911.902     2100827.995 4   1637051.363 4
  25510120.013    23816475.955 2  18558269.547 1
  26018218.762    -1177358.685 2   -917399.250 1
 91  4 23 23  2 45.0070000  0  5 13 06 02 19 15
  24882323.423     -452134.398 2   -352314.278 1
  23192685.936    -8566208.927 3  -6674922.973 3
  23017296.554     2118618.903 4   1650914.412 4
  25520363.622    23870252.531 2  18600173.279 1
  26018553.029    -1175636.145 2   -916056.911 1
 91  4 23 23  3  0.0070000  0  5 13 06 02 19 15
  24874661.626     -492372.318 2   -383668.741 1
  23191449.893    -8572694.463 3  -6679976.602 3
  23020692.009     2136459.014 4   1664815.818 3
  25530604.230    23924087.603 2  18642122.578 1
  26018900.489    -1173792.890 2   -914620.585 1
 91  4 23 23  3 15.0070000  0  5 13 06 02 19 15
  24867020.516     -532538.939 2   -414967.340 1
  23190224.644    -8579121.629 3  -6684984.766 3
  23024097.053     2154346.851 4   1678754.401 4
  25540862.227    23977979.752 2  18684116.396 1
  26019274.029    -1171830.351 2   -913091.235 1
 91  4 23 23  3 30.0070000  0  5 13 06 02 19 15
  24859393.802     -572634.274 2   -446210.645 1
  23189009.585    -8585490.746 3  -6689947.693 3
  23027507.785     2172281.844 4   1692729.718 4
  25551125.625    24031928.403 2  18726154.176 1
  26019678.150    -1169748.828 2   -911469.194 1
 91  4 23 23  3 45.0070000  0  5 13 06 02 19 15
  24851774.872     -612661.310 2   -477400.377 1
  23187810.711    -8591804.764 3  -6694867.684 3
  23030929.022     2190260.747 4   1706739.263 4
  25561407.005    24085930.235 2  18768233.413 1
  26020090.071    -1167551.513 2   -909756.916 1
 91  4 23 23  4  0.0070000  0  5 13 06 02 19 15
  24844169.735     -652616.537 2   -508534.548 1
  23186621.435    -8598060.089 3  -6699741.931 3
  23034361.646     2208286.754 4   1720785.509 4
  25571687.190    24139988.527 2  18810356.644 1
  26020530.165    -1165234.786 2   -907951.605 1
 91  4 23 23  4 15.0070000  0  5 13 06 02 19 15
  24836573.298     -692499.942 2   -539612.322 1
  23185442.350    -8604257.058 3  -6704570.713 3
  23037799.365     2226359.400 4   1734868.107 4
  25581982.060    24194102.601 2  18852523.371 1
  26020984.045    -1162798.649 2   -906053.233 1
 91  4 23 23  4 30.0070000  0  5 13 06 02 19 15
  24829000.837     -732314.762 2   -570636.684 1
  23184274.660    -8610398.630 3  -6709356.338 3
  23041244.579     2244475.161 4   1748984.279 4
  25592291.326    24248269.032 2  18894730.877 1
  26021480.208    -1160246.224 2   -904064.291 1
 91  4 23 23  4 45.0070000  0  5 13 06 02 19 15
  24821437.973     -772061.952 2   -601608.288 1
  23183114.465    -8616486.434 3  -6714100.056 3
  23044699.085     2262632.257 4   1763132.681 4
  25602614.683    24302485.904 2  18936977.642 1
  26021989.553    -1157579.178 2   -901985.994 1
 91  4 23 23  5  0.0070000  0  5 13 06 02 19 15
  24813895.501     -811741.630 2   -632527.297 1
  23181967.157    -8622520.500 3  -6718801.898 3
  23048164.690     2280830.213 4   1777312.919 4
  25612941.032    24356752.933 2  18979263.564 1
  26022510.591    -1154797.770 2   -899818.541 1
 91  4 23 23  5 15.0070000  0  5 13 06 02 19 15
  24806353.019     -851352.424 2   -663393.098 1
  23180827.047    -8628499.451 3  -6723460.790 3
  23051635.381     2299070.213 4   1791525.914 4
  25623271.282    24411070.947 2  19021589.192 1
  26023058.911    -1151900.758 2   -897561.066 1
 91  4 23 23  5 30.0070000  0  5 13 06 02 19 15
  24798828.529     -890888.432 2   -694200.322 1
  23179707.624    -8634417.586 3  -6728072.409 2
  23055111.778     2317357.713 4   1805775.808 3
  25633621.311    24465445.393 2  19063959.131 1
  26023644.410    -1148882.178 2   -895209.008 1
 91  4 23 23  5 45.0070000  0  5 13 06 02 19 15
  24791317.824     -930354.640 2   -724953.340 1
  23178587.294    -8640279.893 3  -6732640.405 2
  23058603.462     2335687.331 4   1820058.660 3
  25643982.736    24519870.822 2  19106368.486 1
  26024239.497    -1145747.054 2   -892765.931 1
 91  4 23 23  6  0.0070000  0  5 13 06 02 19 15
  24783818.218     -969756.884 2   -755656.615 1
  23177483.463    -8646092.377 3  -6737169.454 3
  23062097.240     2354052.834 4   1834369.554 4
  25654337.870    24574341.108 2  19148812.862 1
  26024852.567    -1142501.597 2   -890236.848 1
 91  4 23 23  6 15.0070000  0  5 13 06 02 19 15
  24776336.001    -1009083.137 2   -786300.217 1
  23176388.322    -8651843.146 3  -6741650.587 3
  23065600.319     2372465.724 4   1848717.265 4
  25664720.287    24628867.711 2  19191300.954 1
  26025491.725    -1139134.067 2   -887612.698 1
 91  4 23 23  6 30.0070000  0  5 13 06 02 19 15
  24768861.872    -1048335.368 2   -816886.160 1
  23175304.568    -8657534.578 4  -6746085.445 3
  23069112.681     2390923.461 4   1863099.930 4
  25675097.896    24683447.959 2  19233830.929 1
  26026163.558    -1135646.630 2   -884895.146 1
 91  4 23 23  6 45.0070000  0  5 13 06 02 19 15
  24761405.132    -1087511.910 2   -847413.095 1
  23174234.311    -8663164.994 4  -6750472.747 3
  23072634.345     2409427.390 4   1877518.579 4
  25685496.202    24738083.329 2  19276403.814 1
  26026836.299    -1132037.784 2   -882083.018 1
 91  4 23 23  7  0.0070000  0  5 13 06 02 19 15
  24753977.482    -1126611.327 2   -877879.924 1
  23173174.542    -8668732.844 3  -6754811.295 3
  23076165.902     2427978.688 4   1891974.143 4
  25695908.895    24792774.965 2  19319020.574 1
  26027558.197    -1128306.048 2   -879175.088 1
 91  4 23 23  7 15.0070000  0  5 13 06 02 19 15
  24746546.822    -1165639.774 2   -908291.526 1
  23172126.770    -8674244.438 3  -6759106.019 3
  23079702.259     2446570.668 4   1906461.416 4
  25706332.975    24847516.157 2  19361675.917 1
  26028294.483    -1124457.648 2   -876176.264 1
 91  4 23 23  7 30.0070000  0  5 13 06 02 19 15
  24739130.854    -1204590.945 2   -938642.936 1
  23171085.289    -8679693.530 3  -6763352.035 3
  23083249.103     2465209.250 4   1920985.000 4
  25716760.056    24902312.737 2  19404374.437 1
  26029051.464    -1120486.575 2   -873081.862 1
 91  4 23 23  7 45.0070000  0  5 13 06 02 19 15
  24731728.079    -1243467.809 2   -968936.413 1
  23170063.299    -8685083.312 3  -6767551.836 3
  23086804.340     2483891.156 4   1935542.339 4
  25727197.929    24957161.294 2  19447113.480 1
  26029821.630    -1116396.086 2   -869894.386 1
 91  4 23 23  8  0.0070000  0  5 13 06 02 19 15
  24724352.291    -1282269.342 2   -999171.167 1
  23169046.702    -8690412.725 3  -6771704.605 3
  23090365.869     2502616.892 4   1950133.831 4
  25737647.800    25012062.282 2  19489893.344 1
  26030629.269    -1112185.100 2   -866613.064 1
 91  4 23 23  8 15.0070000  0  5 13 06 02 19 15
  24716978.894    -1320991.045 2  -1029343.728 1
  23168045.993    -8695677.507 4  -6775807.008 3
  23093939.403     2521390.649 4   1964762.745 4
  25748099.163    25067019.794 2  19532717.284 1
  26031450.398    -1107849.262 2   -863234.441 1
 91  4 23 23  8 30.0070000  0  5 13 06 02 19 15
  24709629.176    -1359640.003 2  -1059459.556 1
  23167058.476    -8700884.670 4  -6779864.507 3
  23097519.821     2540205.112 4   1979423.374 4
  25758566.415    25122026.247 2  19575579.327 1
  26032296.716    -1103395.991 2   -859764.304 1
 91  4 23 23  8 45.0070000  0  5 13 06 02 19 15
  24702285.461    -1398214.067 2  -1089517.220 1
  23166072.460    -8706032.012 3  -6783875.492 2
  23101111.338     2559062.049 4   1994116.966 3
  25769038.168    25177083.593 2  19618481.404 1
  26033165.510    -1098822.932 2   -856200.957 1
 91  4 23 23  9  0.0070000  0  5 13 06 02 19 15
  24694954.642    -1436714.266 2  -1119517.208 1
  23165105.334    -8711121.175 3  -6787841.058 2
  23104706.143     2577959.633 4   2008842.383 3
  25779534.204    25232190.200 2  19661421.574 1
  26034064.292    -1094131.576 2   -852545.281 1
 91  4 23 23  9 15.0070000  0  5 13 06 02 19 15
  24687643.001    -1475142.736 2  -1149461.262 1
  23164147.195    -8716154.094 3  -6791762.762 2
  23108306.350     2596895.327 4   2023597.492 3
  25790026.034    25287343.506 2  19704398.068 1
  26034966.966    -1089324.151 2   -848799.169 1
 91  4 23 23  9 30.0070000  0  5 13 06 02 19 15
  24680343.950    -1513497.816 2  -1179348.097 1
  23163201.952    -8721129.127 3  -6795639.294 3
  23111917.053     2615870.557 4   2038383.497 4
  25800534.660    25342544.799 2  19747411.990 1
  26035905.317    -1084399.129 2   -844961.382 1
 91  4 23 23  9 45.0070000  0  5 13 06 02 19 15
  24673061.695    -1551777.003 2  -1209175.825 1
  23162268.095    -8726043.846 3  -6799468.921 3
  23115537.345     2634887.365 4   2053201.791 4
  25811044.489    25397796.105 2  19790464.893 1
  26036870.951    -1079354.173 2   -841030.170 1
 91  4 23 23 10  0.0070000  0  5 13 06 02 19 15
  24665794.124    -1589983.505 3  -1238946.918 1
  23161343.835    -8730901.904 3  -6803254.385 3
  23119163.038     2653942.079 4   2068049.638 4
  25821573.200    25453093.570 2  19833553.693 1
  26037856.670    -1074192.735 2   -837008.238 1
 91  4 23 23 10 15.0070000  0  5 13 06 02 19 15
  24658541.543    -1628116.814 3  -1268661.022 1
  23160427.673    -8735702.651 3  -6806995.198 3
  23122798.320     2673034.891 4   2082927.161 4
  25832097.715    25508437.435 2  19876678.697 1
  26038858.574    -1068914.555 2   -832895.305 1
 91  4 23 23 10 30.0070000  0  5 13 06 02 19 15
  24651297.958    -1666182.235 3  -1298322.202 1
  23159524.990    -8740451.671 3  -6810695.704 3
  23126437.502     2692159.924 4   2097829.796 4
  25842632.717    25563821.724 2  19919835.172 1
  26039871.873    -1063525.146 2   -828695.721 1
 91  4 23 23 10 45.0070000  0  5 13 06 02 19 15
  24644063.368    -1704177.669 3  -1327928.836 1
  23158630.710    -8745146.799 3  -6814354.223 3
  23130080.278     2711319.177 4   2112759.098 4
  25853185.116    25619248.047 2  19963024.371 1
  26040927.140    -1058022.478 2   -824407.840 1
 91  4 23 23 11  0.0070000  0  5 13 06 02 19 15
  24636846.769    -1742098.911 3  -1357477.640 1
  23157749.623    -8749783.914 4  -6817967.524 3
  23133735.951     2730516.500 4   2127718.061 4
  25863744.103    25674720.426 2  20006249.475 1
  26042001.899    -1052402.302 2   -820028.461 1
 91  4 23 23 11 15.0070000  0  5 13 06 02 19 15
  24629643.957    -1779944.410 3  -1386967.399 1
  23156879.328    -8754361.586 3  -6821534.508 3
  23137394.912     2749752.777 4   2142707.373 4
  25874303.693    25730239.771 2  20049511.178 1
  26043092.547    -1046663.383 2   -815556.584 1
 91  4 23 23 11 30.0070000  0  5 13 06 02 19 15
  24622454.929    -1817713.412 3  -1416397.577 1
  23156018.622    -8758879.381 3  -6825054.847 3
  23141063.777     2769028.181 4   2157727.180 4
  25884886.368    25785806.354 2  20092809.723 1
  26044212.266    -1040805.483 2   -810991.913 1
 91  4 23 23 11 45.0070000  0  5 13 06 02 19 15
  24615283.893    -1855414.282 2  -1445774.804 1
  23155167.811    -8763345.493 3  -6828534.914 3
  23144740.128     2788334.354 4   2172770.960 4
  25895466.941    25841411.748 2  20136138.500 1
  26045340.990    -1034836.841 2   -806340.988 1
 91  4 23 23 12  0.0070000  0  5 13 06 02 19 15
  24608121.556    -1893040.100 2  -1475093.449 1
  23154329.589    -8767753.126 3  -6831969.407 3
  23148419.785     2807677.712 4   2187843.712 4
  25906052.313    25897061.901 2  20179502.147 1
  26046501.185    -1028750.770 2   -801598.533 1
 91  4 23 23 12 15.0070000  0  5 13 06 02 19 15
  24600981.398    -1930585.802 2  -1504350.017 1
  23153501.262    -8772097.484 4  -6835354.590 3
  23152109.032     2827062.775 4   2202948.957 4
  25916651.480    25952761.627 2  20222904.389 1
  26047679.066    -1022542.422 2   -796760.807 1
 91  4 23 23 12 30.0070000  0  5 13 06 02 19 15
  24593845.437    -1968057.826 2  -1533548.961 1
  23152691.529    -8776384.988 4  -6838695.484 3
  23155802.475     2846482.711 4   2218081.387 4
  25927257.530    26008504.061 2  20266339.912 1
  26048891.725    -1016218.285 2   -791832.871 1
 91  4 23 23 12 45.0070000  0  5 13 06 02 19 15
  24586726.559    -2005463.719 2  -1562696.216 1
  23151879.684    -8780623.163 4  -6841997.930 3
  23159504.312     2865929.801 4   2233234.971 4
  25937875.281    26064281.356 1  20309802.621 1
  26050110.684    -1009786.178 2   -786820.779 1
 91  4 23 23 13  0.0070000  0  4 13 06 02 15
  24579622.384    -2042795.420 2  -1591785.643 1
  23151080.141    -8784804.010 3  -6845255.706 3
  23163212.143     2885411.754 4   2248415.721 4
  26051352.424    -1003237.919 2   -781718.178 1
 91  4 23 23 13 15.0070000  0  4 13 06 02 15
  24572531.994    -2080049.102 2  -1620814.304 1
  23150299.182    -8788923.985 3  -6848466.050 3
  23166922.975     2904931.921 4   2263626.257 4
  26052617.251     -996570.062 2   -776522.402 1
 91  4 23 23 13 30.0070000  0  4 13 06 02 15
  24565456.288    -2117223.124 2  -1649780.932 1
  23149530.814    -8792981.346 4  -6851627.603 3
  23170647.593     2924491.533 4   2278867.516 4
  26053909.657     -989781.303 2   -771232.446 1
 91  4 23 23 13 45.0070000  0  4 13 06 02 15
  24558397.675    -2154317.360 2  -1678685.393 1
  23148767.542    -8796976.199 3  -6854740.482 2
  23174377.612     2944090.350 4   2294139.299 3
  26055220.945     -982871.416 2   -765848.085 1
 91  4 23 23 14  0.0070000  0  4 13 06 02 15
  24551354.349    -2191333.353 2  -1707528.907 1
  23148020.158    -8800910.148 3  -6857805.928 2
  23178113.922     2963726.506 4   2309440.132 3
  26056570.309     -975842.307 2   -760370.874 1
 91  4 23 23 14 15.0070000  0  4 13 06 02 15
  24544322.722    -2228270.890 2  -1736311.249 1
  23147283.872    -8804783.045 3  -6860823.720 2
  23181858.634     2983399.507 4   2324769.776 3
  26057929.873     -968693.874 2   -754800.597 1
 91  4 23 23 14 30.0070000  0  4 13 06 02 15
  24537307.272    -2265124.712 2  -1765028.329 1
  23146559.575    -8808589.607 3  -6863789.852 2
  23185609.934     3003114.534 4   2340132.147 3
  26059313.117     -961420.903 2   -749133.266 1
 91  4 23 23 14 45.0070000  0  4 13 06 02 15
  24530312.222    -2301896.172 2  -1793681.245 1
  23145849.665    -8812331.201 3  -6866705.367 2
  23189368.431     3022869.854 4   2355525.891 3
  26060715.242     -954024.990 2   -743370.208 1
 91  4 23 23 15  0.0070000  0  4 13 06 02 15
  24523333.347    -2338586.169 2  -1822270.755 1
  23145149.344    -8816009.180 3  -6869571.293 2
  23193134.424     3042663.888 4   2370949.817 3
  26062152.451     -946507.469 2   -737512.398 1
 91  4 23 23 15 15.0070000  0  4 13 06 02 15
  24516367.971    -2375190.231 2  -1850793.220 1
  23144459.528    -8819619.035 3  -6872384.127 2
  23196910.616     3062500.826 4   2386407.194 2
  26063607.337     -938864.009 2   -731556.378 1
 91  4 23 23 15 30.0070000  0  4 13 06 02 15
  24509421.484    -2411709.134 2  -1879249.301 1
  23143789.187    -8823161.415 3  -6875144.419 2
  23200695.193     3082379.633 4   2401897.161 3
  26065087.115     -931095.299 2   -725502.856 1
 91  4 23 23 15 45.0080000  0  4 13 06 02 15
  24502485.479    -2448146.050 2  -1907641.588 1
  23143124.249    -8826637.504 3  -6877853.019 2
  23204486.064     3102300.473 4   2417419.909 3
  26066586.380     -923201.882 2   -719351.905 1
 91  4 23 23 16  0.0080000  0  4 13 06 02 15
  24495572.270    -2484492.560 2  -1935963.377 1
  23142477.893    -8830043.070 3  -6880506.652 2
  23208284.436     3122264.179 4   2432976.064 3
  26068104.828     -915181.485 2   -713102.253 1
 91  4 23 23 16 15.0080000  0  4 13 06 02 15
  24488670.447    -2520751.773 2  -1964217.148 1
  23141843.831    -8833379.399 3  -6883106.381 2
  23212087.903     3142270.842 4   2448565.680 3
  26069668.847     -907034.431 2   -706753.886 1
 91  4 23 23 16 30.0080000  0  4 13 06 02 15
  24481787.209    -2556919.830 2  -1992399.928 1
  23141221.164    -8836642.683 3  -6885649.159 2
  23215902.468     3162323.839 4   2464191.396 3
  26071240.056     -898756.980 2   -700303.928 1
 91  4 23 23 16 45.0080000  0  4 13 06 02 15
  24474918.070    -2593002.212 2  -2020516.271 1
  23140610.188    -8839838.661 3  -6888139.375 3
  23219729.013     3182417.148 4   2479848.641 3
  26072838.252     -890355.163 2   -693756.880 1
 91  4 23 23 17  0.0080000  0  4 13 06 02 15
  24468073.205    -2628992.562 2  -2048560.561 1
  23140018.399    -8842960.813 3  -6890572.224 3
  23223563.358     3202557.048 4   2495542.071 3
  26074460.128     -881822.363 2   -687107.914 1
 91  4 23 23 17 15.0080000  0  5 13 06 02 19 15
  24461244.830    -2664889.240 2  -2076531.949 1
  23139439.200    -8846007.620 3  -6892946.442 3
  23227405.198     3222744.771 4   2511272.642 3
  26130448.767       32862.01812     25579.929 1
  26076101.486     -873157.257 2   -680355.975 1
 91  4 23 23 17 30.0080000  0  4 13 06 02 15
  24454426.053    -2700691.679 2  -2104429.767 1
  23138872.294    -8848978.623 3  -6895261.480 2
  23231257.237     3242980.157 4   2527040.514 3
  26077789.620     -864359.479 2   -673500.409 1
 91  4 23 23 17 45.0080000  0  4 13 06 02 15
  24447631.558    -2736405.320 3  -2132258.400 1
  23138320.074    -8851879.381 3  -6897521.771 3
  23235114.966     3263257.534 4   2542841.087 3
  26079486.445     -855434.688 2   -666546.055 1
 91  4 23 23 18  0.0080000  0  4 13 06 02 15
  24440853.247    -2772030.022 3  -2160017.811 1
  23137782.249    -8854709.753 3  -6899727.228 2
  23238983.487     3283576.726 4   2558674.236 3
  26081200.963     -846382.865 2   -659492.617 1
 91  4 23 23 18 15.0080000  0  4 13 06 02 15
  24434091.428    -2807563.032 2  -2187706.100 1
  23137258.210    -8857467.386 3  -6901875.920 3
  23242856.205     3303939.938 4   2574541.761 3
  26082952.346     -837201.680 2   -652338.304 1
 91  4 23 23 18 30.0080000  0  4 13 06 02 15
  24427346.404    -2843001.257 2  -2215320.142 1
  23136745.567    -8860148.858 3  -6903965.348 3
  23246739.419     3324350.132 4   2590445.822 3
  26084728.316     -827888.045 2   -645080.884 1
 91  4 23 23 18 45.0080000  0  4 13 06 02 15
  24420616.657    -2878343.851 2  -2242859.658 1
  23136249.710    -8862753.471 3  -6905994.910 3
  23250633.723     3344807.780 4   2606386.850 3
  26086521.081     -818441.215 2   -637719.694 1
 91  4 23 23 19  0.0080000  0  4 13 06 02 15
  24413913.898    -2913595.921 2  -2270328.653 1
  23135770.640    -8865286.183 4  -6907968.426 3
  23254532.521     3365307.632 4   2622360.759 3
  26088340.214     -808866.238 2   -630258.629 1
 91  4 23 23 19 15.0080000  0  4 13 06 02 15
  24407218.633    -2948758.519 2  -2297727.959 1
  23135301.762    -8867748.481 3  -6909887.063 3
  23258441.213     3385847.835 4   2638366.128 3
  26090186.037     -799164.766 2   -622698.978 1
 91  4 23 23 19 30.0080000  0  4 13 06 02 15
  24400547.354    -2983830.234 2  -2325056.440 1
  23134847.280    -8870139.034 4  -6911749.811 3
  23262359.205     3406429.522 4   2654403.822 3
  26092062.145     -789335.706 2   -615039.974 1
 91  4 23 23 19 45.0080000  0  4 13 06 02 15
  24393888.962    -3018810.906 2  -2352313.942 1
  23134406.583    -8872457.428 4  -6913556.332 3
  23266282.590     3427052.789 4   2670473.896 3
  26093952.928     -779378.866 2   -607281.344 1
 91  4 23 23 20  0.0080000  0  4 13 06 02 15
  24387246.763    -3053701.521 2  -2379501.307 1
  23133977.282    -8874704.906 4  -6915307.594 3
  23270214.063     3447716.082 4   2686575.172 3
  26095881.797     -769295.396 2   -599424.013 1
 91  4 23 23 20 15.0080000  0  5 13 06 02 19 15
  24380626.142    -3088501.826 2  -2406618.313 1
  23133565.962    -8876881.226 4  -6917003.406 3
  23274151.539     3468419.213 4   2702707.483 4
  26260538.012       10279.78012      7983.496 1
  26097814.862     -759085.194 2   -591467.974 1
 91  4 23 23 20 30.0080000  0  5 13 06 02 19 15
  24374024.410    -3123211.618 2  -2433664.722 1
  23133162.749    -8878986.360 4  -6918643.760 3
  23278099.206     3489162.129 4   2718870.791 3
  26271449.851       21743.533 2     16916.418 1
  26099775.202     -748748.354 2   -583413.263 1
 91  4 23 23 20 45.0080000  0  5 13 06 02 19 15
  24367436.779    -3157831.609 3  -2460641.194 1
  23132776.314    -8881021.114 4  -6920229.265 3
  23282054.071     3509943.728 4   2735064.253 3
  26282357.502       79065.193 2     61582.523 1
  26101773.016     -738285.980 2   -575260.722 1
 91  4 23 23 21  0.0080000  0  5 13 06 02 19 15
  24360865.620    -3192362.674 2  -2487548.368 1
  23132399.773    -8882986.422 3  -6921760.658 3
  23286016.125     3530762.679 4   2751286.821 3
  26293274.149      136429.371 2    106281.712 1
  26103789.424     -727699.026 2   -567011.119 1
 91  4 23 23 21 15.0080000  0  5 13 06 02 19 15
  24354312.758    -3226804.602 3  -2514386.104 1
  23132039.426    -8884882.123 3  -6923237.803 3
  23289987.777     3551618.948 4   2767538.467 3
  26304192.584      193836.024 2    151014.042 1
  26105822.017     -716987.510 2   -558664.443 1
 91  4 23 23 21 30.0080000  0  5 13 06 02 19 15
  24347769.790    -3261157.874 2  -2541154.842 1
  23131693.161    -8886708.461 3  -6924661.009 2
  23293962.125     3572511.743 4   2783818.474 2
  26315121.822      251284.535 2    195778.975 1
  26107888.785     -706151.932 2   -550221.213 1
 91  4 23 23 21 45.0080000  0  5 13 06 02 19 15
  24341253.198    -3295421.368 3  -2567853.526 1
  23131354.697    -8888464.699 3  -6926029.477 2
  23297943.070     3593441.602 4   2800127.452 3
  26326064.844      308775.440 2    240577.319 1
  26109974.741     -695191.514 2   -541680.591 1
 91  4 23 23 22  0.0080000  0  5 13 06 02 19 15
  24334751.003    -3329593.784 3  -2594481.236 1
  23131039.014    -8890149.369 3  -6927342.222 2
  23301933.908     3614409.747 4   2816466.246 2
  26337018.058      366309.481 2    285408.960 1
  26112084.376     -684105.187 2   -533041.872 1
 91  4 23 23 22 15.0080000  0  5 13 06 02 19 15
  24328265.289    -3363675.007 3  -2621037.906 1
  23130731.724    -8891762.775 3  -6928599.396 2
  23305932.242     3635415.928 4   2832834.687 2
  26347971.281      423886.236 2    330273.733 1
  26114217.700     -672893.135 2   -524305.119 1
 91  4 23 23 22 30.0080000  0  5 13 06 02 19 15
  24321795.472    -3397664.927 3  -2647523.368 1
  23130439.128    -8893304.757 3  -6929800.910 2
  23309936.866     3656459.472 4   2849232.275 2
  26358944.283      481505.299 1    375171.765 1
  26116378.011     -661555.453 2   -515470.480 1
 91  4 23 23 22 45.0080000  0  5 13 06 02 19 15
  24315345.139    -3431566.584 3  -2673940.123 1
  23130152.831    -8894778.337 3  -6930949.135 2
  23313949.884     3677537.255 4   2865656.524 2
  26369909.188      539163.380 1    420099.900 1
  26118552.404     -650095.382 2   -506540.600 1
 91  4 23 23 23  0.0080000  0  5 13 06 02 19 15
  24308908.295    -3465377.073 3  -2700285.832 1
  23129891.706    -8896180.622 3  -6932041.809 2
  23317962.012     3698651.840 4   2882109.454 2
  26380892.687      596862.997 2    465060.501 1
  26120757.379     -638510.009 2   -497512.955 1
 91  4 23 23 23 15.0080000  0  5 13 06 02 19 15
  24302493.935    -3499091.823 3  -2726556.884 1
  23129636.584    -8897507.062 3  -6933075.377 2
  23321991.520     3719807.666 4   2898594.517 2
  26391880.382      654608.230 2    510056.708 1
  26122991.731     -626794.730 2   -488384.153 1
 91  4 23 23 23 30.0080000  0  5 13 06 02 19 15
  24296097.261    -3532712.075 3  -2752754.247 1
  23129396.451    -8898759.033 3  -6934050.798 3
  23326023.131     3741002.906 4   2915110.370 3
  26402887.857      712397.255 2    555086.972 1
  26125242.573     -614951.385 2   -479155.450 1
 91  4 23 23 23 45.0080000  0  5 13 06 02 19 15
  24289714.983    -3566240.171 3  -2778880.015 1
  23129173.106    -8899938.925 3  -6934970.302 2
  23330065.535     3762234.943 4   2931654.684 3
  26413883.650      770227.410 2    600149.209 1
  26127520.996     -602982.533 2   -469829.153 1
 91  4 23 23 24  0.0080000  0  5 13 06 02 19 15
  24283356.080    -3599672.297 3  -2804930.877 1
  23128967.150    -8901042.884 3  -6935830.509 2
  23334112.729     3783507.419 4   2948230.679 2
  26424891.125      828102.093 1    645246.236 1
  26129821.598     -590884.334 2   -460401.884 1
 91  4 23 23 24 15.0080000  0  5 13 06 02 19 15
  24277013.371    -3633010.391 3  -2830908.457 1
  23128768.086    -8902073.024 3  -6936633.180 3
  23338167.427     3804817.864 4   2964836.225 3
  26435911.199      886018.810 2    690376.006 1
  26132153.383     -578658.851 2   -450875.524 1
 91  4 23 23 24 30.0080000  0  4 13 06 02 15
  24270681.760    -3666252.441 3  -2856811.225 1
  23128584.318    -8903027.422 3  -6937376.848 2
  23342229.908     3826167.892 4   2981472.593 3
  26134498.963     -566304.722 2   -441248.972 1
 91  4 23 23 24 45.0080000  0  4 13 06 02 15
  24264377.721    -3699398.653 3  -2882639.302 1
  23128419.727    -8903906.236 3  -6938061.625 2
  23346304.088     3847557.009 4   2998139.421 2
  26136868.825     -553822.151 2   -431522.164 1
 91  4 23 23 25  0.0080000  0  4 13 06 02 15
  24258090.477    -3732446.075 3  -2908390.399 1
  23128268.931    -8904706.702 3  -6938685.349 2
  23350379.168     3868987.889 4   3014838.824 2
  26139271.658     -541208.484 2   -421693.295 1
 91  4 23 23 25 15.0080000  0  4 13 06 02 15
  24251817.019    -3765398.659 3  -2934067.603 1
  23128127.428    -8905432.592 3  -6939250.937 2
  23354466.236     3890456.149 4   3031567.363 2
  26141703.573     -528467.626 2   -411765.301 1
 91  4 23 23 25 30.0080000  0  4 13 06 02 15
  24245566.046    -3798252.437 3  -2959667.847 1
  23128006.018    -8906079.960 3  -6939755.374 2
  23358560.205     3911965.737 4   3048328.059 2
  26144154.980     -515595.953 2   -401735.475 1
 91  4 23 23 25 45.0080000  0  4 13 06 02 15
  24239328.561    -3831008.681 3  -2985192.005 1
  23127895.392    -8906650.532 3  -6940199.947 2
  23362658.371     3933514.492 4   3065119.288 2
  26146621.071     -502595.169 2   -391604.980 1
 91  4 23 23 26  0.0080000  0  4 13 06 02 15
  24233114.164    -3863667.803 3  -3010640.559 1
  23127802.758    -8907144.560 3  -6940584.888 3
  23366767.025     3955101.770 4   3081940.550 2
  26149123.441     -489465.840 2   -381374.246 1
 91  4 23 23 26 15.0080000  0  4 13 06 02 15
  24226918.351    -3896235.040 3  -3036017.442 1
  23127720.611    -8907567.137 3  -6940914.155 3
  23370882.275     3976722.331 4   3098787.745 2
  26151636.595     -476213.008 2   -371047.300 1
 91  4 23 23 26 30.0080000  0  4 13 06 02 15
  24220736.934    -3928706.769 3  -3061319.988 1
  23127658.854    -8907914.801 3  -6941185.055 2
  23375002.621     3998379.457 4   3115663.404 2
  26154194.430     -462833.485 2   -360621.649 1
 91  4 23 23 26 45.0080000  0  4 13 06 02 15
  24214580.392    -3961085.695 3  -3086550.213 1
  23127603.398    -8908190.493 3  -6941399.855 2
  23379129.868     4020069.893 4   3132565.044 2
  26156760.354     -449330.349 2   -350099.764 1
 91  4 23 23 27  0.0080000  0  4 13 06 02 15
  24208433.448    -3993369.565 3  -3111706.355 1
  23127564.423    -8908391.709 3  -6941556.637 3
  23383264.906     4041795.724 4   3149494.258 2
  26159352.060     -435701.525 2   -339479.887 1
 91  4 23 23 27 15.0080000  0  4 13 06 02 15
  24202311.685    -4025553.916 3  -3136784.908 1
  23127543.439    -8908514.233 3  -6941652.084 2
  23387404.438     4063560.839 4   3166454.092 2
  26161966.548     -421942.756 2   -328758.638 1
 91  4 23 23 27 30.0080000  0  4 13 06 02 15
  24196203.716    -4057639.664 3  -3161786.694 1
  23127536.537    -8908559.011 3  -6941686.947 2
  23391553.262     4085364.014 4   3183443.583 2
  26164616.712     -408055.168 2   -317937.146 1
 91  4 23 23 27 45.0080000  0  4 13 06 02 15
  24190115.231    -4089630.533 3  -3186714.535 1
  23127543.133    -8908529.802 3  -6941664.167 3
  23395705.393     4107201.231 4   3200459.590 2
  26167285.767     -394042.592 2   -307018.236 1
 91  4 23 23 28  0.0080000  0  4 13 06 02 15
  24184050.730    -4121525.948 3  -3211567.955 1
  23127562.625    -8908426.047 3  -6941583.309 2
  23399873.404     4129072.720 4   3217502.309 2
  26169968.310     -379904.688 2   -296001.659 1
 91  4 23 23 28 15.0080000  0  4 13 06 02 15
  24177994.623    -4153325.673 3  -3236346.832 1
  23127592.901    -8908247.696 3  -6941444.307 2
  23404039.923     4150978.391 4   3234571.662 2
  26172681.130     -365641.673 2   -284887.580 1
 91  4 23 23 28 30.0080000  0  4 13 06 02 15
  24171961.603    -4185031.856 3  -3261052.855 1
  23127641.465    -8907996.669 3  -6941248.660 3
  23408214.826     4172915.854 4   3251665.810 2
  26175423.632     -351255.829 2   -273677.704 1
 91  4 23 23 28 45.0080000  0  4 13 06 02 15
  24165944.768    -4216640.563 3  -3285682.816 1
  23127702.026    -8907669.273 3  -6940993.539 3
  23412395.732     4194888.684 4   3268787.491 2
  26178187.119     -336743.203 2   -262369.181 1
 91  4 23 23 29  0.0080000  0  4 13 06 02 15
  24159947.713    -4248154.603 3  -3310239.169 1
  23127782.070    -8907268.283 3  -6940681.087 2
  23416585.338     4216893.706 4   3285934.244 2
  26180971.894     -322107.106 2   -250964.440 1
 91  4 23 23 29 15.0080000  0  4 13 06 02 15
  24153974.355    -4279569.558 3  -3334718.262 1
  23127871.703    -8906789.386 3  -6940307.877 3
  23420777.630     4238935.014 4   3303109.303 2
  26183774.347     -307343.327 2   -239460.168 1
 91  4 23 23 29 30.0080000  0  4 13 06 02 15
  24148009.984    -4310884.392 3  -3359119.332 1
  23127974.538    -8906231.567 3  -6939873.184 3
  23424980.123     4261013.347 4   3320313.213 2
  26186607.992     -292450.927 2   -227855.673
 91  4 23 23 29 45.0080000  0  4 13 06 02 15
  24142071.692    -4342099.378 3  -3383442.571 1
  23128095.651    -8905595.026 3  -6939377.164 2
  23429187.414     4283128.352 4   3337545.688 2
  26189468.911     -277430.357 2   -216151.344 1
 91  4 23 23 30  0.0080000  0  4 13 06 02 15
  24136150.188    -4373215.249 3  -3407688.562 1
  23128233.856    -8904880.549 4  -6938820.412 3
  23433403.395     4305278.752 4   3354805.741 2
  26192357.105     -262282.641 2   -204347.822 1
 91  4 23 23 30 15.0080000  0  5 13 06 02 19 15
  24130250.278    -4404225.846 3  -3431852.574 1
  23128386.450    -8904082.193 3  -6938198.285 3
  23437625.074     4327470.436 4   3372097.966 2
  26702743.875       57588.19312     44845.488 1
  26195259.696     -247001.601 2   -192440.524 1
 91  4 23 23 30 30.0080000  0  4 13 06 02 15
  24124369.843    -4435129.339 3  -3455933.102 1
  23128554.338    -8903198.019 3  -6937509.320 2
  23441855.740     4349704.869 4   3389423.488 2
  26198194.971     -231586.099 2   -180428.424 1
 91  4 23 23 30 45.0080000  0  5 13 06 02 19 15
  24118509.501    -4465932.653 3  -3479935.603 1
  23128735.707    -8902235.075 3  -6936758.946 2
  23446093.909     4371974.869 4   3406776.747 2
  26725164.455       34087.58712     26533.281 1
  26201155.121     -216043.307 2   -168317.153 1
 91  4 23 23 31  0.0080000  0  5 13 06 02 19 15
  24112662.055    -4496632.990 3  -3503857.816 1
  23128935.373    -8901190.456 3  -6935944.952 2
  23450340.768     4394283.119 4   3424159.799 2
  26736398.574       22311.41412     17356.986 1
  26204127.260     -200370.285 2   -156104.456 1
 91  4 23 23 31 15.0080000  0  5 13 06 02 19 15
  24106843.376    -4527229.401 3  -3527699.072 1
  23129151.223    -8900063.478 3  -6935066.766 3
  23454591.528     4416629.936 4   3441572.905 2
  26747636.898       81337.970 2     63351.517 1
  26207148.268     -184566.308 2   -143789.623 1
 91  4 23 23 31 30.0080000  0  5 13 06 02 19 15
  24101041.798    -4557722.500 3  -3551459.838 1
  23129377.867    -8898854.397 3  -6934124.610 3
  23458852.173     4439014.633 4   3459015.521 2
  26758870.118      140403.563 2    109376.482 1
  26210168.674     -168632.273 2   -131373.442 1
 91  4 23 23 31 45.0080000  0  5 13 06 02 19 15
  24095255.803    -4588110.870 3  -3575138.996 1
  23129625.494    -8897562.247 3  -6933117.710 2
  23463120.619     4461438.141 4   3476488.389 2
  26770109.637      199508.873 2    155432.393 1
  26213234.956     -152567.419 2   -118855.302 1
 91  4 23 23 32  0.0080000  0  5 13 06 02 19 15
  24089495.888    -4618391.419 3  -3598734.141 1
  23129888.408    -8896183.925 3  -6932043.672 3
  23467391.760     4483902.854 4   3493993.364 2
  26781372.244      258656.400 2    201521.482 1
  26216314.719     -136368.757 2   -106232.935
 91  4 23 23 32 15.0080000  0  5 13 06 02 19 15
  24083751.869    -4648563.314 3  -3622244.563 1
  23130168.414    -8894718.616 3  -6930901.859 2
  23471679.392     4506409.596 4   3511531.086 2
  26792639.038      317846.644 2    247643.841 1
  26219422.969     -120035.490 2    -93505.746 1
 91  4 23 23 32 30.0080000  0  5 13 06 02 19 15
  24078030.929    -4678629.575 3  -3645672.706 1
  23130462.511    -8893169.043 3  -6929694.377 2
  23475965.829     4528955.384 4   3529099.235 2
  26803897.150      377076.371 2    293796.740 1
  26222557.002     -103570.632 2    -80675.910 1
 91  4 23 23 32 45.0080000  0  5 13 06 02 19 15
  24072329.777    -4708586.451 3  -3669015.655 1
  23130774.599    -8891531.606 3  -6928418.473 2
  23480265.449     4551543.499 4   3546700.342 2
  26815191.533      436348.701 2    339982.770 1
  26225707.220      -86970.685 2    -67740.969 1
 91  4 23 23 33  0.0080000  0  5 13 06 02 19 15
  24066652.000    -4738428.358 3  -3692268.974 1
  23131102.568    -8889800.852 3  -6927069.799 2
  23484572.267     4574179.201 4   3564338.583 2
  26826488.612      495668.900 2    386206.149 1
  26228895.218      -70230.711 2    -54696.840 1
 91  4 23 23 33 15.0080000  0  5 13 06 02 19 15
  24060990.722    -4768159.567 3  -3715436.044 1
  23131450.630    -8887981.018 3  -6925651.759 2
  23488887.183     4596857.978 4   3582010.318 2
  26837779.095      555032.477 2    432463.329 1
  26232108.091      -53355.062 2    -41546.925 1
 91  4 23 23 33 30.0080000  0  4 13 06 02 15
  24055358.219    -4797786.215 3  -3738521.632 1
  23131810.977    -8886078.275 4  -6924169.054 2
  23493213.484     4619573.335 4   3599710.646 2
  26235348.849      -36349.882 2    -28296.044 1
 91  4 23 23 33 45.0080000  0  4 13 06 02 15
  24049740.112    -4827306.298 3  -3761524.184 1
  23132190.519    -8884090.515 3  -6922620.150 2
  23497540.388     4642327.060 4   3617440.801 2
  26238607.293      -19213.137 2    -14942.843 1
 91  4 23 23 34  0.0080000  0  4 13 06 02 15
  24044142.083    -4856715.331 3  -3784440.202 1
  23132585.042    -8882013.357 3  -6921001.549 2
  23501876.593     4665123.311 4   3635204.131 2
  26241887.917       -1940.891 2     -1483.826 1
 91  4 23 23 34 15.0080000  0  4 13 06 02 15
  24038571.345    -4886011.325 3  -3807268.162 1
  23132998.455    -8879844.977 3  -6919311.892 3
  23506224.480     4687963.726 4   3653001.855 2
  26245204.226       15468.451 2     12081.806 1
 91  4 23 23 34 30.0080000  0  4 13 06 02 15
  24033016.487    -4915192.979 3  -3830007.007 1
  23133427.765    -8877583.951 3  -6917550.067 2
  23510579.862     4710849.396 4   3670834.810 2
  26248550.506       33015.955 2     25755.274 1
 91  4 23 23 34 45.0080000  0  4 13 06 02 15
  24027485.021    -4944266.849 3  -3852661.874 1
  23133873.252    -8875236.957 3  -6915721.212 2
  23514943.647     4733773.372 4   3688697.678 2
  26251916.880       50694.813 2     39531.074 1
 91  4 23 23 35  0.0080000  0  4 13 06 02 15
  24021969.740    -4973230.013 3  -3875230.462 1
  23134338.527    -8872801.112 3  -6913823.115 3
  23519314.316     4756738.277 4   3706592.429 2
  26255295.539       68507.998 2     53411.477 1
 91  4 23 23 35 15.0080000  0  4 13 06 02 15
  24016480.233    -5002080.294 3  -3897711.115 1
  23134819.700    -8870274.246 3  -6911854.120 3
  23523691.886     4779745.945 4   3724520.473 2
  26258714.673       86457.430 2     67398.053
 91  4 23 23 35 30.0080000  0  4 13 06 02 15
  24011013.821    -5030815.655 3  -3920102.231 1
  23135317.354    -8867654.211 3  -6909812.523 3
  23528079.953     4802798.197 4   3742483.267 2
  26262159.582      104544.813 2     81492.177 1
 91  4 23 23 35 45.0080000  0  4 13 06 02 15
  24005568.088    -5059432.083 3  -3942400.653 1
  23135833.592    -8864937.134 3  -6907695.333 3
  23532473.106     4825898.751 4   3760483.668 3
  26265623.084      122773.839 2     95696.544 1
 91  4 23 23 36  0.0080000  0  4 13 06 02 15
  24000144.543    -5087929.219 3  -3964606.101 1
  23136371.120    -8862122.715 3  -6905502.231 3
  23536879.757     4849047.817 4   3778521.919 3
  26269120.465      141144.644 2    110011.535 1
 91  4 23 23 36 15.0080000  0  4 13 06 02 15
  23994742.584    -5116307.860 3  -3986719.294 1
  23136923.341    -8859211.786 3  -6903233.983 2
  23541292.106     4872244.024 4   3796596.858 2
  26272646.325      159656.041 2    124435.954 1
 91  4 23 23 36 30.0080000  0  4 13 06 02 15
  23989364.907    -5144569.039 3  -4008740.843 1
  23137498.945    -8856205.423 3  -6900891.327 3
  23545714.637     4895486.071 4   3814707.600 2
  26276198.570      178306.727 2    138969.057 1
 91  4 23 23 36 45.0080000  0  4 13 06 02 15
  23984011.817    -5172712.802 3  -4030670.959 1
  23138086.232    -8853103.541 3  -6898474.275 2
  23550146.469     4918773.693 4   3832853.782 2
  26279772.095      197096.669 2    153610.552 1
 91  4 23 23 37  0.0080000  0  4 13 06 02 15
  23978673.708    -5200740.398 3  -4052510.588 1
  23138694.215    -8849907.480 3  -6895983.846 2
  23554586.703     4942105.400 4   3851034.310 2
  26283367.207      216024.215 2    168359.314 1
 91  4 23 23 37 15.0080000  0  4 13 06 02 15
  23973363.781    -5228649.825 3  -4074258.076 1
  23139318.680    -8846615.374 3  -6893418.550 2
  23559039.213     4965483.054 4   3869250.662 2
  26286998.588      235091.162 2    183216.677 1
 91  4 23 23 37 30.0080000  0  4 13 06 02 15
  23968080.545    -5256440.640 3  -4095913.139 1
  23139967.130    -8843226.689 3  -6890777.994 2
  23563493.233     4988906.768 4   3887502.922 2
  26290663.256      254297.736 2    198182.892 1
 91  4 23 23 37 45.0080000  0  4 13 06 02 15
  23962809.593    -5284115.063 3  -4117477.533 1
  23140630.273    -8839743.488 3  -6888063.772 2
  23567960.436     5012374.140 4   3905789.200 2
  26294339.310      273641.775 2    213256.145 1
 91  4 23 23 38  0.0080000  0  4 13 06 02 15
  23957563.525    -5311670.556 3  -4138949.271 1
  23141310.203    -8836163.288 3  -6885274.015 2
  23572433.642     5035887.394 4   3924111.200 2
  26298035.746      293125.396 2    228438.201 1
 91  4 23 23 38 15.0080000  0  4 13 06 02 15
  23952343.240    -5339110.865 3  -4160331.236 1
  23142006.921    -8832490.035 3  -6882411.721 2
  23576915.539     5059442.269 4   3942465.656 2
  26301775.659      312744.400 2    243725.762 1
 91  4 23 23 38 30.0080000  0  4 13 06 02 15
  23947146.033    -5366437.272 3  -4181624.481 1
  23142727.623    -8828725.087 3  -6879478.001 2
  23581402.531     5083037.181 4   3960851.294 2
  26305526.959      332497.228 2    259117.575 1
 91  4 23 23 38 45.0080000  0  4 13 06 02 15
  23941964.427    -5393650.344 3  -4202829.409 1
  23143462.714    -8824868.851 3  -6876473.121 2
  23585900.621     5106671.590 4   3979267.698 2
  26309323.236      352383.230 2    274613.161 1
 91  4 23 23 39  0.0080000  0  4 13 06 02 15
  23936808.891    -5420748.369 3  -4223944.669 1
  23144210.395    -8820919.629 3  -6873395.773 2
  23590409.199     5130346.893 4   3997715.995 2
  26313127.000      372403.863 2    290213.716 1
 91  4 23 23 39 15.0080000  0  4 13 06 02 15
  23931675.246    -5447734.456 3  -4244972.694 1
  23144976.669    -8816880.664 3  -6870248.531 2
  23594919.880     5154059.378 4   4016193.242 2
  26316961.947      392555.802 2    305916.482 1
 91  4 23 23 39 30.0080000  0  4 13 06 02 15
  23926559.287    -5474612.960 3  -4265916.907 1
  23145763.019    -8812756.257 3  -6867034.698 3
  23599436.851     5177804.619 4   4034696.012 2
  26320822.677      412834.257 2    321717.916 1
 91  4 23 23 39 45.0080000  0  4 13 06 02 15
  23921467.610    -5501379.091 3  -4286773.572 1
  23146563.766    -8808541.658 3  -6863750.585 2
  23603964.319     5201587.212 4   4053227.900 2
  26324710.385      433243.943 2    337621.559 1
 91  4 23 23 40  0.0080000  0  4 13 06 02 15
  23916395.120    -5528034.671 3  -4307544.042 1
  23147385.802    -8804238.655 3  -6860397.564 2
  23608498.077     5225405.064 4   4071787.285 2
  26328612.777      453782.710 2    353625.880 1
 91  4 23 23 40 15.0080000  0  4 13 06 02 15
  23911340.926    -5554584.325 3  -4328231.973 1
  23148222.522    -8799851.799 3  -6856979.213 2
  23613035.439     5249253.259 4   4090370.303 2
  26332548.455      474445.970 2    369727.109 1
 91  4 23 23 40 30.0080000  0  4 13 06 02 15
  23906308.004    -5581019.127 3  -4348830.446 1
  23149073.631    -8795372.164 3  -6853488.567 2
  23617582.390     5273140.595 4   4108983.827 2
  26336499.717      495242.121 2    385931.873 1
 91  4 23 23 40 45.0080000  0  4 13 06 02 15
  23901299.373    -5607345.528 3  -4369344.441 1
  23149943.629    -8790806.108 3  -6849930.586 2
  23622134.733     5297060.345 4   4127622.581 2
  26340478.567      516164.587 2    402235.132 1
 91  4 23 23 41  0.0080000  0  4 13 06 02 15
  23896312.929    -5633562.288 3  -4389773.009 1
  23150827.116    -8786152.588 3  -6846304.460 2
  23626689.484     5321013.308 4   4146287.206 2
  26344488.592      537214.468 2    418637.644 1
 91  4 23 23 41 15.0080000  0  4 13 06 02 15
  23891346.266    -5659668.212 3  -4410115.262 1
  23151725.296    -8781410.421 3  -6842609.263 3
  23631256.224     5345000.498 4   4164978.488 3
  26348517.804      558392.638 2    435140.084 1
 91  4 23 23 41 30.0080000  0  4 13 06 02 15
  23886397.594    -5685665.577 3  -4430372.826 1
  23152652.548    -8776581.875 3  -6838846.718 3
  23635827.753     5369019.352 4   4183694.519 3
  26352571.891      579696.505 2    451740.613 1
 91  4 23 23 41 45.0080000  0  4 13 06 02 15
  23881468.701    -5711553.866 3  -4450545.459 1
  23153582.811    -8771666.201 3  -6835016.323 3
  23640404.090     5393070.400 4   4202435.578 2
  26356656.568      601126.327 2    468439.117 1
 91  4 23 23 42  0.0080000  0  4 13 06 02 15
  23876562.599    -5737333.169 3  -4470633.144 1
  23154538.245    -8766663.776 4  -6831118.301 3
  23644983.115     5417153.150 4   4221201.387 2
  26360759.228      622681.683 2    485235.567 1
 91  4 23 23 42 15.0080000  0  4 13 06 02 15
  23871681.083    -5763000.653 3  -4490633.688 1
  23155508.974    -8761571.565 3  -6827150.329 2
  23649576.239     5441270.283 4   4239993.944 2
  26364879.573      644365.468 2    502132.000 1
 91  4 23 23 42 30.0080000  0  4 13 06 02 15
  23866819.645    -5788561.919 3  -4510551.482 1
  23156486.902    -8756395.359 3  -6823116.901 2
  23654169.660     5465415.603 4   4258808.491 2
  26369024.802      666171.447 2    519123.749 1
 91  4 23 23 42 45.0080000  0  4 13 06 02 15
  23861972.000    -5814015.562 3  -4530385.420 1
  23157492.104    -8751133.646 3  -6819016.864 3
  23658772.076     5489590.568 4   4277646.111 2
  26373212.305      688100.847 2    536211.506 1
 91  4 23 23 43  0.0080000  0  4 13 06 02 15
  23857153.140    -5839359.516 3  -4550133.899 1
  23158508.100    -8745784.481 3  -6814848.677 2
  23663375.382     5513796.798 4   4296508.097 2
  26377396.510      710155.669 2    553397.036 1
 91  4 23 23 43 15.0080000  0  4 13 06 02 15
  23852348.964    -5864589.165 3  -4569793.243 1
  23159544.180    -8740343.129 3  -6810608.627 3
  23667987.091     5538038.798 4   4315397.986 2
  26381616.688      732340.410 2    570683.954 1
 91  4 23 23 43 30.0080000  0  4 13 06 02 15
  23847574.768    -5889699.624 3  -4589359.827 1
  23160597.955    -8734804.489 3  -6806292.824 2
  23672611.992     5562321.410 4   4334319.454 2
  26385863.250      754659.572 2    588075.416 1
 91  4 23 23 43 45.0080000  0  4 13 06 02 15
  23842813.467    -5914694.336 3  -4608836.109 1
  23161667.915    -8729172.152 3  -6801903.949 2
  23677237.792     5586640.720 4   4353269.583 2
  26390141.581      777109.496 2    605568.956 1
 91  4 23 23 44  0.0080000  0  4 13 06 02 15
  23838079.145    -5939570.637 3  -4628220.138 2
  23162759.453    -8723443.615 3  -6797440.136 3
  23681873.782     5610998.927 4   4372250.004 2
  26394443.906      799692.474 2    623166.075 1
 91  4 23 23 44 15.0080000  0  4 13 06 02 15
  23833368.502    -5964331.721 3  -4647514.407 2
  23163866.887    -8717622.055 3  -6792903.842 3
  23686513.664     5635392.771 4   4391258.192 3
  26398762.713      822405.122 2    640864.247 1
 91  4 23 23 44 30.0080000  0  4 13 06 02 15
  23828676.749    -5988976.503 3  -4666718.069 1
  23164992.007    -8711706.353 3  -6788294.210 2
  23691165.543     5659823.103 4   4410294.786 3
  26403104.912      845247.915 2    658663.822 1
 91  4 23 23 44 45.0080000  0  4 13 06 02 15
  23824009.881    -6013506.556 3  -4685832.302 1
  23166134.220    -8705697.962 3  -6783612.300 3
  23695821.628     5684288.294 4   4429358.612 2
  26407476.488      868219.241 2    676563.576 1
 91  4 23 23 45  0.0080000  0  4 13 06 02 15
  23819362.800    -6037920.908 3  -4704856.416 2
  23167298.010    -8699596.035 3  -6778857.552 3
  23700481.901     5708788.896 4   4448449.970 2
  26411869.947      891319.945 2    694564.137 1
 91  4 23 23 45 15.0080000  0  4 13 06 02 15
  23814739.697    -6062218.625 3  -4723789.611 1
  23168475.001    -8693399.610 3  -6774029.152 3
  23705153.263     5733325.512 4   4467569.416 2
  26416293.376      914550.720 2    712666.059 1
 91  4 23 23 45 30.0080000  0  4 13 06 02 15
  23810135.788    -6086399.964 3  -4742632.123 2
  23169673.272    -8687109.105 3  -6769127.436 3
  23709827.932     5757897.795 4   4486716.649 2
  26420737.502      937910.902 2    730868.787 1
 91  4 23 23 45 45.0080000  0  4 13 06 02 15
  23805559.451    -6110465.942 3  -4761384.744 1
  23170887.729    -8680725.300 3  -6764153.026 3
  23714510.986     5782504.608 4   4505890.805 3
  26425212.209      961399.363 2    749171.527 1
 91  4 23 23 46  0.0090000  0  4 13 06 02 15
  23801005.907    -6134411.882 3  -4780043.871 2
  23172121.375    -8674241.476 3  -6759100.686 3
  23719198.842     5807153.574 4   4525097.792 2
  26429707.598      985024.035 2    767580.367 1
 91  4 23 23 46 15.0090000  0  4 13 06 02 15
  23796467.647    -6158236.556 3  -4798608.488 1
  23173378.105    -8667660.489 3  -6753972.648 3
  23723896.292     5831838.979 4   4544333.172 3
  26434233.565     1008778.982 2    786090.696 1
 91  4 23 23 46 30.0090000  0  4 13 06 02 15
  23791955.169    -6181949.514 3  -4817086.007 2
  23174644.424    -8660989.777 3  -6748774.674 3
  23728602.127     5856554.501 4   4563592.002 3
  26438773.919     1032657.807 2    804697.604 1
 91  4 23 23 46 45.0090000  0  4 13 06 02 15
  23787466.379    -6205544.357 3  -4835471.575 2
  23175931.735    -8654222.834 3  -6743501.750 3
  23733313.965     5881306.424 4   4582879.203 3
  26443336.759     1056666.838 2    823405.859 1
 91  4 23 23 47  0.0090000  0  4 13 06 02 15
  23782995.573    -6229019.577 3  -4853763.851 1
  23177239.428    -8647358.441 3  -6738152.857 2
  23738028.804     5906095.979 4   4602195.747 2
  26447928.984     1080807.093 2    842216.552 1
 91  4 23 23 47 15.0090000  0  4 13 06 02 15
  23778553.550    -6252375.667 3  -4871963.325 1
  23178560.314    -8640397.055 3  -6732728.385 2
  23742753.233     5930922.202 4   4621540.859 2
  26452555.674     1105077.714 2    861128.730 1
 91  4 23 23 47 30.0090000  0  4 13 06 02 15
  23774132.511    -6275613.658 3  -4890070.767 1
  23179907.584    -8633339.825 3  -6727229.228 2
  23747481.858     5955783.794 4   4640913.528 2
  26457188.366     1129477.036 2    880141.118 1
 91  4 23 23 47 45.0090000  0  4 13 06 02 15
  23769734.253    -6298735.494 3  -4908087.715 1
  23181265.647    -8626188.427 3  -6721656.704 2
  23752219.784     5980678.849 4   4660312.278 2
  26461858.839     1154003.399 2    899252.677 1
 91  4 23 23 48  0.0090000  0  4 13 06 02 15
  23765353.088    -6321735.765 3  -4926009.921 1
  23182646.186    -8618937.304 3  -6716006.467 2
  23756963.695     6005612.734 4   4679741.279 3
  26466560.180     1178662.150 2    918467.311 1
 91  4 23 23 48 15.0090000  0  4 13 06 02 15
  23761000.105    -6344618.295 3  -4943840.386 2
  23184044.420    -8611590.150 3  -6710281.376 3
  23761718.409     6030581.353 4   4699197.360 3
  26471272.917     1203449.241 2    937781.880 1
 91  4 23 23 48 30.0090000  0  4 13 06 02 15
  23756668.699    -6367386.125 3  -4961581.458 2
  23185460.636    -8604150.345 3  -6704484.102 3
  23766474.012     6055581.155 4   4718677.738 2
  26476004.247     1228361.056 2    957193.662 1
 91  4 23 23 48 45.0090000  0  4 13 06 02 15
  23752359.185    -6390034.083 3  -4979229.182 2
  23186895.445    -8596612.585 3  -6698610.558 3
  23771238.314     6080617.330 4   4738186.418 3
  26480772.746     1253402.571 2    976706.412 1
 91  4 23 23 49  0.0090000  0  4 13 06 02 15
  23748074.249    -6412562.868 3  -4996783.974 1
  23188344.939    -8588977.521 3  -6692661.124 3
  23776011.611     6105689.002 4   4757722.797 2
  26485568.519     1278572.895 2    996319.847 1
 91  4 23 23 49 15.0090000  0  4 13 06 02 15
  23743805.804    -6434974.625 3  -5014247.630 1
  23189817.519    -8581247.472 3  -6686637.715 3
  23780784.604     6130793.557 4   4777284.776 3
  26490383.488     1303869.275 2   1016031.259 1
 91  4 23 23 49 30.0090000  0  4 13 06 02 15
  23739564.642    -6457268.075 3  -5031619.049 1
  23191306.590    -8573420.922 3  -6680539.072 3
  23785568.991     6155932.167 4   4796873.321 3
  26495213.743     1329293.024 2   1035842.015 1
 91  4 23 23 49 45.0090000  0  4 13 06 02 15
  23735346.863    -6479443.277 3  -5048898.380 1
  23192815.449    -8565497.995 3  -6674365.360 3
  23790358.779     6181104.779 4   4816488.349 2
  26500080.879     1354844.073 2   1055751.918 1
 91  4 23 23 50  0.0090000  0  4 13 06 02 15
  23731148.864    -6501500.285 3  -5066085.590 1
  23194342.893    -8557478.370 3  -6668116.299 3
  23795160.852     6206311.345 4   4836129.813 2
  26504963.599     1380522.095 2   1075760.833 1
 91  4 23 23 50 15.0090000  0  4 13 06 02 15
  23726967.958    -6523435.025 3  -5083177.528 2
  23195891.015    -8549358.303 3  -6661788.960 3
  23799958.432     6231555.431 3   4855800.538 3
  26509878.993     1406331.040 2   1095871.582 1
 91  4 23 23 50 30.0090000  0  4 13 06 02 15
  23722820.329    -6545255.888 3  -5100180.613 2
  23197449.040    -8541146.081 3  -6655389.734 3
  23804771.298     6256828.434 4   4875493.861 3
  26514810.879     1432261.766 2   1116077.554 1
 91  4 23 23 50 45.0090000  0  4 13 06 02 15
  23718687.995    -6566959.336 3  -5117092.319 2
  23199029.550    -8532838.223 3  -6648916.050 3
  23809585.970     6282133.574 4   4895212.159 3
  26519770.641     1458317.691 2   1136380.866 1
 91  4 23 23 51  0.0090000  0  4 13 06 02 15
  23714583.233    -6588546.395 3  -5133913.446 1
  23200626.236    -8524435.613 3  -6642368.667 2
  23814406.933     6307469.782 4   4914954.542 2
  26524747.800     1484497.443 2   1156780.684 1
 91  4 23 23 51 15.0090000  0  4 13 06 02 15
  23710503.058    -6610015.007 3  -5150642.034 2
  23202244.517    -8515936.362 3  -6635745.751 3
  23819236.883     6332838.688 4   4934722.638 3
  26529760.332     1510802.805 2   1177278.380 1
 91  4 23 23 51 30.0090000  0  4 13 06 02 15
  23706433.981    -6631365.519 3  -5167278.734 2
  23203879.288    -8507340.796 3  -6629047.897 3
  23824068.342     6358239.585 4   4954515.537 3
  26534793.847     1537233.244 2   1197873.510 1
 91  4 23 23 51 45.0090000  0  4 13 06 02 15
  23702396.673    -6652595.121 3  -5183821.205 2
  23205538.036    -8498645.918 3  -6622272.658 3
  23828906.694     6383675.484 4   4974335.710 3
  26539836.655     1563791.418 2   1218568.237 1
 91  4 23 23 52  0.0090000  0  4 13 06 02 15
  23698377.355    -6673707.669 3  -5200272.464 2
  23207209.985    -8489855.480 3  -6615422.961 3
  23833754.932     6409142.565 4   4994180.175 3
  26544917.539     1590473.208 2   1239359.219 1
 91  4 23 23 52 15.0090000  0  4 13 06 02 15
  23694382.616    -6694703.556 3  -5216632.822 2
  23208901.112    -8480970.086 3  -6608499.268 3
  23838607.078     6434639.976 4   5014048.289 3
  26550019.703     1617277.976 2   1260246.027 1
 91  4 23 23 52 30.0090000  0  4 13 06 02 15
  23690410.973    -6715583.187 3  -5232902.577 2
  23210612.027    -8471989.985 3  -6601501.765 3
  23843461.615     6460167.068 4   5033939.531 3
  26555147.650     1644204.756 2   1281227.894 1
 91  4 23 23 52 45.0090000  0  4 13 06 02 15
  23686459.406    -6736343.572 3  -5249079.539 1
  23212336.135    -8462912.164 3  -6594428.269 3
  23848331.142     6485726.756 4   5053856.018 2
  26560294.487     1671256.553 2   1302307.094 1
 91  4 23 23 53  0.0090000  0  4 13 06 02 15
  23682530.926    -6756985.966 3  -5265164.443 2
  23214083.024    -8453738.067 3  -6587279.578 3
  23853194.675     6511317.470 4   5073796.872 3
  26565461.113     1698431.673 2   1323482.615 1
 91  4 23 23 53 15.0090000  0  4 13 06 02 15
  23678622.531    -6777507.308 3  -5281155.016 1
  23215847.006    -8444464.352 3  -6580053.311 2
  23858075.300     6536942.227 4   5093764.212 2
  26570658.617     1725733.124 2   1344756.375 1
 91  4 23 23 53 30.0090000  0  4 13 06 02 15
  23674741.716    -6797905.474 3  -5297049.504 2
  23217632.267    -8435088.972 3  -6572747.691 3
  23862958.316     6562602.794 4   5113759.556 3
  26575881.004     1753162.604 2   1366130.155 1
 91  4 23 23 53 45.0090000  0  4 13 06 02 15
  23670881.893    -6818181.555 3  -5312849.000 2
  23219437.021    -8425612.886 3  -6565363.729 3
  23867847.631     6588298.152 4   5133781.898 3
  26581126.470     1780719.011 2   1387602.681 1
 91  4 23 23 54  0.0090000  0  4 13 06 02 15
  23667051.440    -6838338.587 3  -5328555.715 2
  23221258.554    -8416038.940 3  -6557903.495 3
  23872742.644     6614025.112 4   5153828.871 3
  26586386.332     1808398.900 2   1409171.433 1
 91  4 23 23 54 15.0090000  0  4 13 06 02 15
  23663235.086    -6858373.757 3  -5344167.477 2
  23223098.984    -8406364.552 3  -6550364.998 3
  23877641.854     6639786.106 4   5173902.369 3
  26591676.461     1836204.569 2   1430838.175 1
 91  4 23 23 54 30.0090000  0  4 13 06 02 15
  23659444.506    -6878285.992 3  -5359683.438 2
  23224961.891    -8396588.577 3  -6542747.360 3
  23882555.451     6665582.187 4   5194003.204 3
  26596995.986     1864137.255 2   1452603.915 1
 91  4 23 23 54 45.0090000  0  4 13 06 02 15
  23655681.209    -6898070.269 3  -5375099.688 2
  23226836.795    -8386705.793 3  -6535046.483 3
  23887465.149     6691418.254 3   5214135.202 3
  26602334.391     1892201.786 2   1474472.420 1
 91  4 23 23 55  0.0090000  0  4 13 06 02 15
  23651942.204    -6917727.999 3  -5390417.333 2
  23228738.982    -8376717.592 3  -6527263.453 3
  23892392.541     6717292.877 4   5234297.236 3
  26607704.870     1920396.428 2   1496442.289 1
 91  4 23 23 55 15.0090000  0  4 13 06 02 15
  23648223.274    -6937261.625 3  -5405638.278 2
  23230660.652    -8366626.650 3  -6519400.371 3
  23897324.722     6743202.937 4   5254486.901 3
  26613090.042     1948718.252 2   1518511.213 1
 91  4 23 23 55 30.0090000  0  4 13 06 02 15
  23644528.636    -6956668.930 3  -5420760.770 2
  23232594.913    -8356430.515 3  -6511455.330 3
  23902262.305     6769150.720 4   5274705.948 3
  26618505.194     1977169.045 2   1540680.650 1
 91  4 23 23 55 45.0090000  0  4 13 06 02 15
  23640857.974    -6975953.463 3  -5435787.609 2
  23234558.848    -8346133.080 3  -6503431.366 3
  23907209.180     6795132.345 4   5294951.358 3
  26623948.824     2005745.033 2   1562947.682 1
 91  4 23 23 56  0.0090000  0  4 13 06 02 15
  23637214.900    -6995109.349 3  -5450714.200 2
  23236540.180    -8335728.062 3  -6495323.540 3
  23912159.353     6821153.678 4   5315227.719 3
  26629403.850     2034452.027 2   1585316.730 1
 91  4 23 23 56 15.0090000  0  4 13 06 02 15
  23633596.702    -7014136.563 3  -5465540.519 2
  23238539.792    -8325215.477 3  -6487131.903 3
  23917117.920     6847214.436 4   5335534.789 3
  26634893.645     2063289.720 2   1607787.673 1
 91  4 23 23 56 30.0090000  0  4 13 06 02 15
  23629997.394    -7033037.057 3  -5480268.095 2
  23240562.194    -8314597.252 3  -6478857.955 3
  23922083.685     6873312.713 4   5355871.108 3
  26640405.627     2092256.012 2   1630358.823 1
 91  4 23 23 56 45.0090000  0  4 13 06 02 15
  23626423.267    -7051811.777 3  -5494897.676 2
  23242599.280    -8303873.967 3  -6470502.149 3
  23927059.038     6899447.716 4   5376236.033 3
  26645943.393     2121349.775 2   1653029.282 1
 91  4 23 23 57  0.0090000  0  4 13 06 02 15
  23622875.228    -7070457.098 4  -5509426.444 2
  23244661.259    -8293042.222 3  -6462061.817 3
  23932037.996     6925622.375 3   5396631.847 3
  26651506.042     2150574.320 2   1675801.679
